<?xml version="1.0" encoding="UTF-8" standalone="no" ?>
<gpx xmlns="http://www.topografix.com/GPX/1/1" xmlns:xsi="http://www.w3.org/2001/XMLSchema-instance" xsi:schemaLocation="http://www.topografix.com/GPX/1/1 http://www.topografix.com/GPX/1/1/gpx.xsd" version="1.1" creator="VisuGPX - https://www.visugpx.com">
  <metadata>
    <name>2019-06-26 16:54:33</name>
    <desc><![CDATA[Pas de problemes pour accéder au Col de la Louze.Par contre pour aller au Grand Mont il reste de la neige et l'orientation avec les cairns est difficile.Retour par le col de la Forclaz et le Grand Rognoux.Vues magnifiques.Alain.]]></desc>
  </metadata>
  <trk>
    <name><![CDATA[2019-06-26 16:54:33]]></name>
    <trkseg>
      <trkpt lat="45.65106" lon="6.58129">
        <ele>1583.76</ele>
        <time>2019-06-26T06:56:47Z</time>
      </trkpt>
      <trkpt lat="45.65102" lon="6.58129">
        <ele>1582.08</ele>
        <time>2019-06-26T06:57:05Z</time>
      </trkpt>
      <trkpt lat="45.65095" lon="6.58129">
        <ele>1581.58</ele>
        <time>2019-06-26T06:57:21Z</time>
      </trkpt>
      <trkpt lat="45.65095" lon="6.58127">
        <ele>1581.57</ele>
        <time>2019-06-26T06:57:23Z</time>
      </trkpt>
      <trkpt lat="45.65094" lon="6.5812">
        <ele>1582.06</ele>
        <time>2019-06-26T06:57:28Z</time>
      </trkpt>
      <trkpt lat="45.65092" lon="6.58098">
        <ele>1583.45</ele>
        <time>2019-06-26T06:57:43Z</time>
      </trkpt>
      <trkpt lat="45.65088" lon="6.58087">
        <ele>1580.92</ele>
        <time>2019-06-26T06:57:59Z</time>
      </trkpt>
      <trkpt lat="45.65086" lon="6.58086">
        <ele>1579.3</ele>
        <time>2019-06-26T06:58:18Z</time>
      </trkpt>
      <trkpt lat="45.65082" lon="6.58083">
        <ele>1576.25</ele>
        <time>2019-06-26T06:58:33Z</time>
      </trkpt>
      <trkpt lat="45.65081" lon="6.58084">
        <ele>1574.81</ele>
        <time>2019-06-26T06:58:37Z</time>
      </trkpt>
      <trkpt lat="45.65074" lon="6.58085">
        <ele>1572.11</ele>
        <time>2019-06-26T06:58:55Z</time>
      </trkpt>
      <trkpt lat="45.65073" lon="6.58088">
        <ele>1570.37</ele>
        <time>2019-06-26T06:59:18Z</time>
      </trkpt>
      <trkpt lat="45.65068" lon="6.58088">
        <ele>1566.76</ele>
        <time>2019-06-26T06:59:34Z</time>
      </trkpt>
      <trkpt lat="45.6506" lon="6.58083">
        <ele>1565.08</ele>
        <time>2019-06-26T06:59:47Z</time>
      </trkpt>
      <trkpt lat="45.65063" lon="6.58085">
        <ele>1565.78</ele>
        <time>2019-06-26T07:00:10Z</time>
      </trkpt>
      <trkpt lat="45.65066" lon="6.58086">
        <ele>1565.96</ele>
        <time>2019-06-26T07:00:36Z</time>
      </trkpt>
      <trkpt lat="45.65066" lon="6.58079">
        <ele>1565.54</ele>
        <time>2019-06-26T07:00:54Z</time>
      </trkpt>
      <trkpt lat="45.65065" lon="6.58072">
        <ele>1564.68</ele>
        <time>2019-06-26T07:01:10Z</time>
      </trkpt>
      <trkpt lat="45.65067" lon="6.5807">
        <ele>1564.32</ele>
        <time>2019-06-26T07:01:27Z</time>
      </trkpt>
      <trkpt lat="45.65067" lon="6.5807">
        <ele>1564.25</ele>
        <time>2019-06-26T07:01:31Z</time>
      </trkpt>
      <trkpt lat="45.65067" lon="6.58063">
        <ele>1563.65</ele>
        <time>2019-06-26T07:01:35Z</time>
      </trkpt>
      <trkpt lat="45.65067" lon="6.58056">
        <ele>1563.39</ele>
        <time>2019-06-26T07:01:39Z</time>
      </trkpt>
      <trkpt lat="45.65063" lon="6.58051">
        <ele>1563.54</ele>
        <time>2019-06-26T07:01:44Z</time>
      </trkpt>
      <trkpt lat="45.65056" lon="6.58043">
        <ele>1563.09</ele>
        <time>2019-06-26T07:01:59Z</time>
      </trkpt>
      <trkpt lat="45.65051" lon="6.5804">
        <ele>1563.36</ele>
        <time>2019-06-26T07:02:04Z</time>
      </trkpt>
      <trkpt lat="45.65044" lon="6.5803">
        <ele>1563.26</ele>
        <time>2019-06-26T07:02:13Z</time>
      </trkpt>
      <trkpt lat="45.65039" lon="6.58022">
        <ele>1563.15</ele>
        <time>2019-06-26T07:02:30Z</time>
      </trkpt>
      <trkpt lat="45.65036" lon="6.58017">
        <ele>1563.02</ele>
        <time>2019-06-26T07:02:38Z</time>
      </trkpt>
      <trkpt lat="45.65032" lon="6.58009">
        <ele>1563.22</ele>
        <time>2019-06-26T07:02:44Z</time>
      </trkpt>
      <trkpt lat="45.65025" lon="6.57994">
        <ele>1562.78</ele>
        <time>2019-06-26T07:02:56Z</time>
      </trkpt>
      <trkpt lat="45.65018" lon="6.57973">
        <ele>1562.97</ele>
        <time>2019-06-26T07:03:11Z</time>
      </trkpt>
      <trkpt lat="45.65014" lon="6.57947">
        <ele>1562.84</ele>
        <time>2019-06-26T07:03:26Z</time>
      </trkpt>
      <trkpt lat="45.65013" lon="6.57923">
        <ele>1563.2</ele>
        <time>2019-06-26T07:03:41Z</time>
      </trkpt>
      <trkpt lat="45.65015" lon="6.57898">
        <ele>1562.7</ele>
        <time>2019-06-26T07:03:56Z</time>
      </trkpt>
      <trkpt lat="45.65022" lon="6.57872">
        <ele>1562.81</ele>
        <time>2019-06-26T07:04:13Z</time>
      </trkpt>
      <trkpt lat="45.65022" lon="6.5787">
        <ele>1563.03</ele>
        <time>2019-06-26T07:04:14Z</time>
      </trkpt>
      <trkpt lat="45.65028" lon="6.57855">
        <ele>1562.61</ele>
        <time>2019-06-26T07:04:24Z</time>
      </trkpt>
      <trkpt lat="45.65034" lon="6.57839">
        <ele>1562.89</ele>
        <time>2019-06-26T07:04:37Z</time>
      </trkpt>
      <trkpt lat="45.65041" lon="6.57825">
        <ele>1562.57</ele>
        <time>2019-06-26T07:04:54Z</time>
      </trkpt>
      <trkpt lat="45.65056" lon="6.57806">
        <ele>1562.43</ele>
        <time>2019-06-26T07:05:08Z</time>
      </trkpt>
      <trkpt lat="45.65049" lon="6.5779">
        <ele>1562.48</ele>
        <time>2019-06-26T07:05:30Z</time>
      </trkpt>
      <trkpt lat="45.65042" lon="6.57788">
        <ele>1562.48</ele>
        <time>2019-06-26T07:05:38Z</time>
      </trkpt>
      <trkpt lat="45.65036" lon="6.57786">
        <ele>1562.78</ele>
        <time>2019-06-26T07:05:44Z</time>
      </trkpt>
      <trkpt lat="45.65029" lon="6.57789">
        <ele>1563.13</ele>
        <time>2019-06-26T07:05:52Z</time>
      </trkpt>
      <trkpt lat="45.65023" lon="6.5779">
        <ele>1563.15</ele>
        <time>2019-06-26T07:05:59Z</time>
      </trkpt>
      <trkpt lat="45.65018" lon="6.57789">
        <ele>1563.11</ele>
        <time>2019-06-26T07:06:03Z</time>
      </trkpt>
      <trkpt lat="45.64996" lon="6.57782">
        <ele>1563.02</ele>
        <time>2019-06-26T07:06:20Z</time>
      </trkpt>
      <trkpt lat="45.6498" lon="6.57787">
        <ele>1563.2</ele>
        <time>2019-06-26T07:06:32Z</time>
      </trkpt>
      <trkpt lat="45.64979" lon="6.57788">
        <ele>1562.89</ele>
        <time>2019-06-26T07:06:33Z</time>
      </trkpt>
      <trkpt lat="45.64963" lon="6.5779">
        <ele>1563.09</ele>
        <time>2019-06-26T07:06:46Z</time>
      </trkpt>
      <trkpt lat="45.64961" lon="6.57789">
        <ele>1563.34</ele>
        <time>2019-06-26T07:06:48Z</time>
      </trkpt>
      <trkpt lat="45.64954" lon="6.57786">
        <ele>1563.43</ele>
        <time>2019-06-26T07:06:53Z</time>
      </trkpt>
      <trkpt lat="45.64952" lon="6.57785">
        <ele>1563.4</ele>
        <time>2019-06-26T07:06:55Z</time>
      </trkpt>
      <trkpt lat="45.64944" lon="6.57782">
        <ele>1563.15</ele>
        <time>2019-06-26T07:07:01Z</time>
      </trkpt>
      <trkpt lat="45.64933" lon="6.57773">
        <ele>1563.23</ele>
        <time>2019-06-26T07:07:12Z</time>
      </trkpt>
      <trkpt lat="45.64921" lon="6.57769">
        <ele>1563.55</ele>
        <time>2019-06-26T07:07:25Z</time>
      </trkpt>
      <trkpt lat="45.649" lon="6.57765">
        <ele>1564.67</ele>
        <time>2019-06-26T07:07:43Z</time>
      </trkpt>
      <trkpt lat="45.64884" lon="6.57758">
        <ele>1565.42</ele>
        <time>2019-06-26T07:07:57Z</time>
      </trkpt>
      <trkpt lat="45.64882" lon="6.57758">
        <ele>1565.34</ele>
        <time>2019-06-26T07:07:59Z</time>
      </trkpt>
      <trkpt lat="45.64875" lon="6.57756">
        <ele>1565.86</ele>
        <time>2019-06-26T07:08:11Z</time>
      </trkpt>
      <trkpt lat="45.6487" lon="6.57756">
        <ele>1565.94</ele>
        <time>2019-06-26T07:08:16Z</time>
      </trkpt>
      <trkpt lat="45.64849" lon="6.57746">
        <ele>1566.8</ele>
        <time>2019-06-26T07:08:37Z</time>
      </trkpt>
      <trkpt lat="45.64838" lon="6.57742">
        <ele>1567.06</ele>
        <time>2019-06-26T07:08:46Z</time>
      </trkpt>
      <trkpt lat="45.64828" lon="6.57744">
        <ele>1567.39</ele>
        <time>2019-06-26T07:08:55Z</time>
      </trkpt>
      <trkpt lat="45.64813" lon="6.57744">
        <ele>1568.65</ele>
        <time>2019-06-26T07:09:10Z</time>
      </trkpt>
      <trkpt lat="45.64788" lon="6.57749">
        <ele>1568.88</ele>
        <time>2019-06-26T07:09:33Z</time>
      </trkpt>
      <trkpt lat="45.64782" lon="6.57752">
        <ele>1568.84</ele>
        <time>2019-06-26T07:09:38Z</time>
      </trkpt>
      <trkpt lat="45.64772" lon="6.57751">
        <ele>1568.48</ele>
        <time>2019-06-26T07:09:47Z</time>
      </trkpt>
      <trkpt lat="45.64767" lon="6.57748">
        <ele>1568.39</ele>
        <time>2019-06-26T07:09:51Z</time>
      </trkpt>
      <trkpt lat="45.64746" lon="6.57741">
        <ele>1567.4</ele>
        <time>2019-06-26T07:10:08Z</time>
      </trkpt>
      <trkpt lat="45.64731" lon="6.57745">
        <ele>1566.37</ele>
        <time>2019-06-26T07:10:23Z</time>
      </trkpt>
      <trkpt lat="45.64726" lon="6.57745">
        <ele>1566.28</ele>
        <time>2019-06-26T07:10:27Z</time>
      </trkpt>
      <trkpt lat="45.64704" lon="6.57736">
        <ele>1565.4</ele>
        <time>2019-06-26T07:10:47Z</time>
      </trkpt>
      <trkpt lat="45.64687" lon="6.57734">
        <ele>1565.1</ele>
        <time>2019-06-26T07:11:01Z</time>
      </trkpt>
      <trkpt lat="45.64679" lon="6.57732">
        <ele>1564.89</ele>
        <time>2019-06-26T07:11:08Z</time>
      </trkpt>
      <trkpt lat="45.64676" lon="6.57732">
        <ele>1564.91</ele>
        <time>2019-06-26T07:11:10Z</time>
      </trkpt>
      <trkpt lat="45.64665" lon="6.57734">
        <ele>1564.96</ele>
        <time>2019-06-26T07:11:24Z</time>
      </trkpt>
      <trkpt lat="45.64652" lon="6.57732">
        <ele>1564.71</ele>
        <time>2019-06-26T07:11:40Z</time>
      </trkpt>
      <trkpt lat="45.64649" lon="6.57731">
        <ele>1564.56</ele>
        <time>2019-06-26T07:11:42Z</time>
      </trkpt>
      <trkpt lat="45.64638" lon="6.57728">
        <ele>1564.38</ele>
        <time>2019-06-26T07:11:52Z</time>
      </trkpt>
      <trkpt lat="45.6462" lon="6.57726">
        <ele>1563.86</ele>
        <time>2019-06-26T07:12:06Z</time>
      </trkpt>
      <trkpt lat="45.64609" lon="6.57725">
        <ele>1563.3</ele>
        <time>2019-06-26T07:12:16Z</time>
      </trkpt>
      <trkpt lat="45.64592" lon="6.57726">
        <ele>1562.44</ele>
        <time>2019-06-26T07:12:32Z</time>
      </trkpt>
      <trkpt lat="45.64574" lon="6.57726">
        <ele>1562.77</ele>
        <time>2019-06-26T07:12:49Z</time>
      </trkpt>
      <trkpt lat="45.64566" lon="6.57725">
        <ele>1562.82</ele>
        <time>2019-06-26T07:12:55Z</time>
      </trkpt>
      <trkpt lat="45.64558" lon="6.57724">
        <ele>1562.92</ele>
        <time>2019-06-26T07:13:02Z</time>
      </trkpt>
      <trkpt lat="45.64536" lon="6.57721">
        <ele>1562.71</ele>
        <time>2019-06-26T07:13:20Z</time>
      </trkpt>
      <trkpt lat="45.64516" lon="6.57719">
        <ele>1562.85</ele>
        <time>2019-06-26T07:13:34Z</time>
      </trkpt>
      <trkpt lat="45.64506" lon="6.5771">
        <ele>1562.93</ele>
        <time>2019-06-26T07:13:45Z</time>
      </trkpt>
      <trkpt lat="45.64492" lon="6.57711">
        <ele>1562.69</ele>
        <time>2019-06-26T07:13:59Z</time>
      </trkpt>
      <trkpt lat="45.64475" lon="6.57706">
        <ele>1563.14</ele>
        <time>2019-06-26T07:14:17Z</time>
      </trkpt>
      <trkpt lat="45.64452" lon="6.57706">
        <ele>1563.86</ele>
        <time>2019-06-26T07:14:39Z</time>
      </trkpt>
      <trkpt lat="45.64432" lon="6.57701">
        <ele>1564.21</ele>
        <time>2019-06-26T07:14:56Z</time>
      </trkpt>
      <trkpt lat="45.64409" lon="6.57701">
        <ele>1564.4</ele>
        <time>2019-06-26T07:15:17Z</time>
      </trkpt>
      <trkpt lat="45.64385" lon="6.57692">
        <ele>1564.97</ele>
        <time>2019-06-26T07:15:38Z</time>
      </trkpt>
      <trkpt lat="45.64364" lon="6.57685">
        <ele>1564.88</ele>
        <time>2019-06-26T07:15:58Z</time>
      </trkpt>
      <trkpt lat="45.64335" lon="6.57678">
        <ele>1564.28</ele>
        <time>2019-06-26T07:16:21Z</time>
      </trkpt>
      <trkpt lat="45.6432" lon="6.57671">
        <ele>1564.09</ele>
        <time>2019-06-26T07:16:39Z</time>
      </trkpt>
      <trkpt lat="45.64298" lon="6.57661">
        <ele>1562.47</ele>
        <time>2019-06-26T07:16:58Z</time>
      </trkpt>
      <trkpt lat="45.64277" lon="6.57653">
        <ele>1561.77</ele>
        <time>2019-06-26T07:17:15Z</time>
      </trkpt>
      <trkpt lat="45.64265" lon="6.57647">
        <ele>1561.4</ele>
        <time>2019-06-26T07:17:25Z</time>
      </trkpt>
      <trkpt lat="45.64249" lon="6.57638">
        <ele>1561.55</ele>
        <time>2019-06-26T07:17:40Z</time>
      </trkpt>
      <trkpt lat="45.64229" lon="6.57625">
        <ele>1561.8</ele>
        <time>2019-06-26T07:17:56Z</time>
      </trkpt>
      <trkpt lat="45.64224" lon="6.57619">
        <ele>1561.93</ele>
        <time>2019-06-26T07:18:03Z</time>
      </trkpt>
      <trkpt lat="45.64212" lon="6.57604">
        <ele>1562.17</ele>
        <time>2019-06-26T07:18:17Z</time>
      </trkpt>
      <trkpt lat="45.64211" lon="6.57603">
        <ele>1562.26</ele>
        <time>2019-06-26T07:18:18Z</time>
      </trkpt>
      <trkpt lat="45.64197" lon="6.57595">
        <ele>1562.7</ele>
        <time>2019-06-26T07:18:32Z</time>
      </trkpt>
      <trkpt lat="45.64181" lon="6.57588">
        <ele>1562.97</ele>
        <time>2019-06-26T07:18:49Z</time>
      </trkpt>
      <trkpt lat="45.64171" lon="6.57589">
        <ele>1562.79</ele>
        <time>2019-06-26T07:19:06Z</time>
      </trkpt>
      <trkpt lat="45.6417" lon="6.5759">
        <ele>1562.6</ele>
        <time>2019-06-26T07:19:19Z</time>
      </trkpt>
      <trkpt lat="45.6417" lon="6.57591">
        <ele>1561.91</ele>
        <time>2019-06-26T07:19:43Z</time>
      </trkpt>
      <trkpt lat="45.6417" lon="6.57591">
        <ele>1561.91</ele>
        <time>2019-06-26T07:20:34Z</time>
      </trkpt>
      <trkpt lat="45.64168" lon="6.57589">
        <ele>1562.54</ele>
        <time>2019-06-26T07:20:55Z</time>
      </trkpt>
      <trkpt lat="45.64167" lon="6.57586">
        <ele>1562.45</ele>
        <time>2019-06-26T07:21:17Z</time>
      </trkpt>
      <trkpt lat="45.64167" lon="6.57584">
        <ele>1562.86</ele>
        <time>2019-06-26T07:21:33Z</time>
      </trkpt>
      <trkpt lat="45.64154" lon="6.57583">
        <ele>1565.44</ele>
        <time>2019-06-26T07:21:52Z</time>
      </trkpt>
      <trkpt lat="45.64148" lon="6.57577">
        <ele>1568.54</ele>
        <time>2019-06-26T07:22:13Z</time>
      </trkpt>
      <trkpt lat="45.6414" lon="6.57564">
        <ele>1571.15</ele>
        <time>2019-06-26T07:22:33Z</time>
      </trkpt>
      <trkpt lat="45.64139" lon="6.57549">
        <ele>1574.31</ele>
        <time>2019-06-26T07:22:53Z</time>
      </trkpt>
      <trkpt lat="45.64132" lon="6.57531">
        <ele>1574.32</ele>
        <time>2019-06-26T07:23:09Z</time>
      </trkpt>
      <trkpt lat="45.64123" lon="6.57517">
        <ele>1573.56</ele>
        <time>2019-06-26T07:23:26Z</time>
      </trkpt>
      <trkpt lat="45.64105" lon="6.57503">
        <ele>1573.89</ele>
        <time>2019-06-26T07:23:48Z</time>
      </trkpt>
      <trkpt lat="45.64096" lon="6.57491">
        <ele>1574.14</ele>
        <time>2019-06-26T07:24:03Z</time>
      </trkpt>
      <trkpt lat="45.64089" lon="6.57485">
        <ele>1573.72</ele>
        <time>2019-06-26T07:24:18Z</time>
      </trkpt>
      <trkpt lat="45.64082" lon="6.57476">
        <ele>1574.74</ele>
        <time>2019-06-26T07:24:34Z</time>
      </trkpt>
      <trkpt lat="45.64069" lon="6.57473">
        <ele>1576.72</ele>
        <time>2019-06-26T07:24:54Z</time>
      </trkpt>
      <trkpt lat="45.64059" lon="6.57467">
        <ele>1576.73</ele>
        <time>2019-06-26T07:25:10Z</time>
      </trkpt>
      <trkpt lat="45.64048" lon="6.57456">
        <ele>1577.98</ele>
        <time>2019-06-26T07:25:25Z</time>
      </trkpt>
      <trkpt lat="45.64032" lon="6.57439">
        <ele>1579.87</ele>
        <time>2019-06-26T07:25:45Z</time>
      </trkpt>
      <trkpt lat="45.64016" lon="6.57436">
        <ele>1582.89</ele>
        <time>2019-06-26T07:26:07Z</time>
      </trkpt>
      <trkpt lat="45.64006" lon="6.57424">
        <ele>1584.65</ele>
        <time>2019-06-26T07:26:23Z</time>
      </trkpt>
      <trkpt lat="45.64006" lon="6.57405">
        <ele>1587.48</ele>
        <time>2019-06-26T07:26:41Z</time>
      </trkpt>
      <trkpt lat="45.64002" lon="6.57383">
        <ele>1589.95</ele>
        <time>2019-06-26T07:27:02Z</time>
      </trkpt>
      <trkpt lat="45.64002" lon="6.57382">
        <ele>1590.18</ele>
        <time>2019-06-26T07:27:03Z</time>
      </trkpt>
      <trkpt lat="45.63992" lon="6.57372">
        <ele>1590.84</ele>
        <time>2019-06-26T07:27:19Z</time>
      </trkpt>
      <trkpt lat="45.6398" lon="6.57364">
        <ele>1590.7</ele>
        <time>2019-06-26T07:27:34Z</time>
      </trkpt>
      <trkpt lat="45.63967" lon="6.57355">
        <ele>1592.39</ele>
        <time>2019-06-26T07:27:50Z</time>
      </trkpt>
      <trkpt lat="45.63954" lon="6.57351">
        <ele>1592.88</ele>
        <time>2019-06-26T07:28:06Z</time>
      </trkpt>
      <trkpt lat="45.63941" lon="6.57345">
        <ele>1594.15</ele>
        <time>2019-06-26T07:28:24Z</time>
      </trkpt>
      <trkpt lat="45.63932" lon="6.57344">
        <ele>1595.46</ele>
        <time>2019-06-26T07:28:40Z</time>
      </trkpt>
      <trkpt lat="45.63927" lon="6.57329">
        <ele>1598.04</ele>
        <time>2019-06-26T07:28:59Z</time>
      </trkpt>
      <trkpt lat="45.63918" lon="6.57309">
        <ele>1601.04</ele>
        <time>2019-06-26T07:29:20Z</time>
      </trkpt>
      <trkpt lat="45.6391" lon="6.57292">
        <ele>1604.15</ele>
        <time>2019-06-26T07:29:42Z</time>
      </trkpt>
      <trkpt lat="45.63902" lon="6.57277">
        <ele>1607.63</ele>
        <time>2019-06-26T07:30:03Z</time>
      </trkpt>
      <trkpt lat="45.63891" lon="6.57263">
        <ele>1610.69</ele>
        <time>2019-06-26T07:30:25Z</time>
      </trkpt>
      <trkpt lat="45.63884" lon="6.57251">
        <ele>1613.87</ele>
        <time>2019-06-26T07:30:44Z</time>
      </trkpt>
      <trkpt lat="45.63874" lon="6.57232">
        <ele>1616.38</ele>
        <time>2019-06-26T07:31:08Z</time>
      </trkpt>
      <trkpt lat="45.63864" lon="6.57217">
        <ele>1617.99</ele>
        <time>2019-06-26T07:31:28Z</time>
      </trkpt>
      <trkpt lat="45.63863" lon="6.57216">
        <ele>1618.2</ele>
        <time>2019-06-26T07:31:29Z</time>
      </trkpt>
      <trkpt lat="45.63851" lon="6.57203">
        <ele>1617.03</ele>
        <time>2019-06-26T07:31:49Z</time>
      </trkpt>
      <trkpt lat="45.63841" lon="6.57197">
        <ele>1618.96</ele>
        <time>2019-06-26T07:32:07Z</time>
      </trkpt>
      <trkpt lat="45.63832" lon="6.57182">
        <ele>1621.05</ele>
        <time>2019-06-26T07:32:26Z</time>
      </trkpt>
      <trkpt lat="45.63824" lon="6.57158">
        <ele>1621.45</ele>
        <time>2019-06-26T07:32:47Z</time>
      </trkpt>
      <trkpt lat="45.6381" lon="6.57152">
        <ele>1621.68</ele>
        <time>2019-06-26T07:33:05Z</time>
      </trkpt>
      <trkpt lat="45.63799" lon="6.57149">
        <ele>1621.78</ele>
        <time>2019-06-26T07:33:22Z</time>
      </trkpt>
      <trkpt lat="45.63794" lon="6.57133">
        <ele>1624.09</ele>
        <time>2019-06-26T07:33:41Z</time>
      </trkpt>
      <trkpt lat="45.63788" lon="6.57111">
        <ele>1623.9</ele>
        <time>2019-06-26T07:34:01Z</time>
      </trkpt>
      <trkpt lat="45.63779" lon="6.57095">
        <ele>1625</ele>
        <time>2019-06-26T07:34:21Z</time>
      </trkpt>
      <trkpt lat="45.63773" lon="6.57103">
        <ele>1625.46</ele>
        <time>2019-06-26T07:34:37Z</time>
      </trkpt>
      <trkpt lat="45.6377" lon="6.57112">
        <ele>1627.63</ele>
        <time>2019-06-26T07:34:55Z</time>
      </trkpt>
      <trkpt lat="45.63765" lon="6.57104">
        <ele>1630.67</ele>
        <time>2019-06-26T07:35:13Z</time>
      </trkpt>
      <trkpt lat="45.63761" lon="6.571">
        <ele>1632.38</ele>
        <time>2019-06-26T07:35:31Z</time>
      </trkpt>
      <trkpt lat="45.63757" lon="6.57093">
        <ele>1635.47</ele>
        <time>2019-06-26T07:35:49Z</time>
      </trkpt>
      <trkpt lat="45.63751" lon="6.57091">
        <ele>1638.42</ele>
        <time>2019-06-26T07:36:10Z</time>
      </trkpt>
      <trkpt lat="45.63744" lon="6.57082">
        <ele>1640.83</ele>
        <time>2019-06-26T07:36:31Z</time>
      </trkpt>
      <trkpt lat="45.63739" lon="6.57083">
        <ele>1643.24</ele>
        <time>2019-06-26T07:36:52Z</time>
      </trkpt>
      <trkpt lat="45.63732" lon="6.57075">
        <ele>1645.82</ele>
        <time>2019-06-26T07:37:14Z</time>
      </trkpt>
      <trkpt lat="45.63726" lon="6.5708">
        <ele>1647.64</ele>
        <time>2019-06-26T07:37:31Z</time>
      </trkpt>
      <trkpt lat="45.63723" lon="6.57081">
        <ele>1649.41</ele>
        <time>2019-06-26T07:37:53Z</time>
      </trkpt>
      <trkpt lat="45.63719" lon="6.57077">
        <ele>1650.78</ele>
        <time>2019-06-26T07:38:12Z</time>
      </trkpt>
      <trkpt lat="45.63711" lon="6.57069">
        <ele>1653.88</ele>
        <time>2019-06-26T07:38:32Z</time>
      </trkpt>
      <trkpt lat="45.63706" lon="6.57058">
        <ele>1656.73</ele>
        <time>2019-06-26T07:38:54Z</time>
      </trkpt>
      <trkpt lat="45.63698" lon="6.57056">
        <ele>1659.82</ele>
        <time>2019-06-26T07:39:13Z</time>
      </trkpt>
      <trkpt lat="45.6369" lon="6.57059">
        <ele>1662.85</ele>
        <time>2019-06-26T07:39:35Z</time>
      </trkpt>
      <trkpt lat="45.63677" lon="6.57069">
        <ele>1665.35</ele>
        <time>2019-06-26T07:39:59Z</time>
      </trkpt>
      <trkpt lat="45.63667" lon="6.57061">
        <ele>1668.27</ele>
        <time>2019-06-26T07:40:21Z</time>
      </trkpt>
      <trkpt lat="45.63653" lon="6.57057">
        <ele>1670.42</ele>
        <time>2019-06-26T07:40:43Z</time>
      </trkpt>
      <trkpt lat="45.63644" lon="6.57047">
        <ele>1671.93</ele>
        <time>2019-06-26T07:41:05Z</time>
      </trkpt>
      <trkpt lat="45.63638" lon="6.57041">
        <ele>1669.46</ele>
        <time>2019-06-26T07:41:28Z</time>
      </trkpt>
      <trkpt lat="45.6363" lon="6.57036">
        <ele>1671.43</ele>
        <time>2019-06-26T07:41:47Z</time>
      </trkpt>
      <trkpt lat="45.6362" lon="6.57033">
        <ele>1673.3</ele>
        <time>2019-06-26T07:42:08Z</time>
      </trkpt>
      <trkpt lat="45.63625" lon="6.57026">
        <ele>1673.29</ele>
        <time>2019-06-26T07:42:28Z</time>
      </trkpt>
      <trkpt lat="45.63631" lon="6.57016">
        <ele>1673.73</ele>
        <time>2019-06-26T07:42:45Z</time>
      </trkpt>
      <trkpt lat="45.63634" lon="6.57006">
        <ele>1676.78</ele>
        <time>2019-06-26T07:43:03Z</time>
      </trkpt>
      <trkpt lat="45.63628" lon="6.56984">
        <ele>1678.82</ele>
        <time>2019-06-26T07:43:28Z</time>
      </trkpt>
      <trkpt lat="45.63616" lon="6.56968">
        <ele>1680.02</ele>
        <time>2019-06-26T07:43:45Z</time>
      </trkpt>
      <trkpt lat="45.63613" lon="6.56961">
        <ele>1680.29</ele>
        <time>2019-06-26T07:43:51Z</time>
      </trkpt>
      <trkpt lat="45.63609" lon="6.56956">
        <ele>1680.66</ele>
        <time>2019-06-26T07:43:57Z</time>
      </trkpt>
      <trkpt lat="45.63594" lon="6.56946">
        <ele>1681.17</ele>
        <time>2019-06-26T07:44:17Z</time>
      </trkpt>
      <trkpt lat="45.63589" lon="6.56933">
        <ele>1684.21</ele>
        <time>2019-06-26T07:44:37Z</time>
      </trkpt>
      <trkpt lat="45.63584" lon="6.56926">
        <ele>1687.24</ele>
        <time>2019-06-26T07:44:52Z</time>
      </trkpt>
      <trkpt lat="45.63575" lon="6.56916">
        <ele>1687.54</ele>
        <time>2019-06-26T07:45:13Z</time>
      </trkpt>
      <trkpt lat="45.63557" lon="6.56917">
        <ele>1688.07</ele>
        <time>2019-06-26T07:45:36Z</time>
      </trkpt>
      <trkpt lat="45.63546" lon="6.5691">
        <ele>1691.14</ele>
        <time>2019-06-26T07:45:55Z</time>
      </trkpt>
      <trkpt lat="45.63534" lon="6.569">
        <ele>1693.9</ele>
        <time>2019-06-26T07:46:21Z</time>
      </trkpt>
      <trkpt lat="45.63525" lon="6.56883">
        <ele>1696.19</ele>
        <time>2019-06-26T07:46:43Z</time>
      </trkpt>
      <trkpt lat="45.63521" lon="6.56868">
        <ele>1698.74</ele>
        <time>2019-06-26T07:47:05Z</time>
      </trkpt>
      <trkpt lat="45.63509" lon="6.56851">
        <ele>1702</ele>
        <time>2019-06-26T07:47:33Z</time>
      </trkpt>
      <trkpt lat="45.63494" lon="6.56842">
        <ele>1703.97</ele>
        <time>2019-06-26T07:47:59Z</time>
      </trkpt>
      <trkpt lat="45.63481" lon="6.56829">
        <ele>1703.69</ele>
        <time>2019-06-26T07:48:21Z</time>
      </trkpt>
      <trkpt lat="45.63482" lon="6.5681">
        <ele>1705.4</ele>
        <time>2019-06-26T07:48:40Z</time>
      </trkpt>
      <trkpt lat="45.63478" lon="6.56788">
        <ele>1704.99</ele>
        <time>2019-06-26T07:49:03Z</time>
      </trkpt>
      <trkpt lat="45.63464" lon="6.56768">
        <ele>1705.58</ele>
        <time>2019-06-26T07:49:23Z</time>
      </trkpt>
      <trkpt lat="45.6345" lon="6.56763">
        <ele>1706.39</ele>
        <time>2019-06-26T07:49:41Z</time>
      </trkpt>
      <trkpt lat="45.63442" lon="6.56749">
        <ele>1708.28</ele>
        <time>2019-06-26T07:50:04Z</time>
      </trkpt>
      <trkpt lat="45.63429" lon="6.56718">
        <ele>1709.56</ele>
        <time>2019-06-26T07:50:31Z</time>
      </trkpt>
      <trkpt lat="45.6342" lon="6.56699">
        <ele>1712.54</ele>
        <time>2019-06-26T07:50:55Z</time>
      </trkpt>
      <trkpt lat="45.63406" lon="6.56692">
        <ele>1711.6</ele>
        <time>2019-06-26T07:51:17Z</time>
      </trkpt>
      <trkpt lat="45.63396" lon="6.56674">
        <ele>1711.45</ele>
        <time>2019-06-26T07:51:37Z</time>
      </trkpt>
      <trkpt lat="45.63396" lon="6.56671">
        <ele>1711.37</ele>
        <time>2019-06-26T07:51:41Z</time>
      </trkpt>
      <trkpt lat="45.63404" lon="6.56664">
        <ele>1711.84</ele>
        <time>2019-06-26T07:52:00Z</time>
      </trkpt>
      <trkpt lat="45.63411" lon="6.56666">
        <ele>1713.42</ele>
        <time>2019-06-26T07:52:14Z</time>
      </trkpt>
      <trkpt lat="45.63409" lon="6.56654">
        <ele>1715.71</ele>
        <time>2019-06-26T07:52:36Z</time>
      </trkpt>
      <trkpt lat="45.63403" lon="6.56641">
        <ele>1718.43</ele>
        <time>2019-06-26T07:52:58Z</time>
      </trkpt>
      <trkpt lat="45.63399" lon="6.56632">
        <ele>1721.25</ele>
        <time>2019-06-26T07:53:20Z</time>
      </trkpt>
      <trkpt lat="45.63401" lon="6.56627">
        <ele>1724.15</ele>
        <time>2019-06-26T07:53:41Z</time>
      </trkpt>
      <trkpt lat="45.63403" lon="6.56618">
        <ele>1726.51</ele>
        <time>2019-06-26T07:54:00Z</time>
      </trkpt>
      <trkpt lat="45.63399" lon="6.56606">
        <ele>1728.95</ele>
        <time>2019-06-26T07:54:24Z</time>
      </trkpt>
      <trkpt lat="45.63394" lon="6.56595">
        <ele>1731.21</ele>
        <time>2019-06-26T07:54:46Z</time>
      </trkpt>
      <trkpt lat="45.63381" lon="6.56592">
        <ele>1732.96</ele>
        <time>2019-06-26T07:55:10Z</time>
      </trkpt>
      <trkpt lat="45.63377" lon="6.56585">
        <ele>1735.34</ele>
        <time>2019-06-26T07:55:30Z</time>
      </trkpt>
      <trkpt lat="45.63369" lon="6.56579">
        <ele>1737.03</ele>
        <time>2019-06-26T07:55:52Z</time>
      </trkpt>
      <trkpt lat="45.63363" lon="6.56572">
        <ele>1738.87</ele>
        <time>2019-06-26T07:56:11Z</time>
      </trkpt>
      <trkpt lat="45.63353" lon="6.56567">
        <ele>1740.87</ele>
        <time>2019-06-26T07:56:33Z</time>
      </trkpt>
      <trkpt lat="45.63345" lon="6.56563">
        <ele>1742.86</ele>
        <time>2019-06-26T07:56:54Z</time>
      </trkpt>
      <trkpt lat="45.63334" lon="6.56556">
        <ele>1745.31</ele>
        <time>2019-06-26T07:57:20Z</time>
      </trkpt>
      <trkpt lat="45.63335" lon="6.5655">
        <ele>1745.62</ele>
        <time>2019-06-26T07:57:41Z</time>
      </trkpt>
      <trkpt lat="45.63337" lon="6.56551">
        <ele>1745.27</ele>
        <time>2019-06-26T07:58:07Z</time>
      </trkpt>
      <trkpt lat="45.63334" lon="6.56554">
        <ele>1745.49</ele>
        <time>2019-06-26T07:58:49Z</time>
      </trkpt>
      <trkpt lat="45.63337" lon="6.56553">
        <ele>1746.59</ele>
        <time>2019-06-26T07:59:37Z</time>
      </trkpt>
      <trkpt lat="45.63336" lon="6.56551">
        <ele>1747.76</ele>
        <time>2019-06-26T07:59:56Z</time>
      </trkpt>
      <trkpt lat="45.63332" lon="6.5655">
        <ele>1747.53</ele>
        <time>2019-06-26T08:00:15Z</time>
      </trkpt>
      <trkpt lat="45.63327" lon="6.56552">
        <ele>1748.28</ele>
        <time>2019-06-26T08:00:32Z</time>
      </trkpt>
      <trkpt lat="45.63322" lon="6.5655">
        <ele>1749.89</ele>
        <time>2019-06-26T08:00:48Z</time>
      </trkpt>
      <trkpt lat="45.63313" lon="6.56548">
        <ele>1752.07</ele>
        <time>2019-06-26T08:01:05Z</time>
      </trkpt>
      <trkpt lat="45.63309" lon="6.5655">
        <ele>1751.94</ele>
        <time>2019-06-26T08:01:20Z</time>
      </trkpt>
      <trkpt lat="45.63307" lon="6.56553">
        <ele>1752.66</ele>
        <time>2019-06-26T08:02:02Z</time>
      </trkpt>
      <trkpt lat="45.63307" lon="6.56551">
        <ele>1753.16</ele>
        <time>2019-06-26T08:02:23Z</time>
      </trkpt>
      <trkpt lat="45.63309" lon="6.56552">
        <ele>1753.8</ele>
        <time>2019-06-26T08:02:44Z</time>
      </trkpt>
      <trkpt lat="45.6331" lon="6.5655">
        <ele>1753.66</ele>
        <time>2019-06-26T08:03:03Z</time>
      </trkpt>
      <trkpt lat="45.63307" lon="6.56556">
        <ele>1754.21</ele>
        <time>2019-06-26T08:03:34Z</time>
      </trkpt>
      <trkpt lat="45.63306" lon="6.56555">
        <ele>1754.49</ele>
        <time>2019-06-26T08:04:00Z</time>
      </trkpt>
      <trkpt lat="45.63305" lon="6.56567">
        <ele>1757.61</ele>
        <time>2019-06-26T08:04:20Z</time>
      </trkpt>
      <trkpt lat="45.633" lon="6.5658">
        <ele>1760.76</ele>
        <time>2019-06-26T08:04:44Z</time>
      </trkpt>
      <trkpt lat="45.63291" lon="6.5658">
        <ele>1762.72</ele>
        <time>2019-06-26T08:05:02Z</time>
      </trkpt>
      <trkpt lat="45.63292" lon="6.56564">
        <ele>1765.06</ele>
        <time>2019-06-26T08:05:20Z</time>
      </trkpt>
      <trkpt lat="45.63284" lon="6.56559">
        <ele>1767.6</ele>
        <time>2019-06-26T08:05:43Z</time>
      </trkpt>
      <trkpt lat="45.63281" lon="6.56547">
        <ele>1770.68</ele>
        <time>2019-06-26T08:06:04Z</time>
      </trkpt>
      <trkpt lat="45.6327" lon="6.56545">
        <ele>1773.28</ele>
        <time>2019-06-26T08:06:29Z</time>
      </trkpt>
      <trkpt lat="45.63264" lon="6.56531">
        <ele>1776.29</ele>
        <time>2019-06-26T08:06:56Z</time>
      </trkpt>
      <trkpt lat="45.63255" lon="6.56536">
        <ele>1778.97</ele>
        <time>2019-06-26T08:07:18Z</time>
      </trkpt>
      <trkpt lat="45.63242" lon="6.56537">
        <ele>1781.51</ele>
        <time>2019-06-26T08:07:42Z</time>
      </trkpt>
      <trkpt lat="45.63237" lon="6.56526">
        <ele>1784.52</ele>
        <time>2019-06-26T08:08:06Z</time>
      </trkpt>
      <trkpt lat="45.63231" lon="6.56514">
        <ele>1787.59</ele>
        <time>2019-06-26T08:08:31Z</time>
      </trkpt>
      <trkpt lat="45.63226" lon="6.56507">
        <ele>1790.77</ele>
        <time>2019-06-26T08:08:49Z</time>
      </trkpt>
      <trkpt lat="45.63216" lon="6.565">
        <ele>1792.96</ele>
        <time>2019-06-26T08:09:12Z</time>
      </trkpt>
      <trkpt lat="45.63216" lon="6.56482">
        <ele>1795.61</ele>
        <time>2019-06-26T08:09:36Z</time>
      </trkpt>
      <trkpt lat="45.63209" lon="6.5647">
        <ele>1798.53</ele>
        <time>2019-06-26T08:10:02Z</time>
      </trkpt>
      <trkpt lat="45.632" lon="6.56471">
        <ele>1801.54</ele>
        <time>2019-06-26T08:10:24Z</time>
      </trkpt>
      <trkpt lat="45.63195" lon="6.56459">
        <ele>1804.1</ele>
        <time>2019-06-26T08:10:44Z</time>
      </trkpt>
      <trkpt lat="45.63183" lon="6.56453">
        <ele>1806.83</ele>
        <time>2019-06-26T08:11:08Z</time>
      </trkpt>
      <trkpt lat="45.63172" lon="6.56444">
        <ele>1809.86</ele>
        <time>2019-06-26T08:11:32Z</time>
      </trkpt>
      <trkpt lat="45.63166" lon="6.56436">
        <ele>1812.96</ele>
        <time>2019-06-26T08:11:51Z</time>
      </trkpt>
      <trkpt lat="45.6316" lon="6.56425">
        <ele>1816.28</ele>
        <time>2019-06-26T08:12:13Z</time>
      </trkpt>
      <trkpt lat="45.63155" lon="6.56412">
        <ele>1818.02</ele>
        <time>2019-06-26T08:12:38Z</time>
      </trkpt>
      <trkpt lat="45.63152" lon="6.56397">
        <ele>1819.73</ele>
        <time>2019-06-26T08:12:57Z</time>
      </trkpt>
      <trkpt lat="45.63147" lon="6.56375">
        <ele>1821.21</ele>
        <time>2019-06-26T08:13:20Z</time>
      </trkpt>
      <trkpt lat="45.63141" lon="6.56356">
        <ele>1823.44</ele>
        <time>2019-06-26T08:13:40Z</time>
      </trkpt>
      <trkpt lat="45.63135" lon="6.56342">
        <ele>1825.54</ele>
        <time>2019-06-26T08:13:59Z</time>
      </trkpt>
      <trkpt lat="45.63128" lon="6.56325">
        <ele>1827.61</ele>
        <time>2019-06-26T08:14:22Z</time>
      </trkpt>
      <trkpt lat="45.63122" lon="6.56316">
        <ele>1830.11</ele>
        <time>2019-06-26T08:14:41Z</time>
      </trkpt>
      <trkpt lat="45.63112" lon="6.5631">
        <ele>1832.95</ele>
        <time>2019-06-26T08:15:01Z</time>
      </trkpt>
      <trkpt lat="45.63105" lon="6.56315">
        <ele>1834.09</ele>
        <time>2019-06-26T08:15:23Z</time>
      </trkpt>
      <trkpt lat="45.63101" lon="6.56307">
        <ele>1836.1</ele>
        <time>2019-06-26T08:15:41Z</time>
      </trkpt>
      <trkpt lat="45.63091" lon="6.56303">
        <ele>1839.12</ele>
        <time>2019-06-26T08:16:00Z</time>
      </trkpt>
      <trkpt lat="45.63092" lon="6.56305">
        <ele>1840.36</ele>
        <time>2019-06-26T08:16:10Z</time>
      </trkpt>
      <trkpt lat="45.63093" lon="6.56292">
        <ele>1843.62</ele>
        <time>2019-06-26T08:16:34Z</time>
      </trkpt>
      <trkpt lat="45.63089" lon="6.56277">
        <ele>1846.16</ele>
        <time>2019-06-26T08:16:55Z</time>
      </trkpt>
      <trkpt lat="45.6308" lon="6.56282">
        <ele>1848.36</ele>
        <time>2019-06-26T08:17:13Z</time>
      </trkpt>
      <trkpt lat="45.63079" lon="6.56288">
        <ele>1850.29</ele>
        <time>2019-06-26T08:17:32Z</time>
      </trkpt>
      <trkpt lat="45.63077" lon="6.56271">
        <ele>1852.67</ele>
        <time>2019-06-26T08:17:57Z</time>
      </trkpt>
      <trkpt lat="45.63068" lon="6.56285">
        <ele>1855.04</ele>
        <time>2019-06-26T08:18:20Z</time>
      </trkpt>
      <trkpt lat="45.63071" lon="6.56272">
        <ele>1858.21</ele>
        <time>2019-06-26T08:18:40Z</time>
      </trkpt>
      <trkpt lat="45.63058" lon="6.56272">
        <ele>1861.1</ele>
        <time>2019-06-26T08:19:03Z</time>
      </trkpt>
      <trkpt lat="45.63053" lon="6.56272">
        <ele>1863.26</ele>
        <time>2019-06-26T08:19:24Z</time>
      </trkpt>
      <trkpt lat="45.63046" lon="6.56268">
        <ele>1866.2</ele>
        <time>2019-06-26T08:19:46Z</time>
      </trkpt>
      <trkpt lat="45.63034" lon="6.56263">
        <ele>1868.88</ele>
        <time>2019-06-26T08:20:11Z</time>
      </trkpt>
      <trkpt lat="45.63031" lon="6.56254">
        <ele>1871.93</ele>
        <time>2019-06-26T08:20:29Z</time>
      </trkpt>
      <trkpt lat="45.6303" lon="6.56247">
        <ele>1874.06</ele>
        <time>2019-06-26T08:20:46Z</time>
      </trkpt>
      <trkpt lat="45.63025" lon="6.56245">
        <ele>1876.36</ele>
        <time>2019-06-26T08:21:06Z</time>
      </trkpt>
      <trkpt lat="45.63024" lon="6.56241">
        <ele>1878.73</ele>
        <time>2019-06-26T08:21:23Z</time>
      </trkpt>
      <trkpt lat="45.6302" lon="6.56235">
        <ele>1880.37</ele>
        <time>2019-06-26T08:21:45Z</time>
      </trkpt>
      <trkpt lat="45.63015" lon="6.56224">
        <ele>1882.68</ele>
        <time>2019-06-26T08:22:07Z</time>
      </trkpt>
      <trkpt lat="45.63012" lon="6.56215">
        <ele>1885.85</ele>
        <time>2019-06-26T08:22:24Z</time>
      </trkpt>
      <trkpt lat="45.63008" lon="6.56202">
        <ele>1888.1</ele>
        <time>2019-06-26T08:22:48Z</time>
      </trkpt>
      <trkpt lat="45.63004" lon="6.56192">
        <ele>1890.98</ele>
        <time>2019-06-26T08:23:10Z</time>
      </trkpt>
      <trkpt lat="45.62997" lon="6.56178">
        <ele>1894.25</ele>
        <time>2019-06-26T08:23:35Z</time>
      </trkpt>
      <trkpt lat="45.62991" lon="6.5617">
        <ele>1896.55</ele>
        <time>2019-06-26T08:23:54Z</time>
      </trkpt>
      <trkpt lat="45.62988" lon="6.5616">
        <ele>1900.01</ele>
        <time>2019-06-26T08:24:14Z</time>
      </trkpt>
      <trkpt lat="45.62982" lon="6.56147">
        <ele>1902.89</ele>
        <time>2019-06-26T08:24:38Z</time>
      </trkpt>
      <trkpt lat="45.62974" lon="6.56138">
        <ele>1906.1</ele>
        <time>2019-06-26T08:25:03Z</time>
      </trkpt>
      <trkpt lat="45.62971" lon="6.56125">
        <ele>1909.11</ele>
        <time>2019-06-26T08:25:25Z</time>
      </trkpt>
      <trkpt lat="45.62964" lon="6.56112">
        <ele>1911.95</ele>
        <time>2019-06-26T08:25:48Z</time>
      </trkpt>
      <trkpt lat="45.62963" lon="6.56099">
        <ele>1914.38</ele>
        <time>2019-06-26T08:26:12Z</time>
      </trkpt>
      <trkpt lat="45.62958" lon="6.5609">
        <ele>1917.1</ele>
        <time>2019-06-26T08:26:33Z</time>
      </trkpt>
      <trkpt lat="45.62958" lon="6.56088">
        <ele>1917.46</ele>
        <time>2019-06-26T08:26:37Z</time>
      </trkpt>
      <trkpt lat="45.62949" lon="6.56079">
        <ele>1919.78</ele>
        <time>2019-06-26T08:26:58Z</time>
      </trkpt>
      <trkpt lat="45.62941" lon="6.56067">
        <ele>1922.56</ele>
        <time>2019-06-26T08:27:22Z</time>
      </trkpt>
      <trkpt lat="45.62933" lon="6.56055">
        <ele>1924.41</ele>
        <time>2019-06-26T08:27:44Z</time>
      </trkpt>
      <trkpt lat="45.62934" lon="6.56053">
        <ele>1924.18</ele>
        <time>2019-06-26T08:28:07Z</time>
      </trkpt>
      <trkpt lat="45.62934" lon="6.56053">
        <ele>1924.57</ele>
        <time>2019-06-26T08:29:00Z</time>
      </trkpt>
      <trkpt lat="45.62934" lon="6.56053">
        <ele>1925.22</ele>
        <time>2019-06-26T08:30:02Z</time>
      </trkpt>
      <trkpt lat="45.62934" lon="6.56054">
        <ele>1925.79</ele>
        <time>2019-06-26T08:30:53Z</time>
      </trkpt>
      <trkpt lat="45.62935" lon="6.56054">
        <ele>1925.94</ele>
        <time>2019-06-26T08:31:20Z</time>
      </trkpt>
      <trkpt lat="45.62934" lon="6.56053">
        <ele>1926.88</ele>
        <time>2019-06-26T08:31:36Z</time>
      </trkpt>
      <trkpt lat="45.62933" lon="6.56052">
        <ele>1927.12</ele>
        <time>2019-06-26T08:32:01Z</time>
      </trkpt>
      <trkpt lat="45.62935" lon="6.56054">
        <ele>1927.57</ele>
        <time>2019-06-26T08:32:31Z</time>
      </trkpt>
      <trkpt lat="45.62934" lon="6.56054">
        <ele>1927.64</ele>
        <time>2019-06-26T08:33:00Z</time>
      </trkpt>
      <trkpt lat="45.62933" lon="6.56052">
        <ele>1928.06</ele>
        <time>2019-06-26T08:33:21Z</time>
      </trkpt>
      <trkpt lat="45.62931" lon="6.5605">
        <ele>1928.77</ele>
        <time>2019-06-26T08:33:40Z</time>
      </trkpt>
      <trkpt lat="45.62923" lon="6.56048">
        <ele>1930.11</ele>
        <time>2019-06-26T08:33:59Z</time>
      </trkpt>
      <trkpt lat="45.62918" lon="6.56035">
        <ele>1933.42</ele>
        <time>2019-06-26T08:34:21Z</time>
      </trkpt>
      <trkpt lat="45.62912" lon="6.56016">
        <ele>1936.2</ele>
        <time>2019-06-26T08:34:43Z</time>
      </trkpt>
      <trkpt lat="45.62899" lon="6.56008">
        <ele>1938.89</ele>
        <time>2019-06-26T08:35:06Z</time>
      </trkpt>
      <trkpt lat="45.62887" lon="6.56004">
        <ele>1941.14</ele>
        <time>2019-06-26T08:35:27Z</time>
      </trkpt>
      <trkpt lat="45.62882" lon="6.55995">
        <ele>1943.71</ele>
        <time>2019-06-26T08:35:49Z</time>
      </trkpt>
      <trkpt lat="45.62873" lon="6.55987">
        <ele>1946.35</ele>
        <time>2019-06-26T08:36:09Z</time>
      </trkpt>
      <trkpt lat="45.62859" lon="6.55988">
        <ele>1949.37</ele>
        <time>2019-06-26T08:36:29Z</time>
      </trkpt>
      <trkpt lat="45.62845" lon="6.55988">
        <ele>1952.26</ele>
        <time>2019-06-26T08:36:51Z</time>
      </trkpt>
      <trkpt lat="45.62836" lon="6.55984">
        <ele>1955.3</ele>
        <time>2019-06-26T08:37:11Z</time>
      </trkpt>
      <trkpt lat="45.6283" lon="6.55976">
        <ele>1958.35</ele>
        <time>2019-06-26T08:37:28Z</time>
      </trkpt>
      <trkpt lat="45.62824" lon="6.55964">
        <ele>1961.38</ele>
        <time>2019-06-26T08:37:50Z</time>
      </trkpt>
      <trkpt lat="45.62817" lon="6.55961">
        <ele>1964.59</ele>
        <time>2019-06-26T08:38:07Z</time>
      </trkpt>
      <trkpt lat="45.62805" lon="6.55958">
        <ele>1967.69</ele>
        <time>2019-06-26T08:38:28Z</time>
      </trkpt>
      <trkpt lat="45.62799" lon="6.55953">
        <ele>1970.77</ele>
        <time>2019-06-26T08:38:49Z</time>
      </trkpt>
      <trkpt lat="45.62796" lon="6.55937">
        <ele>1973.21</ele>
        <time>2019-06-26T08:39:10Z</time>
      </trkpt>
      <trkpt lat="45.62792" lon="6.55924">
        <ele>1976.13</ele>
        <time>2019-06-26T08:39:32Z</time>
      </trkpt>
      <trkpt lat="45.62785" lon="6.55913">
        <ele>1979.44</ele>
        <time>2019-06-26T08:39:53Z</time>
      </trkpt>
      <trkpt lat="45.6278" lon="6.55904">
        <ele>1982.51</ele>
        <time>2019-06-26T08:40:13Z</time>
      </trkpt>
      <trkpt lat="45.62773" lon="6.55894">
        <ele>1985.59</ele>
        <time>2019-06-26T08:40:34Z</time>
      </trkpt>
      <trkpt lat="45.62761" lon="6.55885">
        <ele>1988.4</ele>
        <time>2019-06-26T08:40:59Z</time>
      </trkpt>
      <trkpt lat="45.62751" lon="6.55871">
        <ele>1991.46</ele>
        <time>2019-06-26T08:41:25Z</time>
      </trkpt>
      <trkpt lat="45.62741" lon="6.55852">
        <ele>1993.83</ele>
        <time>2019-06-26T08:41:50Z</time>
      </trkpt>
      <trkpt lat="45.62735" lon="6.55836">
        <ele>1997</ele>
        <time>2019-06-26T08:42:12Z</time>
      </trkpt>
      <trkpt lat="45.62735" lon="6.55822">
        <ele>2000.08</ele>
        <time>2019-06-26T08:42:30Z</time>
      </trkpt>
      <trkpt lat="45.62726" lon="6.5581">
        <ele>2002.76</ele>
        <time>2019-06-26T08:42:54Z</time>
      </trkpt>
      <trkpt lat="45.62721" lon="6.558">
        <ele>2005.03</ele>
        <time>2019-06-26T08:43:14Z</time>
      </trkpt>
      <trkpt lat="45.62714" lon="6.55793">
        <ele>2008.14</ele>
        <time>2019-06-26T08:43:35Z</time>
      </trkpt>
      <trkpt lat="45.62708" lon="6.55781">
        <ele>2010.75</ele>
        <time>2019-06-26T08:43:56Z</time>
      </trkpt>
      <trkpt lat="45.62702" lon="6.55773">
        <ele>2013.91</ele>
        <time>2019-06-26T08:44:14Z</time>
      </trkpt>
      <trkpt lat="45.62696" lon="6.55756">
        <ele>2017.06</ele>
        <time>2019-06-26T08:44:38Z</time>
      </trkpt>
      <trkpt lat="45.62685" lon="6.55745">
        <ele>2020.21</ele>
        <time>2019-06-26T08:45:02Z</time>
      </trkpt>
      <trkpt lat="45.62682" lon="6.55726">
        <ele>2022.63</ele>
        <time>2019-06-26T08:45:24Z</time>
      </trkpt>
      <trkpt lat="45.62682" lon="6.5571">
        <ele>2025.88</ele>
        <time>2019-06-26T08:45:46Z</time>
      </trkpt>
      <trkpt lat="45.62676" lon="6.55701">
        <ele>2028.9</ele>
        <time>2019-06-26T08:46:05Z</time>
      </trkpt>
      <trkpt lat="45.62669" lon="6.55692">
        <ele>2031.58</ele>
        <time>2019-06-26T08:46:28Z</time>
      </trkpt>
      <trkpt lat="45.62659" lon="6.55686">
        <ele>2034.37</ele>
        <time>2019-06-26T08:46:48Z</time>
      </trkpt>
      <trkpt lat="45.62651" lon="6.55673">
        <ele>2037.38</ele>
        <time>2019-06-26T08:47:11Z</time>
      </trkpt>
      <trkpt lat="45.62644" lon="6.55664">
        <ele>2040.39</ele>
        <time>2019-06-26T08:47:32Z</time>
      </trkpt>
      <trkpt lat="45.62636" lon="6.55652">
        <ele>2043.5</ele>
        <time>2019-06-26T08:47:52Z</time>
      </trkpt>
      <trkpt lat="45.62632" lon="6.55645">
        <ele>2044.89</ele>
        <time>2019-06-26T08:48:14Z</time>
      </trkpt>
      <trkpt lat="45.62627" lon="6.55641">
        <ele>2047.99</ele>
        <time>2019-06-26T08:48:31Z</time>
      </trkpt>
      <trkpt lat="45.62615" lon="6.55633">
        <ele>2050.34</ele>
        <time>2019-06-26T08:48:53Z</time>
      </trkpt>
      <trkpt lat="45.62604" lon="6.55629">
        <ele>2052.73</ele>
        <time>2019-06-26T08:49:14Z</time>
      </trkpt>
      <trkpt lat="45.62594" lon="6.55618">
        <ele>2055.92</ele>
        <time>2019-06-26T08:49:36Z</time>
      </trkpt>
      <trkpt lat="45.62584" lon="6.55607">
        <ele>2058.54</ele>
        <time>2019-06-26T08:50:00Z</time>
      </trkpt>
      <trkpt lat="45.62575" lon="6.55597">
        <ele>2061.35</ele>
        <time>2019-06-26T08:50:21Z</time>
      </trkpt>
      <trkpt lat="45.62565" lon="6.55584">
        <ele>2064.27</ele>
        <time>2019-06-26T08:50:43Z</time>
      </trkpt>
      <trkpt lat="45.62554" lon="6.55572">
        <ele>2067.2</ele>
        <time>2019-06-26T08:51:05Z</time>
      </trkpt>
      <trkpt lat="45.62544" lon="6.55568">
        <ele>2068.97</ele>
        <time>2019-06-26T08:51:24Z</time>
      </trkpt>
      <trkpt lat="45.62534" lon="6.55557">
        <ele>2072.47</ele>
        <time>2019-06-26T08:51:49Z</time>
      </trkpt>
      <trkpt lat="45.62527" lon="6.55546">
        <ele>2074.53</ele>
        <time>2019-06-26T08:52:09Z</time>
      </trkpt>
      <trkpt lat="45.6252" lon="6.55533">
        <ele>2077.72</ele>
        <time>2019-06-26T08:52:31Z</time>
      </trkpt>
      <trkpt lat="45.62512" lon="6.55518">
        <ele>2080.99</ele>
        <time>2019-06-26T08:52:58Z</time>
      </trkpt>
      <trkpt lat="45.62504" lon="6.5551">
        <ele>2084.23</ele>
        <time>2019-06-26T08:53:17Z</time>
      </trkpt>
      <trkpt lat="45.62495" lon="6.55498">
        <ele>2087.35</ele>
        <time>2019-06-26T08:53:47Z</time>
      </trkpt>
      <trkpt lat="45.62494" lon="6.55497">
        <ele>2088.52</ele>
        <time>2019-06-26T08:54:20Z</time>
      </trkpt>
      <trkpt lat="45.62488" lon="6.55488">
        <ele>2091.5</ele>
        <time>2019-06-26T08:54:39Z</time>
      </trkpt>
      <trkpt lat="45.6249" lon="6.55487">
        <ele>2091.9</ele>
        <time>2019-06-26T08:55:08Z</time>
      </trkpt>
      <trkpt lat="45.62485" lon="6.55483">
        <ele>2093.03</ele>
        <time>2019-06-26T08:55:31Z</time>
      </trkpt>
      <trkpt lat="45.62477" lon="6.55473">
        <ele>2095.63</ele>
        <time>2019-06-26T08:55:53Z</time>
      </trkpt>
      <trkpt lat="45.62471" lon="6.55461">
        <ele>2098.73</ele>
        <time>2019-06-26T08:56:12Z</time>
      </trkpt>
      <trkpt lat="45.62463" lon="6.5546">
        <ele>2100.24</ele>
        <time>2019-06-26T08:56:31Z</time>
      </trkpt>
      <trkpt lat="45.62454" lon="6.55449">
        <ele>2102.96</ele>
        <time>2019-06-26T08:56:54Z</time>
      </trkpt>
      <trkpt lat="45.62442" lon="6.55441">
        <ele>2105.38</ele>
        <time>2019-06-26T08:57:13Z</time>
      </trkpt>
      <trkpt lat="45.62435" lon="6.55445">
        <ele>2105.42</ele>
        <time>2019-06-26T08:57:34Z</time>
      </trkpt>
      <trkpt lat="45.62436" lon="6.55443">
        <ele>2105.17</ele>
        <time>2019-06-26T08:58:03Z</time>
      </trkpt>
      <trkpt lat="45.62436" lon="6.55443">
        <ele>2105.27</ele>
        <time>2019-06-26T08:58:56Z</time>
      </trkpt>
      <trkpt lat="45.62436" lon="6.55443">
        <ele>2105.92</ele>
        <time>2019-06-26T08:59:32Z</time>
      </trkpt>
      <trkpt lat="45.62436" lon="6.55444">
        <ele>2106.18</ele>
        <time>2019-06-26T08:59:56Z</time>
      </trkpt>
      <trkpt lat="45.62436" lon="6.55443">
        <ele>2106.38</ele>
        <time>2019-06-26T09:00:49Z</time>
      </trkpt>
      <trkpt lat="45.62436" lon="6.55443">
        <ele>2106.63</ele>
        <time>2019-06-26T09:01:35Z</time>
      </trkpt>
      <trkpt lat="45.62436" lon="6.55446">
        <ele>2106.73</ele>
        <time>2019-06-26T09:02:13Z</time>
      </trkpt>
      <trkpt lat="45.62436" lon="6.55446">
        <ele>2107.39</ele>
        <time>2019-06-26T09:02:59Z</time>
      </trkpt>
      <trkpt lat="45.62436" lon="6.55446">
        <ele>2107.42</ele>
        <time>2019-06-26T09:03:29Z</time>
      </trkpt>
      <trkpt lat="45.62436" lon="6.55444">
        <ele>2107.69</ele>
        <time>2019-06-26T09:03:55Z</time>
      </trkpt>
      <trkpt lat="45.62437" lon="6.55444">
        <ele>2107.79</ele>
        <time>2019-06-26T09:04:42Z</time>
      </trkpt>
      <trkpt lat="45.62437" lon="6.55444">
        <ele>2108.55</ele>
        <time>2019-06-26T09:05:36Z</time>
      </trkpt>
      <trkpt lat="45.62437" lon="6.55445">
        <ele>2109.04</ele>
        <time>2019-06-26T09:05:59Z</time>
      </trkpt>
      <trkpt lat="45.62437" lon="6.55444">
        <ele>2109.22</ele>
        <time>2019-06-26T09:06:47Z</time>
      </trkpt>
      <trkpt lat="45.62437" lon="6.55444">
        <ele>2109.49</ele>
        <time>2019-06-26T09:07:32Z</time>
      </trkpt>
      <trkpt lat="45.62437" lon="6.55444">
        <ele>2109.61</ele>
        <time>2019-06-26T09:08:19Z</time>
      </trkpt>
      <trkpt lat="45.62437" lon="6.55444">
        <ele>2109.79</ele>
        <time>2019-06-26T09:09:04Z</time>
      </trkpt>
      <trkpt lat="45.62437" lon="6.55444">
        <ele>2109.96</ele>
        <time>2019-06-26T09:09:56Z</time>
      </trkpt>
      <trkpt lat="45.62436" lon="6.55444">
        <ele>2110.13</ele>
        <time>2019-06-26T09:10:48Z</time>
      </trkpt>
      <trkpt lat="45.62437" lon="6.55444">
        <ele>2110.43</ele>
        <time>2019-06-26T09:11:37Z</time>
      </trkpt>
      <trkpt lat="45.62437" lon="6.55444">
        <ele>2110.65</ele>
        <time>2019-06-26T09:12:25Z</time>
      </trkpt>
      <trkpt lat="45.62437" lon="6.55444">
        <ele>2110.61</ele>
        <time>2019-06-26T09:13:10Z</time>
      </trkpt>
      <trkpt lat="45.62437" lon="6.55443">
        <ele>2111.11</ele>
        <time>2019-06-26T09:13:55Z</time>
      </trkpt>
      <trkpt lat="45.62437" lon="6.55443">
        <ele>2110.88</ele>
        <time>2019-06-26T09:14:40Z</time>
      </trkpt>
      <trkpt lat="45.62437" lon="6.55444">
        <ele>2110.99</ele>
        <time>2019-06-26T09:15:30Z</time>
      </trkpt>
      <trkpt lat="45.62437" lon="6.55444">
        <ele>2111.3</ele>
        <time>2019-06-26T09:16:19Z</time>
      </trkpt>
      <trkpt lat="45.62437" lon="6.55443">
        <ele>2112.17</ele>
        <time>2019-06-26T09:16:45Z</time>
      </trkpt>
      <trkpt lat="45.62436" lon="6.55443">
        <ele>2112.26</ele>
        <time>2019-06-26T09:17:06Z</time>
      </trkpt>
      <trkpt lat="45.62439" lon="6.55435">
        <ele>2112.6</ele>
        <time>2019-06-26T09:17:30Z</time>
      </trkpt>
      <trkpt lat="45.6244" lon="6.55434">
        <ele>2112.38</ele>
        <time>2019-06-26T09:17:47Z</time>
      </trkpt>
      <trkpt lat="45.62448" lon="6.55427">
        <ele>2114.14</ele>
        <time>2019-06-26T09:18:01Z</time>
      </trkpt>
      <trkpt lat="45.62464" lon="6.55419">
        <ele>2116.91</ele>
        <time>2019-06-26T09:18:20Z</time>
      </trkpt>
      <trkpt lat="45.6248" lon="6.55418">
        <ele>2120.14</ele>
        <time>2019-06-26T09:18:42Z</time>
      </trkpt>
      <trkpt lat="45.62496" lon="6.55417">
        <ele>2122.52</ele>
        <time>2019-06-26T09:19:04Z</time>
      </trkpt>
      <trkpt lat="45.62507" lon="6.55422">
        <ele>2124.33</ele>
        <time>2019-06-26T09:19:21Z</time>
      </trkpt>
      <trkpt lat="45.62521" lon="6.55426">
        <ele>2126.62</ele>
        <time>2019-06-26T09:19:40Z</time>
      </trkpt>
      <trkpt lat="45.62534" lon="6.55429">
        <ele>2129.78</ele>
        <time>2019-06-26T09:19:59Z</time>
      </trkpt>
      <trkpt lat="45.62545" lon="6.55428">
        <ele>2132.44</ele>
        <time>2019-06-26T09:20:18Z</time>
      </trkpt>
      <trkpt lat="45.62544" lon="6.55413">
        <ele>2135.16</ele>
        <time>2019-06-26T09:20:40Z</time>
      </trkpt>
      <trkpt lat="45.62532" lon="6.55402">
        <ele>2137.5</ele>
        <time>2019-06-26T09:21:00Z</time>
      </trkpt>
      <trkpt lat="45.62522" lon="6.55389">
        <ele>2139.79</ele>
        <time>2019-06-26T09:21:21Z</time>
      </trkpt>
      <trkpt lat="45.62518" lon="6.55379">
        <ele>2142.88</ele>
        <time>2019-06-26T09:21:38Z</time>
      </trkpt>
      <trkpt lat="45.62512" lon="6.55364">
        <ele>2145.94</ele>
        <time>2019-06-26T09:22:00Z</time>
      </trkpt>
      <trkpt lat="45.6251" lon="6.55341">
        <ele>2148.56</ele>
        <time>2019-06-26T09:22:25Z</time>
      </trkpt>
      <trkpt lat="45.62517" lon="6.55332">
        <ele>2151.82</ele>
        <time>2019-06-26T09:22:42Z</time>
      </trkpt>
      <trkpt lat="45.62532" lon="6.55323">
        <ele>2154.25</ele>
        <time>2019-06-26T09:23:06Z</time>
      </trkpt>
      <trkpt lat="45.62538" lon="6.55313">
        <ele>2157.39</ele>
        <time>2019-06-26T09:23:27Z</time>
      </trkpt>
      <trkpt lat="45.62544" lon="6.55307">
        <ele>2160</ele>
        <time>2019-06-26T09:23:45Z</time>
      </trkpt>
      <trkpt lat="45.62549" lon="6.55304">
        <ele>2162.43</ele>
        <time>2019-06-26T09:24:03Z</time>
      </trkpt>
      <trkpt lat="45.62558" lon="6.55307">
        <ele>2164.35</ele>
        <time>2019-06-26T09:24:21Z</time>
      </trkpt>
      <trkpt lat="45.62567" lon="6.55314">
        <ele>2166.55</ele>
        <time>2019-06-26T09:24:40Z</time>
      </trkpt>
      <trkpt lat="45.62574" lon="6.55318">
        <ele>2168.52</ele>
        <time>2019-06-26T09:24:54Z</time>
      </trkpt>
      <trkpt lat="45.62584" lon="6.55322">
        <ele>2171.01</ele>
        <time>2019-06-26T09:25:15Z</time>
      </trkpt>
      <trkpt lat="45.62594" lon="6.55323">
        <ele>2171.97</ele>
        <time>2019-06-26T09:25:32Z</time>
      </trkpt>
      <trkpt lat="45.62601" lon="6.5532">
        <ele>2171.75</ele>
        <time>2019-06-26T09:25:45Z</time>
      </trkpt>
      <trkpt lat="45.62612" lon="6.55317">
        <ele>2174.4</ele>
        <time>2019-06-26T09:26:03Z</time>
      </trkpt>
      <trkpt lat="45.62621" lon="6.55315">
        <ele>2176.71</ele>
        <time>2019-06-26T09:26:21Z</time>
      </trkpt>
      <trkpt lat="45.62631" lon="6.55316">
        <ele>2179.55</ele>
        <time>2019-06-26T09:26:42Z</time>
      </trkpt>
      <trkpt lat="45.62642" lon="6.55315">
        <ele>2182.58</ele>
        <time>2019-06-26T09:27:03Z</time>
      </trkpt>
      <trkpt lat="45.62651" lon="6.55314">
        <ele>2185.68</ele>
        <time>2019-06-26T09:27:26Z</time>
      </trkpt>
      <trkpt lat="45.62659" lon="6.55314">
        <ele>2188.89</ele>
        <time>2019-06-26T09:27:48Z</time>
      </trkpt>
      <trkpt lat="45.62665" lon="6.55312">
        <ele>2192.04</ele>
        <time>2019-06-26T09:28:08Z</time>
      </trkpt>
      <trkpt lat="45.62671" lon="6.5531">
        <ele>2195.07</ele>
        <time>2019-06-26T09:28:27Z</time>
      </trkpt>
      <trkpt lat="45.62677" lon="6.55311">
        <ele>2197.29</ele>
        <time>2019-06-26T09:28:43Z</time>
      </trkpt>
      <trkpt lat="45.62684" lon="6.55301">
        <ele>2200.37</ele>
        <time>2019-06-26T09:29:06Z</time>
      </trkpt>
      <trkpt lat="45.62683" lon="6.5529">
        <ele>2203.42</ele>
        <time>2019-06-26T09:29:26Z</time>
      </trkpt>
      <trkpt lat="45.62681" lon="6.55278">
        <ele>2206.51</ele>
        <time>2019-06-26T09:29:45Z</time>
      </trkpt>
      <trkpt lat="45.62678" lon="6.55266">
        <ele>2209.5</ele>
        <time>2019-06-26T09:30:06Z</time>
      </trkpt>
      <trkpt lat="45.62676" lon="6.55255">
        <ele>2212.58</ele>
        <time>2019-06-26T09:30:28Z</time>
      </trkpt>
      <trkpt lat="45.62674" lon="6.55244">
        <ele>2215.57</ele>
        <time>2019-06-26T09:30:49Z</time>
      </trkpt>
      <trkpt lat="45.62681" lon="6.55241">
        <ele>2218.1</ele>
        <time>2019-06-26T09:31:09Z</time>
      </trkpt>
      <trkpt lat="45.62691" lon="6.55244">
        <ele>2221.13</ele>
        <time>2019-06-26T09:31:31Z</time>
      </trkpt>
      <trkpt lat="45.62701" lon="6.55245">
        <ele>2224.19</ele>
        <time>2019-06-26T09:31:53Z</time>
      </trkpt>
      <trkpt lat="45.62701" lon="6.55234">
        <ele>2227.19</ele>
        <time>2019-06-26T09:32:13Z</time>
      </trkpt>
      <trkpt lat="45.62696" lon="6.55226">
        <ele>2229.85</ele>
        <time>2019-06-26T09:32:32Z</time>
      </trkpt>
      <trkpt lat="45.62694" lon="6.55215">
        <ele>2232.92</ele>
        <time>2019-06-26T09:32:48Z</time>
      </trkpt>
      <trkpt lat="45.62698" lon="6.55206">
        <ele>2235.81</ele>
        <time>2019-06-26T09:33:13Z</time>
      </trkpt>
      <trkpt lat="45.62709" lon="6.55209">
        <ele>2238.17</ele>
        <time>2019-06-26T09:33:33Z</time>
      </trkpt>
      <trkpt lat="45.62717" lon="6.55211">
        <ele>2241</ele>
        <time>2019-06-26T09:33:53Z</time>
      </trkpt>
      <trkpt lat="45.62729" lon="6.55215">
        <ele>2244.16</ele>
        <time>2019-06-26T09:34:20Z</time>
      </trkpt>
      <trkpt lat="45.62738" lon="6.5522">
        <ele>2247.24</ele>
        <time>2019-06-26T09:34:42Z</time>
      </trkpt>
      <trkpt lat="45.62744" lon="6.5522">
        <ele>2249.42</ele>
        <time>2019-06-26T09:35:03Z</time>
      </trkpt>
      <trkpt lat="45.62747" lon="6.55222">
        <ele>2251.25</ele>
        <time>2019-06-26T09:35:21Z</time>
      </trkpt>
      <trkpt lat="45.62747" lon="6.55224">
        <ele>2251.51</ele>
        <time>2019-06-26T09:35:52Z</time>
      </trkpt>
      <trkpt lat="45.62747" lon="6.55223">
        <ele>2251.85</ele>
        <time>2019-06-26T09:36:32Z</time>
      </trkpt>
      <trkpt lat="45.6275" lon="6.55223">
        <ele>2252.91</ele>
        <time>2019-06-26T09:36:54Z</time>
      </trkpt>
      <trkpt lat="45.6275" lon="6.55223">
        <ele>2252.35</ele>
        <time>2019-06-26T09:37:17Z</time>
      </trkpt>
      <trkpt lat="45.62751" lon="6.55223">
        <ele>2252.25</ele>
        <time>2019-06-26T09:37:50Z</time>
      </trkpt>
      <trkpt lat="45.62749" lon="6.55224">
        <ele>2252.3</ele>
        <time>2019-06-26T09:38:13Z</time>
      </trkpt>
      <trkpt lat="45.62749" lon="6.55225">
        <ele>2252.08</ele>
        <time>2019-06-26T09:38:48Z</time>
      </trkpt>
      <trkpt lat="45.62757" lon="6.55225">
        <ele>2252.62</ele>
        <time>2019-06-26T09:39:08Z</time>
      </trkpt>
      <trkpt lat="45.62769" lon="6.55227">
        <ele>2255.4</ele>
        <time>2019-06-26T09:39:26Z</time>
      </trkpt>
      <trkpt lat="45.62781" lon="6.55232">
        <ele>2257.96</ele>
        <time>2019-06-26T09:39:47Z</time>
      </trkpt>
      <trkpt lat="45.62792" lon="6.55241">
        <ele>2257.15</ele>
        <time>2019-06-26T09:40:05Z</time>
      </trkpt>
      <trkpt lat="45.62802" lon="6.55249">
        <ele>2255.35</ele>
        <time>2019-06-26T09:40:22Z</time>
      </trkpt>
      <trkpt lat="45.62812" lon="6.55258">
        <ele>2255.99</ele>
        <time>2019-06-26T09:40:39Z</time>
      </trkpt>
      <trkpt lat="45.62819" lon="6.55263">
        <ele>2257.46</ele>
        <time>2019-06-26T09:40:51Z</time>
      </trkpt>
      <trkpt lat="45.62831" lon="6.55274">
        <ele>2257.44</ele>
        <time>2019-06-26T09:41:06Z</time>
      </trkpt>
      <trkpt lat="45.62844" lon="6.55285">
        <ele>2258</ele>
        <time>2019-06-26T09:41:25Z</time>
      </trkpt>
      <trkpt lat="45.62853" lon="6.55287">
        <ele>2261.19</ele>
        <time>2019-06-26T09:41:43Z</time>
      </trkpt>
      <trkpt lat="45.62861" lon="6.5529">
        <ele>2263.84</ele>
        <time>2019-06-26T09:42:00Z</time>
      </trkpt>
      <trkpt lat="45.62875" lon="6.55296">
        <ele>2266.3</ele>
        <time>2019-06-26T09:42:23Z</time>
      </trkpt>
      <trkpt lat="45.62891" lon="6.553">
        <ele>2268.79</ele>
        <time>2019-06-26T09:42:48Z</time>
      </trkpt>
      <trkpt lat="45.62899" lon="6.55299">
        <ele>2270.79</ele>
        <time>2019-06-26T09:43:06Z</time>
      </trkpt>
      <trkpt lat="45.62905" lon="6.55297">
        <ele>2273.08</ele>
        <time>2019-06-26T09:43:22Z</time>
      </trkpt>
      <trkpt lat="45.62907" lon="6.55289">
        <ele>2275.36</ele>
        <time>2019-06-26T09:43:41Z</time>
      </trkpt>
      <trkpt lat="45.62912" lon="6.55287">
        <ele>2278.42</ele>
        <time>2019-06-26T09:43:59Z</time>
      </trkpt>
      <trkpt lat="45.62918" lon="6.55283">
        <ele>2280.66</ele>
        <time>2019-06-26T09:44:17Z</time>
      </trkpt>
      <trkpt lat="45.62924" lon="6.55271">
        <ele>2283.86</ele>
        <time>2019-06-26T09:44:40Z</time>
      </trkpt>
      <trkpt lat="45.62924" lon="6.55258">
        <ele>2285.95</ele>
        <time>2019-06-26T09:44:58Z</time>
      </trkpt>
      <trkpt lat="45.62924" lon="6.55258">
        <ele>2286.31</ele>
        <time>2019-06-26T09:45:00Z</time>
      </trkpt>
      <trkpt lat="45.62923" lon="6.55257">
        <ele>2288.88</ele>
        <time>2019-06-26T09:45:20Z</time>
      </trkpt>
      <trkpt lat="45.62933" lon="6.55261">
        <ele>2290.46</ele>
        <time>2019-06-26T09:45:39Z</time>
      </trkpt>
      <trkpt lat="45.6294" lon="6.55252">
        <ele>2292.09</ele>
        <time>2019-06-26T09:45:59Z</time>
      </trkpt>
      <trkpt lat="45.62945" lon="6.55247">
        <ele>2293.73</ele>
        <time>2019-06-26T09:46:16Z</time>
      </trkpt>
      <trkpt lat="45.62953" lon="6.55237">
        <ele>2295.54</ele>
        <time>2019-06-26T09:46:34Z</time>
      </trkpt>
      <trkpt lat="45.62959" lon="6.55226">
        <ele>2296.68</ele>
        <time>2019-06-26T09:46:55Z</time>
      </trkpt>
      <trkpt lat="45.62962" lon="6.55215">
        <ele>2298.17</ele>
        <time>2019-06-26T09:47:18Z</time>
      </trkpt>
      <trkpt lat="45.62964" lon="6.55198">
        <ele>2301.24</ele>
        <time>2019-06-26T09:47:42Z</time>
      </trkpt>
      <trkpt lat="45.62963" lon="6.55182">
        <ele>2304.27</ele>
        <time>2019-06-26T09:48:01Z</time>
      </trkpt>
      <trkpt lat="45.62963" lon="6.55182">
        <ele>2305.11</ele>
        <time>2019-06-26T09:48:24Z</time>
      </trkpt>
      <trkpt lat="45.62962" lon="6.55183">
        <ele>2305.4</ele>
        <time>2019-06-26T09:48:52Z</time>
      </trkpt>
      <trkpt lat="45.62966" lon="6.5518">
        <ele>2306.21</ele>
        <time>2019-06-26T09:49:19Z</time>
      </trkpt>
      <trkpt lat="45.62967" lon="6.55185">
        <ele>2305.14</ele>
        <time>2019-06-26T09:49:48Z</time>
      </trkpt>
      <trkpt lat="45.62968" lon="6.55186">
        <ele>2305.23</ele>
        <time>2019-06-26T09:50:32Z</time>
      </trkpt>
      <trkpt lat="45.62966" lon="6.55187">
        <ele>2305.87</ele>
        <time>2019-06-26T09:50:56Z</time>
      </trkpt>
      <trkpt lat="45.62962" lon="6.55186">
        <ele>2306.16</ele>
        <time>2019-06-26T09:51:30Z</time>
      </trkpt>
      <trkpt lat="45.62966" lon="6.55191">
        <ele>2304.93</ele>
        <time>2019-06-26T09:51:47Z</time>
      </trkpt>
      <trkpt lat="45.62977" lon="6.552">
        <ele>2303.45</ele>
        <time>2019-06-26T09:52:02Z</time>
      </trkpt>
      <trkpt lat="45.62983" lon="6.55203">
        <ele>2304.64</ele>
        <time>2019-06-26T09:52:17Z</time>
      </trkpt>
      <trkpt lat="45.62985" lon="6.55204">
        <ele>2305.66</ele>
        <time>2019-06-26T09:52:36Z</time>
      </trkpt>
      <trkpt lat="45.62993" lon="6.5521">
        <ele>2306.32</ele>
        <time>2019-06-26T09:52:50Z</time>
      </trkpt>
      <trkpt lat="45.63" lon="6.55222">
        <ele>2308.55</ele>
        <time>2019-06-26T09:53:07Z</time>
      </trkpt>
      <trkpt lat="45.63007" lon="6.55219">
        <ele>2311.64</ele>
        <time>2019-06-26T09:53:29Z</time>
      </trkpt>
      <trkpt lat="45.63018" lon="6.55218">
        <ele>2314.5</ele>
        <time>2019-06-26T09:53:52Z</time>
      </trkpt>
      <trkpt lat="45.63024" lon="6.55215">
        <ele>2316.96</ele>
        <time>2019-06-26T09:54:10Z</time>
      </trkpt>
      <trkpt lat="45.63034" lon="6.55216">
        <ele>2316.69</ele>
        <time>2019-06-26T09:54:27Z</time>
      </trkpt>
      <trkpt lat="45.63037" lon="6.55212">
        <ele>2318.71</ele>
        <time>2019-06-26T09:54:43Z</time>
      </trkpt>
      <trkpt lat="45.6303" lon="6.552">
        <ele>2320.84</ele>
        <time>2019-06-26T09:55:03Z</time>
      </trkpt>
      <trkpt lat="45.63025" lon="6.55185">
        <ele>2322.53</ele>
        <time>2019-06-26T09:55:24Z</time>
      </trkpt>
      <trkpt lat="45.63034" lon="6.55175">
        <ele>2324.91</ele>
        <time>2019-06-26T09:55:45Z</time>
      </trkpt>
      <trkpt lat="45.6304" lon="6.55167">
        <ele>2327.45</ele>
        <time>2019-06-26T09:56:04Z</time>
      </trkpt>
      <trkpt lat="45.63049" lon="6.55163">
        <ele>2329.23</ele>
        <time>2019-06-26T09:56:25Z</time>
      </trkpt>
      <trkpt lat="45.63059" lon="6.55162">
        <ele>2330.06</ele>
        <time>2019-06-26T09:56:45Z</time>
      </trkpt>
      <trkpt lat="45.63063" lon="6.55153">
        <ele>2332.37</ele>
        <time>2019-06-26T09:57:04Z</time>
      </trkpt>
      <trkpt lat="45.63064" lon="6.5515">
        <ele>2332.41</ele>
        <time>2019-06-26T09:57:42Z</time>
      </trkpt>
      <trkpt lat="45.6307" lon="6.55152">
        <ele>2335.56</ele>
        <time>2019-06-26T09:58:04Z</time>
      </trkpt>
      <trkpt lat="45.6308" lon="6.55153">
        <ele>2336.85</ele>
        <time>2019-06-26T09:58:23Z</time>
      </trkpt>
      <trkpt lat="45.63089" lon="6.55153">
        <ele>2339.91</ele>
        <time>2019-06-26T09:58:42Z</time>
      </trkpt>
      <trkpt lat="45.63093" lon="6.55156">
        <ele>2342.36</ele>
        <time>2019-06-26T09:59:03Z</time>
      </trkpt>
      <trkpt lat="45.63099" lon="6.5515">
        <ele>2344.82</ele>
        <time>2019-06-26T09:59:23Z</time>
      </trkpt>
      <trkpt lat="45.63099" lon="6.55151">
        <ele>2344.84</ele>
        <time>2019-06-26T09:59:24Z</time>
      </trkpt>
      <trkpt lat="45.63101" lon="6.55158">
        <ele>2347.91</ele>
        <time>2019-06-26T09:59:44Z</time>
      </trkpt>
      <trkpt lat="45.63108" lon="6.55158">
        <ele>2349.86</ele>
        <time>2019-06-26T10:00:04Z</time>
      </trkpt>
      <trkpt lat="45.63114" lon="6.55152">
        <ele>2352.91</ele>
        <time>2019-06-26T10:00:27Z</time>
      </trkpt>
      <trkpt lat="45.6312" lon="6.55147">
        <ele>2354.77</ele>
        <time>2019-06-26T10:00:45Z</time>
      </trkpt>
      <trkpt lat="45.63132" lon="6.55145">
        <ele>2355.39</ele>
        <time>2019-06-26T10:01:07Z</time>
      </trkpt>
      <trkpt lat="45.63147" lon="6.55147">
        <ele>2356</ele>
        <time>2019-06-26T10:01:30Z</time>
      </trkpt>
      <trkpt lat="45.63153" lon="6.55149">
        <ele>2357.21</ele>
        <time>2019-06-26T10:01:51Z</time>
      </trkpt>
      <trkpt lat="45.63157" lon="6.55147">
        <ele>2360.53</ele>
        <time>2019-06-26T10:02:08Z</time>
      </trkpt>
      <trkpt lat="45.63161" lon="6.55146">
        <ele>2363.53</ele>
        <time>2019-06-26T10:02:26Z</time>
      </trkpt>
      <trkpt lat="45.63161" lon="6.55141">
        <ele>2363.73</ele>
        <time>2019-06-26T10:02:54Z</time>
      </trkpt>
      <trkpt lat="45.63162" lon="6.55139">
        <ele>2364.73</ele>
        <time>2019-06-26T10:03:24Z</time>
      </trkpt>
      <trkpt lat="45.63171" lon="6.55136">
        <ele>2366.12</ele>
        <time>2019-06-26T10:03:43Z</time>
      </trkpt>
      <trkpt lat="45.63181" lon="6.55133">
        <ele>2366.3</ele>
        <time>2019-06-26T10:04:02Z</time>
      </trkpt>
      <trkpt lat="45.63189" lon="6.55132">
        <ele>2366.62</ele>
        <time>2019-06-26T10:04:20Z</time>
      </trkpt>
      <trkpt lat="45.63197" lon="6.55132">
        <ele>2366.85</ele>
        <time>2019-06-26T10:04:35Z</time>
      </trkpt>
      <trkpt lat="45.63201" lon="6.55123">
        <ele>2368.96</ele>
        <time>2019-06-26T10:04:53Z</time>
      </trkpt>
      <trkpt lat="45.63204" lon="6.55116">
        <ele>2372.3</ele>
        <time>2019-06-26T10:05:09Z</time>
      </trkpt>
      <trkpt lat="45.63207" lon="6.55109">
        <ele>2374.55</ele>
        <time>2019-06-26T10:05:34Z</time>
      </trkpt>
      <trkpt lat="45.63216" lon="6.55106">
        <ele>2375.23</ele>
        <time>2019-06-26T10:05:52Z</time>
      </trkpt>
      <trkpt lat="45.63223" lon="6.55105">
        <ele>2377.63</ele>
        <time>2019-06-26T10:06:12Z</time>
      </trkpt>
      <trkpt lat="45.63227" lon="6.55105">
        <ele>2377.32</ele>
        <time>2019-06-26T10:06:37Z</time>
      </trkpt>
      <trkpt lat="45.63221" lon="6.55104">
        <ele>2376.19</ele>
        <time>2019-06-26T10:06:52Z</time>
      </trkpt>
      <trkpt lat="45.6322" lon="6.55112">
        <ele>2373.02</ele>
        <time>2019-06-26T10:07:05Z</time>
      </trkpt>
      <trkpt lat="45.63223" lon="6.55117">
        <ele>2372.19</ele>
        <time>2019-06-26T10:07:25Z</time>
      </trkpt>
      <trkpt lat="45.63227" lon="6.5512">
        <ele>2371.49</ele>
        <time>2019-06-26T10:07:52Z</time>
      </trkpt>
      <trkpt lat="45.6323" lon="6.55125">
        <ele>2369.97</ele>
        <time>2019-06-26T10:08:08Z</time>
      </trkpt>
      <trkpt lat="45.63236" lon="6.5513">
        <ele>2368.12</ele>
        <time>2019-06-26T10:08:26Z</time>
      </trkpt>
      <trkpt lat="45.63243" lon="6.55137">
        <ele>2366.4</ele>
        <time>2019-06-26T10:08:44Z</time>
      </trkpt>
      <trkpt lat="45.63247" lon="6.55148">
        <ele>2364.57</ele>
        <time>2019-06-26T10:08:56Z</time>
      </trkpt>
      <trkpt lat="45.6325" lon="6.55156">
        <ele>2364.79</ele>
        <time>2019-06-26T10:09:14Z</time>
      </trkpt>
      <trkpt lat="45.63255" lon="6.55167">
        <ele>2363.92</ele>
        <time>2019-06-26T10:09:32Z</time>
      </trkpt>
      <trkpt lat="45.63262" lon="6.55171">
        <ele>2366.82</ele>
        <time>2019-06-26T10:09:49Z</time>
      </trkpt>
      <trkpt lat="45.63261" lon="6.55166">
        <ele>2368.71</ele>
        <time>2019-06-26T10:10:09Z</time>
      </trkpt>
      <trkpt lat="45.63265" lon="6.55164">
        <ele>2370.94</ele>
        <time>2019-06-26T10:10:31Z</time>
      </trkpt>
      <trkpt lat="45.63271" lon="6.55164">
        <ele>2374.32</ele>
        <time>2019-06-26T10:10:50Z</time>
      </trkpt>
      <trkpt lat="45.63274" lon="6.55164">
        <ele>2376.15</ele>
        <time>2019-06-26T10:11:13Z</time>
      </trkpt>
      <trkpt lat="45.63282" lon="6.55166">
        <ele>2378.11</ele>
        <time>2019-06-26T10:11:33Z</time>
      </trkpt>
      <trkpt lat="45.63288" lon="6.55168">
        <ele>2378.81</ele>
        <time>2019-06-26T10:11:52Z</time>
      </trkpt>
      <trkpt lat="45.63292" lon="6.55164">
        <ele>2380.63</ele>
        <time>2019-06-26T10:12:11Z</time>
      </trkpt>
      <trkpt lat="45.63295" lon="6.55161">
        <ele>2383.72</ele>
        <time>2019-06-26T10:12:26Z</time>
      </trkpt>
      <trkpt lat="45.63297" lon="6.55159">
        <ele>2384.39</ele>
        <time>2019-06-26T10:12:53Z</time>
      </trkpt>
      <trkpt lat="45.63294" lon="6.55151">
        <ele>2385.32</ele>
        <time>2019-06-26T10:13:12Z</time>
      </trkpt>
      <trkpt lat="45.6329" lon="6.55148">
        <ele>2385.6</ele>
        <time>2019-06-26T10:13:31Z</time>
      </trkpt>
      <trkpt lat="45.63297" lon="6.55145">
        <ele>2388.78</ele>
        <time>2019-06-26T10:13:53Z</time>
      </trkpt>
      <trkpt lat="45.63299" lon="6.55138">
        <ele>2391.34</ele>
        <time>2019-06-26T10:14:11Z</time>
      </trkpt>
      <trkpt lat="45.63299" lon="6.55137">
        <ele>2392.77</ele>
        <time>2019-06-26T10:14:36Z</time>
      </trkpt>
      <trkpt lat="45.63299" lon="6.55139">
        <ele>2393.3</ele>
        <time>2019-06-26T10:15:01Z</time>
      </trkpt>
      <trkpt lat="45.63296" lon="6.55134">
        <ele>2395.17</ele>
        <time>2019-06-26T10:15:20Z</time>
      </trkpt>
      <trkpt lat="45.63293" lon="6.5513">
        <ele>2397.61</ele>
        <time>2019-06-26T10:15:36Z</time>
      </trkpt>
      <trkpt lat="45.63297" lon="6.5512">
        <ele>2400.63</ele>
        <time>2019-06-26T10:15:57Z</time>
      </trkpt>
      <trkpt lat="45.63301" lon="6.5511">
        <ele>2402.32</ele>
        <time>2019-06-26T10:16:19Z</time>
      </trkpt>
      <trkpt lat="45.63303" lon="6.55113">
        <ele>2401.37</ele>
        <time>2019-06-26T10:16:48Z</time>
      </trkpt>
      <trkpt lat="45.633" lon="6.55116">
        <ele>2401.25</ele>
        <time>2019-06-26T10:16:57Z</time>
      </trkpt>
      <trkpt lat="45.63296" lon="6.55125">
        <ele>2400.59</ele>
        <time>2019-06-26T10:17:15Z</time>
      </trkpt>
      <trkpt lat="45.63302" lon="6.55115">
        <ele>2401.65</ele>
        <time>2019-06-26T10:17:32Z</time>
      </trkpt>
      <trkpt lat="45.63303" lon="6.55107">
        <ele>2403.39</ele>
        <time>2019-06-26T10:17:51Z</time>
      </trkpt>
      <trkpt lat="45.63304" lon="6.55102">
        <ele>2404.27</ele>
        <time>2019-06-26T10:18:08Z</time>
      </trkpt>
      <trkpt lat="45.633" lon="6.55097">
        <ele>2406.46</ele>
        <time>2019-06-26T10:18:26Z</time>
      </trkpt>
      <trkpt lat="45.63297" lon="6.55087">
        <ele>2408.88</ele>
        <time>2019-06-26T10:18:39Z</time>
      </trkpt>
      <trkpt lat="45.63297" lon="6.55084">
        <ele>2409.09</ele>
        <time>2019-06-26T10:19:01Z</time>
      </trkpt>
      <trkpt lat="45.63292" lon="6.55074">
        <ele>2407.83</ele>
        <time>2019-06-26T10:19:15Z</time>
      </trkpt>
      <trkpt lat="45.63286" lon="6.55069">
        <ele>2409.56</ele>
        <time>2019-06-26T10:19:29Z</time>
      </trkpt>
      <trkpt lat="45.63282" lon="6.55068">
        <ele>2409.77</ele>
        <time>2019-06-26T10:19:41Z</time>
      </trkpt>
      <trkpt lat="45.63287" lon="6.55071">
        <ele>2409.5</ele>
        <time>2019-06-26T10:20:02Z</time>
      </trkpt>
      <trkpt lat="45.63289" lon="6.55071">
        <ele>2409.62</ele>
        <time>2019-06-26T10:20:14Z</time>
      </trkpt>
      <trkpt lat="45.63293" lon="6.55075">
        <ele>2408.54</ele>
        <time>2019-06-26T10:20:21Z</time>
      </trkpt>
      <trkpt lat="45.63299" lon="6.55079">
        <ele>2408.94</ele>
        <time>2019-06-26T10:20:35Z</time>
      </trkpt>
      <trkpt lat="45.63302" lon="6.55082">
        <ele>2408.65</ele>
        <time>2019-06-26T10:21:01Z</time>
      </trkpt>
      <trkpt lat="45.63306" lon="6.55086">
        <ele>2407.78</ele>
        <time>2019-06-26T10:21:15Z</time>
      </trkpt>
      <trkpt lat="45.63306" lon="6.55086">
        <ele>2408.43</ele>
        <time>2019-06-26T10:21:39Z</time>
      </trkpt>
      <trkpt lat="45.63306" lon="6.55086">
        <ele>2408.43</ele>
        <time>2019-06-26T10:22:09Z</time>
      </trkpt>
      <trkpt lat="45.63309" lon="6.55089">
        <ele>2408.19</ele>
        <time>2019-06-26T10:22:41Z</time>
      </trkpt>
      <trkpt lat="45.63314" lon="6.55098">
        <ele>2408.08</ele>
        <time>2019-06-26T10:22:56Z</time>
      </trkpt>
      <trkpt lat="45.63319" lon="6.55098">
        <ele>2407.2</ele>
        <time>2019-06-26T10:23:19Z</time>
      </trkpt>
      <trkpt lat="45.63325" lon="6.55096">
        <ele>2409.12</ele>
        <time>2019-06-26T10:23:36Z</time>
      </trkpt>
      <trkpt lat="45.63332" lon="6.55094">
        <ele>2411</ele>
        <time>2019-06-26T10:23:53Z</time>
      </trkpt>
      <trkpt lat="45.63336" lon="6.55091">
        <ele>2409.68</ele>
        <time>2019-06-26T10:24:03Z</time>
      </trkpt>
      <trkpt lat="45.63346" lon="6.5509">
        <ele>2410.01</ele>
        <time>2019-06-26T10:24:16Z</time>
      </trkpt>
      <trkpt lat="45.63353" lon="6.55086">
        <ele>2409.81</ele>
        <time>2019-06-26T10:24:30Z</time>
      </trkpt>
      <trkpt lat="45.63353" lon="6.55086">
        <ele>2409.65</ele>
        <time>2019-06-26T10:24:31Z</time>
      </trkpt>
      <trkpt lat="45.63356" lon="6.55089">
        <ele>2408.84</ele>
        <time>2019-06-26T10:24:34Z</time>
      </trkpt>
      <trkpt lat="45.63365" lon="6.55097">
        <ele>2408.58</ele>
        <time>2019-06-26T10:24:47Z</time>
      </trkpt>
      <trkpt lat="45.63364" lon="6.55093">
        <ele>2408.65</ele>
        <time>2019-06-26T10:25:07Z</time>
      </trkpt>
      <trkpt lat="45.63357" lon="6.55085">
        <ele>2409.94</ele>
        <time>2019-06-26T10:25:22Z</time>
      </trkpt>
      <trkpt lat="45.63355" lon="6.55084">
        <ele>2410.4</ele>
        <time>2019-06-26T10:25:35Z</time>
      </trkpt>
      <trkpt lat="45.63352" lon="6.55084">
        <ele>2410.56</ele>
        <time>2019-06-26T10:25:52Z</time>
      </trkpt>
      <trkpt lat="45.63347" lon="6.55084">
        <ele>2409.93</ele>
        <time>2019-06-26T10:25:56Z</time>
      </trkpt>
      <trkpt lat="45.6334" lon="6.55087">
        <ele>2410.26</ele>
        <time>2019-06-26T10:26:04Z</time>
      </trkpt>
      <trkpt lat="45.63326" lon="6.55083">
        <ele>2410.57</ele>
        <time>2019-06-26T10:26:19Z</time>
      </trkpt>
      <trkpt lat="45.63321" lon="6.55086">
        <ele>2410.2</ele>
        <time>2019-06-26T10:26:43Z</time>
      </trkpt>
      <trkpt lat="45.63321" lon="6.55086">
        <ele>2409.67</ele>
        <time>2019-06-26T10:27:06Z</time>
      </trkpt>
      <trkpt lat="45.6332" lon="6.55085">
        <ele>2409.87</ele>
        <time>2019-06-26T10:27:37Z</time>
      </trkpt>
      <trkpt lat="45.63319" lon="6.55084">
        <ele>2410.62</ele>
        <time>2019-06-26T10:28:04Z</time>
      </trkpt>
      <trkpt lat="45.6332" lon="6.55084">
        <ele>2410.85</ele>
        <time>2019-06-26T10:28:19Z</time>
      </trkpt>
      <trkpt lat="45.63327" lon="6.55087">
        <ele>2412.09</ele>
        <time>2019-06-26T10:28:34Z</time>
      </trkpt>
      <trkpt lat="45.6333" lon="6.55085">
        <ele>2412.64</ele>
        <time>2019-06-26T10:28:48Z</time>
      </trkpt>
      <trkpt lat="45.63334" lon="6.55078">
        <ele>2412.36</ele>
        <time>2019-06-26T10:29:04Z</time>
      </trkpt>
      <trkpt lat="45.63337" lon="6.55078">
        <ele>2412.07</ele>
        <time>2019-06-26T10:29:10Z</time>
      </trkpt>
      <trkpt lat="45.63342" lon="6.55077">
        <ele>2411.96</ele>
        <time>2019-06-26T10:29:15Z</time>
      </trkpt>
      <trkpt lat="45.63347" lon="6.55082">
        <ele>2411.98</ele>
        <time>2019-06-26T10:29:21Z</time>
      </trkpt>
      <trkpt lat="45.63352" lon="6.55087">
        <ele>2412.48</ele>
        <time>2019-06-26T10:29:34Z</time>
      </trkpt>
      <trkpt lat="45.63354" lon="6.55089">
        <ele>2413.14</ele>
        <time>2019-06-26T10:29:52Z</time>
      </trkpt>
      <trkpt lat="45.63355" lon="6.5509">
        <ele>2412.11</ele>
        <time>2019-06-26T10:29:54Z</time>
      </trkpt>
      <trkpt lat="45.63358" lon="6.55091">
        <ele>2411.81</ele>
        <time>2019-06-26T10:29:56Z</time>
      </trkpt>
      <trkpt lat="45.63368" lon="6.551">
        <ele>2409.94</ele>
        <time>2019-06-26T10:30:11Z</time>
      </trkpt>
      <trkpt lat="45.63373" lon="6.55103">
        <ele>2409.58</ele>
        <time>2019-06-26T10:30:29Z</time>
      </trkpt>
      <trkpt lat="45.63375" lon="6.55102">
        <ele>2409.63</ele>
        <time>2019-06-26T10:30:33Z</time>
      </trkpt>
      <trkpt lat="45.63376" lon="6.55104">
        <ele>2409.46</ele>
        <time>2019-06-26T10:30:49Z</time>
      </trkpt>
      <trkpt lat="45.63376" lon="6.55103">
        <ele>2410.08</ele>
        <time>2019-06-26T10:31:15Z</time>
      </trkpt>
      <trkpt lat="45.63376" lon="6.55103">
        <ele>2410.12</ele>
        <time>2019-06-26T10:31:41Z</time>
      </trkpt>
      <trkpt lat="45.63381" lon="6.55109">
        <ele>2407.87</ele>
        <time>2019-06-26T10:31:56Z</time>
      </trkpt>
      <trkpt lat="45.63386" lon="6.55111">
        <ele>2407.56</ele>
        <time>2019-06-26T10:32:12Z</time>
      </trkpt>
      <trkpt lat="45.63394" lon="6.55101">
        <ele>2407.41</ele>
        <time>2019-06-26T10:32:27Z</time>
      </trkpt>
      <trkpt lat="45.63399" lon="6.55093">
        <ele>2407.51</ele>
        <time>2019-06-26T10:32:42Z</time>
      </trkpt>
      <trkpt lat="45.63407" lon="6.55086">
        <ele>2409.29</ele>
        <time>2019-06-26T10:32:58Z</time>
      </trkpt>
      <trkpt lat="45.63413" lon="6.55077">
        <ele>2410.68</ele>
        <time>2019-06-26T10:33:15Z</time>
      </trkpt>
      <trkpt lat="45.63423" lon="6.55067">
        <ele>2413.69</ele>
        <time>2019-06-26T10:33:40Z</time>
      </trkpt>
      <trkpt lat="45.63429" lon="6.55068">
        <ele>2414.84</ele>
        <time>2019-06-26T10:33:58Z</time>
      </trkpt>
      <trkpt lat="45.63434" lon="6.55065">
        <ele>2415.83</ele>
        <time>2019-06-26T10:34:15Z</time>
      </trkpt>
      <trkpt lat="45.63432" lon="6.55057">
        <ele>2418.48</ele>
        <time>2019-06-26T10:34:34Z</time>
      </trkpt>
      <trkpt lat="45.63423" lon="6.55045">
        <ele>2420.71</ele>
        <time>2019-06-26T10:34:54Z</time>
      </trkpt>
      <trkpt lat="45.63424" lon="6.55034">
        <ele>2421.42</ele>
        <time>2019-06-26T10:35:09Z</time>
      </trkpt>
      <trkpt lat="45.63419" lon="6.55018">
        <ele>2424.2</ele>
        <time>2019-06-26T10:35:26Z</time>
      </trkpt>
      <trkpt lat="45.63414" lon="6.55006">
        <ele>2425.59</ele>
        <time>2019-06-26T10:35:38Z</time>
      </trkpt>
      <trkpt lat="45.63409" lon="6.54991">
        <ele>2426.3</ele>
        <time>2019-06-26T10:35:55Z</time>
      </trkpt>
      <trkpt lat="45.63411" lon="6.54986">
        <ele>2424.81</ele>
        <time>2019-06-26T10:36:11Z</time>
      </trkpt>
      <trkpt lat="45.6341" lon="6.54984">
        <ele>2424.32</ele>
        <time>2019-06-26T10:36:30Z</time>
      </trkpt>
      <trkpt lat="45.63409" lon="6.54985">
        <ele>2423.94</ele>
        <time>2019-06-26T10:36:59Z</time>
      </trkpt>
      <trkpt lat="45.63409" lon="6.54985">
        <ele>2424.55</ele>
        <time>2019-06-26T10:37:54Z</time>
      </trkpt>
      <trkpt lat="45.6341" lon="6.54985">
        <ele>2425.23</ele>
        <time>2019-06-26T10:38:12Z</time>
      </trkpt>
      <trkpt lat="45.63413" lon="6.54987">
        <ele>2425.06</ele>
        <time>2019-06-26T10:38:41Z</time>
      </trkpt>
      <trkpt lat="45.63405" lon="6.54976">
        <ele>2423.71</ele>
        <time>2019-06-26T10:38:55Z</time>
      </trkpt>
      <trkpt lat="45.63404" lon="6.54973">
        <ele>2422.85</ele>
        <time>2019-06-26T10:39:08Z</time>
      </trkpt>
      <trkpt lat="45.63407" lon="6.54982">
        <ele>2425.88</ele>
        <time>2019-06-26T10:39:20Z</time>
      </trkpt>
      <trkpt lat="45.63406" lon="6.54986">
        <ele>2425.2</ele>
        <time>2019-06-26T10:39:42Z</time>
      </trkpt>
      <trkpt lat="45.63407" lon="6.54987">
        <ele>2425.44</ele>
        <time>2019-06-26T10:40:25Z</time>
      </trkpt>
      <trkpt lat="45.63408" lon="6.54987">
        <ele>2425.63</ele>
        <time>2019-06-26T10:41:13Z</time>
      </trkpt>
      <trkpt lat="45.63407" lon="6.54987">
        <ele>2425.77</ele>
        <time>2019-06-26T10:42:01Z</time>
      </trkpt>
      <trkpt lat="45.63407" lon="6.54989">
        <ele>2425.95</ele>
        <time>2019-06-26T10:42:45Z</time>
      </trkpt>
      <trkpt lat="45.63406" lon="6.5499">
        <ele>2425.71</ele>
        <time>2019-06-26T10:43:32Z</time>
      </trkpt>
      <trkpt lat="45.63407" lon="6.54992">
        <ele>2425.61</ele>
        <time>2019-06-26T10:44:19Z</time>
      </trkpt>
      <trkpt lat="45.63407" lon="6.5499">
        <ele>2425.57</ele>
        <time>2019-06-26T10:45:07Z</time>
      </trkpt>
      <trkpt lat="45.63406" lon="6.54987">
        <ele>2425.49</ele>
        <time>2019-06-26T10:45:54Z</time>
      </trkpt>
      <trkpt lat="45.63406" lon="6.54988">
        <ele>2425.27</ele>
        <time>2019-06-26T10:46:41Z</time>
      </trkpt>
      <trkpt lat="45.63405" lon="6.5499">
        <ele>2426.04</ele>
        <time>2019-06-26T10:46:59Z</time>
      </trkpt>
      <trkpt lat="45.63405" lon="6.54991">
        <ele>2426.44</ele>
        <time>2019-06-26T10:47:43Z</time>
      </trkpt>
      <trkpt lat="45.63405" lon="6.54986">
        <ele>2427.31</ele>
        <time>2019-06-26T10:48:24Z</time>
      </trkpt>
      <trkpt lat="45.63404" lon="6.54988">
        <ele>2426.72</ele>
        <time>2019-06-26T10:48:58Z</time>
      </trkpt>
      <trkpt lat="45.63404" lon="6.54989">
        <ele>2426.95</ele>
        <time>2019-06-26T10:49:34Z</time>
      </trkpt>
      <trkpt lat="45.63404" lon="6.54988">
        <ele>2426.83</ele>
        <time>2019-06-26T10:50:11Z</time>
      </trkpt>
      <trkpt lat="45.63403" lon="6.54989">
        <ele>2426.7</ele>
        <time>2019-06-26T10:50:54Z</time>
      </trkpt>
      <trkpt lat="45.63404" lon="6.54989">
        <ele>2427.2</ele>
        <time>2019-06-26T10:51:50Z</time>
      </trkpt>
      <trkpt lat="45.63403" lon="6.54988">
        <ele>2427.16</ele>
        <time>2019-06-26T10:52:51Z</time>
      </trkpt>
      <trkpt lat="45.63404" lon="6.54988">
        <ele>2427.46</ele>
        <time>2019-06-26T10:53:52Z</time>
      </trkpt>
      <trkpt lat="45.63405" lon="6.54989">
        <ele>2427.67</ele>
        <time>2019-06-26T10:54:57Z</time>
      </trkpt>
      <trkpt lat="45.63405" lon="6.54989">
        <ele>2427.73</ele>
        <time>2019-06-26T10:55:51Z</time>
      </trkpt>
      <trkpt lat="45.63405" lon="6.5499">
        <ele>2427.75</ele>
        <time>2019-06-26T10:56:42Z</time>
      </trkpt>
      <trkpt lat="45.63405" lon="6.54989">
        <ele>2427.37</ele>
        <time>2019-06-26T10:57:34Z</time>
      </trkpt>
      <trkpt lat="45.63406" lon="6.54989">
        <ele>2427.55</ele>
        <time>2019-06-26T10:58:16Z</time>
      </trkpt>
      <trkpt lat="45.63404" lon="6.54987">
        <ele>2427.5</ele>
        <time>2019-06-26T10:59:01Z</time>
      </trkpt>
      <trkpt lat="45.63404" lon="6.54987">
        <ele>2427.56</ele>
        <time>2019-06-26T10:59:50Z</time>
      </trkpt>
      <trkpt lat="45.63404" lon="6.54986">
        <ele>2427.59</ele>
        <time>2019-06-26T11:00:42Z</time>
      </trkpt>
      <trkpt lat="45.63404" lon="6.54987">
        <ele>2427.75</ele>
        <time>2019-06-26T11:01:26Z</time>
      </trkpt>
      <trkpt lat="45.63404" lon="6.54987">
        <ele>2427.81</ele>
        <time>2019-06-26T11:02:21Z</time>
      </trkpt>
      <trkpt lat="45.63403" lon="6.54987">
        <ele>2427.44</ele>
        <time>2019-06-26T11:03:16Z</time>
      </trkpt>
      <trkpt lat="45.63404" lon="6.54988">
        <ele>2427.42</ele>
        <time>2019-06-26T11:04:11Z</time>
      </trkpt>
      <trkpt lat="45.63404" lon="6.54988">
        <ele>2427.6</ele>
        <time>2019-06-26T11:05:09Z</time>
      </trkpt>
      <trkpt lat="45.63404" lon="6.54989">
        <ele>2427.89</ele>
        <time>2019-06-26T11:05:56Z</time>
      </trkpt>
      <trkpt lat="45.63404" lon="6.54988">
        <ele>2427.98</ele>
        <time>2019-06-26T11:06:49Z</time>
      </trkpt>
      <trkpt lat="45.63403" lon="6.54988">
        <ele>2427.89</ele>
        <time>2019-06-26T11:07:54Z</time>
      </trkpt>
      <trkpt lat="45.63405" lon="6.5499">
        <ele>2428.1</ele>
        <time>2019-06-26T11:08:46Z</time>
      </trkpt>
      <trkpt lat="45.63404" lon="6.54989">
        <ele>2428.11</ele>
        <time>2019-06-26T11:09:35Z</time>
      </trkpt>
      <trkpt lat="45.63405" lon="6.54989">
        <ele>2428.42</ele>
        <time>2019-06-26T11:10:18Z</time>
      </trkpt>
      <trkpt lat="45.63405" lon="6.54991">
        <ele>2428.08</ele>
        <time>2019-06-26T11:10:57Z</time>
      </trkpt>
      <trkpt lat="45.63405" lon="6.54989">
        <ele>2428.03</ele>
        <time>2019-06-26T11:11:43Z</time>
      </trkpt>
      <trkpt lat="45.63405" lon="6.54989">
        <ele>2428.05</ele>
        <time>2019-06-26T11:12:17Z</time>
      </trkpt>
      <trkpt lat="45.63404" lon="6.54988">
        <ele>2427.96</ele>
        <time>2019-06-26T11:12:42Z</time>
      </trkpt>
      <trkpt lat="45.63403" lon="6.54987">
        <ele>2428.11</ele>
        <time>2019-06-26T11:13:30Z</time>
      </trkpt>
      <trkpt lat="45.63403" lon="6.54988">
        <ele>2428.1</ele>
        <time>2019-06-26T11:14:18Z</time>
      </trkpt>
      <trkpt lat="45.63403" lon="6.54988">
        <ele>2428.18</ele>
        <time>2019-06-26T11:14:56Z</time>
      </trkpt>
      <trkpt lat="45.63403" lon="6.54988">
        <ele>2428.33</ele>
        <time>2019-06-26T11:15:39Z</time>
      </trkpt>
      <trkpt lat="45.63403" lon="6.54988">
        <ele>2428.21</ele>
        <time>2019-06-26T11:16:35Z</time>
      </trkpt>
      <trkpt lat="45.63403" lon="6.54987">
        <ele>2428.45</ele>
        <time>2019-06-26T11:17:36Z</time>
      </trkpt>
      <trkpt lat="45.63403" lon="6.54987">
        <ele>2428.25</ele>
        <time>2019-06-26T11:18:37Z</time>
      </trkpt>
      <trkpt lat="45.63403" lon="6.54986">
        <ele>2428.64</ele>
        <time>2019-06-26T11:19:36Z</time>
      </trkpt>
      <trkpt lat="45.63404" lon="6.54986">
        <ele>2428.79</ele>
        <time>2019-06-26T11:20:35Z</time>
      </trkpt>
      <trkpt lat="45.63404" lon="6.54987">
        <ele>2429.47</ele>
        <time>2019-06-26T11:21:01Z</time>
      </trkpt>
      <trkpt lat="45.63404" lon="6.54989">
        <ele>2429.23</ele>
        <time>2019-06-26T11:21:27Z</time>
      </trkpt>
      <trkpt lat="45.63405" lon="6.54985">
        <ele>2429.27</ele>
        <time>2019-06-26T11:22:11Z</time>
      </trkpt>
      <trkpt lat="45.63408" lon="6.54987">
        <ele>2429.18</ele>
        <time>2019-06-26T11:22:59Z</time>
      </trkpt>
      <trkpt lat="45.63407" lon="6.54986">
        <ele>2428.84</ele>
        <time>2019-06-26T11:23:51Z</time>
      </trkpt>
      <trkpt lat="45.63407" lon="6.54986">
        <ele>2429.05</ele>
        <time>2019-06-26T11:24:42Z</time>
      </trkpt>
      <trkpt lat="45.63404" lon="6.54987">
        <ele>2429.35</ele>
        <time>2019-06-26T11:25:18Z</time>
      </trkpt>
      <trkpt lat="45.63407" lon="6.54984">
        <ele>2428.32</ele>
        <time>2019-06-26T11:25:40Z</time>
      </trkpt>
      <trkpt lat="45.63406" lon="6.5498">
        <ele>2428.01</ele>
        <time>2019-06-26T11:25:48Z</time>
      </trkpt>
      <trkpt lat="45.63404" lon="6.54976">
        <ele>2426.51</ele>
        <time>2019-06-26T11:25:52Z</time>
      </trkpt>
      <trkpt lat="45.63402" lon="6.54967">
        <ele>2424.78</ele>
        <time>2019-06-26T11:26:00Z</time>
      </trkpt>
      <trkpt lat="45.634" lon="6.54958">
        <ele>2422.84</ele>
        <time>2019-06-26T11:26:15Z</time>
      </trkpt>
      <trkpt lat="45.63401" lon="6.54937">
        <ele>2419.64</ele>
        <time>2019-06-26T11:26:34Z</time>
      </trkpt>
      <trkpt lat="45.63401" lon="6.54936">
        <ele>2419.15</ele>
        <time>2019-06-26T11:26:35Z</time>
      </trkpt>
      <trkpt lat="45.63408" lon="6.54923">
        <ele>2416.87</ele>
        <time>2019-06-26T11:26:50Z</time>
      </trkpt>
      <trkpt lat="45.63413" lon="6.54917">
        <ele>2418.85</ele>
        <time>2019-06-26T11:27:05Z</time>
      </trkpt>
      <trkpt lat="45.63414" lon="6.54917">
        <ele>2418.55</ele>
        <time>2019-06-26T11:27:06Z</time>
      </trkpt>
      <trkpt lat="45.63419" lon="6.54917">
        <ele>2418.39</ele>
        <time>2019-06-26T11:27:20Z</time>
      </trkpt>
      <trkpt lat="45.63425" lon="6.54912">
        <ele>2418.18</ele>
        <time>2019-06-26T11:27:33Z</time>
      </trkpt>
      <trkpt lat="45.63424" lon="6.54911">
        <ele>2418.65</ele>
        <time>2019-06-26T11:28:12Z</time>
      </trkpt>
      <trkpt lat="45.63434" lon="6.54917">
        <ele>2418.37</ele>
        <time>2019-06-26T11:28:30Z</time>
      </trkpt>
      <trkpt lat="45.6344" lon="6.54918">
        <ele>2418.34</ele>
        <time>2019-06-26T11:28:47Z</time>
      </trkpt>
      <trkpt lat="45.63444" lon="6.54921">
        <ele>2417.96</ele>
        <time>2019-06-26T11:29:13Z</time>
      </trkpt>
      <trkpt lat="45.63445" lon="6.54925">
        <ele>2417.87</ele>
        <time>2019-06-26T11:29:30Z</time>
      </trkpt>
      <trkpt lat="45.63443" lon="6.54924">
        <ele>2417.79</ele>
        <time>2019-06-26T11:30:08Z</time>
      </trkpt>
      <trkpt lat="45.63443" lon="6.5492">
        <ele>2418.58</ele>
        <time>2019-06-26T11:30:35Z</time>
      </trkpt>
      <trkpt lat="45.63444" lon="6.5492">
        <ele>2418.45</ele>
        <time>2019-06-26T11:30:58Z</time>
      </trkpt>
      <trkpt lat="45.63445" lon="6.54925">
        <ele>2417.55</ele>
        <time>2019-06-26T11:31:04Z</time>
      </trkpt>
      <trkpt lat="45.63454" lon="6.54938">
        <ele>2414.8</ele>
        <time>2019-06-26T11:31:20Z</time>
      </trkpt>
      <trkpt lat="45.63464" lon="6.54948">
        <ele>2414.23</ele>
        <time>2019-06-26T11:31:34Z</time>
      </trkpt>
      <trkpt lat="45.63466" lon="6.54949">
        <ele>2414.26</ele>
        <time>2019-06-26T11:31:36Z</time>
      </trkpt>
      <trkpt lat="45.6347" lon="6.54953">
        <ele>2413.93</ele>
        <time>2019-06-26T11:31:51Z</time>
      </trkpt>
      <trkpt lat="45.63469" lon="6.54955">
        <ele>2412.82</ele>
        <time>2019-06-26T11:32:18Z</time>
      </trkpt>
      <trkpt lat="45.63471" lon="6.54956">
        <ele>2412.28</ele>
        <time>2019-06-26T11:32:51Z</time>
      </trkpt>
      <trkpt lat="45.63472" lon="6.54959">
        <ele>2412.7</ele>
        <time>2019-06-26T11:33:16Z</time>
      </trkpt>
      <trkpt lat="45.63472" lon="6.54957">
        <ele>2411.81</ele>
        <time>2019-06-26T11:33:41Z</time>
      </trkpt>
      <trkpt lat="45.63471" lon="6.54958">
        <ele>2412.86</ele>
        <time>2019-06-26T11:34:31Z</time>
      </trkpt>
      <trkpt lat="45.63476" lon="6.54957">
        <ele>2412.86</ele>
        <time>2019-06-26T11:34:54Z</time>
      </trkpt>
      <trkpt lat="45.63482" lon="6.54959">
        <ele>2411.9</ele>
        <time>2019-06-26T11:35:09Z</time>
      </trkpt>
      <trkpt lat="45.63488" lon="6.54961">
        <ele>2410.1</ele>
        <time>2019-06-26T11:35:19Z</time>
      </trkpt>
      <trkpt lat="45.63497" lon="6.54968">
        <ele>2407.55</ele>
        <time>2019-06-26T11:35:32Z</time>
      </trkpt>
      <trkpt lat="45.63501" lon="6.54971">
        <ele>2405.38</ele>
        <time>2019-06-26T11:35:44Z</time>
      </trkpt>
      <trkpt lat="45.63502" lon="6.54973">
        <ele>2404.96</ele>
        <time>2019-06-26T11:35:46Z</time>
      </trkpt>
      <trkpt lat="45.63504" lon="6.54975">
        <ele>2404.37</ele>
        <time>2019-06-26T11:35:48Z</time>
      </trkpt>
      <trkpt lat="45.63518" lon="6.54988">
        <ele>2401.01</ele>
        <time>2019-06-26T11:36:03Z</time>
      </trkpt>
      <trkpt lat="45.63529" lon="6.54991">
        <ele>2401.55</ele>
        <time>2019-06-26T11:36:16Z</time>
      </trkpt>
      <trkpt lat="45.63535" lon="6.54993">
        <ele>2400.67</ele>
        <time>2019-06-26T11:36:23Z</time>
      </trkpt>
      <trkpt lat="45.63542" lon="6.55003">
        <ele>2397.71</ele>
        <time>2019-06-26T11:36:36Z</time>
      </trkpt>
      <trkpt lat="45.63543" lon="6.55005">
        <ele>2397.25</ele>
        <time>2019-06-26T11:36:38Z</time>
      </trkpt>
      <trkpt lat="45.63546" lon="6.55009">
        <ele>2395.8</ele>
        <time>2019-06-26T11:36:44Z</time>
      </trkpt>
      <trkpt lat="45.63548" lon="6.5501">
        <ele>2395.41</ele>
        <time>2019-06-26T11:36:46Z</time>
      </trkpt>
      <trkpt lat="45.63557" lon="6.55018">
        <ele>2393.33</ele>
        <time>2019-06-26T11:36:59Z</time>
      </trkpt>
      <trkpt lat="45.63562" lon="6.55025">
        <ele>2391.22</ele>
        <time>2019-06-26T11:37:11Z</time>
      </trkpt>
      <trkpt lat="45.63564" lon="6.55026">
        <ele>2391.24</ele>
        <time>2019-06-26T11:37:31Z</time>
      </trkpt>
      <trkpt lat="45.63562" lon="6.55025">
        <ele>2391.29</ele>
        <time>2019-06-26T11:37:51Z</time>
      </trkpt>
      <trkpt lat="45.63564" lon="6.55027">
        <ele>2390.9</ele>
        <time>2019-06-26T11:38:10Z</time>
      </trkpt>
      <trkpt lat="45.63565" lon="6.55027">
        <ele>2390.82</ele>
        <time>2019-06-26T11:38:41Z</time>
      </trkpt>
      <trkpt lat="45.63571" lon="6.55036">
        <ele>2389.01</ele>
        <time>2019-06-26T11:38:55Z</time>
      </trkpt>
      <trkpt lat="45.63577" lon="6.55038">
        <ele>2389.34</ele>
        <time>2019-06-26T11:39:02Z</time>
      </trkpt>
      <trkpt lat="45.6359" lon="6.55039">
        <ele>2390.49</ele>
        <time>2019-06-26T11:39:17Z</time>
      </trkpt>
      <trkpt lat="45.63596" lon="6.55042">
        <ele>2390.99</ele>
        <time>2019-06-26T11:39:24Z</time>
      </trkpt>
      <trkpt lat="45.63603" lon="6.55045">
        <ele>2392.11</ele>
        <time>2019-06-26T11:39:41Z</time>
      </trkpt>
      <trkpt lat="45.63604" lon="6.55046">
        <ele>2390.73</ele>
        <time>2019-06-26T11:40:06Z</time>
      </trkpt>
      <trkpt lat="45.63604" lon="6.55046">
        <ele>2391.37</ele>
        <time>2019-06-26T11:40:35Z</time>
      </trkpt>
      <trkpt lat="45.63607" lon="6.55047">
        <ele>2389.63</ele>
        <time>2019-06-26T11:41:04Z</time>
      </trkpt>
      <trkpt lat="45.63614" lon="6.55051">
        <ele>2387.04</ele>
        <time>2019-06-26T11:41:17Z</time>
      </trkpt>
      <trkpt lat="45.63619" lon="6.55054">
        <ele>2384.56</ele>
        <time>2019-06-26T11:41:33Z</time>
      </trkpt>
      <trkpt lat="45.63625" lon="6.55048">
        <ele>2384.29</ele>
        <time>2019-06-26T11:41:48Z</time>
      </trkpt>
      <trkpt lat="45.63627" lon="6.55047">
        <ele>2383.93</ele>
        <time>2019-06-26T11:41:50Z</time>
      </trkpt>
      <trkpt lat="45.63636" lon="6.55047">
        <ele>2381.21</ele>
        <time>2019-06-26T11:42:03Z</time>
      </trkpt>
      <trkpt lat="45.63641" lon="6.55054">
        <ele>2379.18</ele>
        <time>2019-06-26T11:42:18Z</time>
      </trkpt>
      <trkpt lat="45.63642" lon="6.55057">
        <ele>2379.48</ele>
        <time>2019-06-26T11:42:41Z</time>
      </trkpt>
      <trkpt lat="45.63641" lon="6.55059">
        <ele>2378.91</ele>
        <time>2019-06-26T11:43:09Z</time>
      </trkpt>
      <trkpt lat="45.63645" lon="6.5506">
        <ele>2379.66</ele>
        <time>2019-06-26T11:43:27Z</time>
      </trkpt>
      <trkpt lat="45.63645" lon="6.5506">
        <ele>2376.41</ele>
        <time>2019-06-26T11:43:40Z</time>
      </trkpt>
      <trkpt lat="45.63645" lon="6.5506">
        <ele>2379.74</ele>
        <time>2019-06-26T11:43:41Z</time>
      </trkpt>
      <trkpt lat="45.63644" lon="6.55069">
        <ele>2376.71</ele>
        <time>2019-06-26T11:43:53Z</time>
      </trkpt>
      <trkpt lat="45.63646" lon="6.55073">
        <ele>2376.26</ele>
        <time>2019-06-26T11:43:57Z</time>
      </trkpt>
      <trkpt lat="45.63652" lon="6.55083">
        <ele>2375.73</ele>
        <time>2019-06-26T11:44:07Z</time>
      </trkpt>
      <trkpt lat="45.63659" lon="6.55087">
        <ele>2376.01</ele>
        <time>2019-06-26T11:44:13Z</time>
      </trkpt>
      <trkpt lat="45.63662" lon="6.55089">
        <ele>2375.8</ele>
        <time>2019-06-26T11:44:17Z</time>
      </trkpt>
      <trkpt lat="45.6366" lon="6.55084">
        <ele>2374.47</ele>
        <time>2019-06-26T11:44:31Z</time>
      </trkpt>
      <trkpt lat="45.63664" lon="6.55084">
        <ele>2372.83</ele>
        <time>2019-06-26T11:44:46Z</time>
      </trkpt>
      <trkpt lat="45.63671" lon="6.55085">
        <ele>2369.6</ele>
        <time>2019-06-26T11:44:57Z</time>
      </trkpt>
      <trkpt lat="45.63672" lon="6.55085">
        <ele>2369.92</ele>
        <time>2019-06-26T11:45:00Z</time>
      </trkpt>
      <trkpt lat="45.63673" lon="6.5508">
        <ele>2369.33</ele>
        <time>2019-06-26T11:45:17Z</time>
      </trkpt>
      <trkpt lat="45.63677" lon="6.55078">
        <ele>2368.28</ele>
        <time>2019-06-26T11:45:23Z</time>
      </trkpt>
      <trkpt lat="45.63691" lon="6.55071">
        <ele>2365.28</ele>
        <time>2019-06-26T11:45:36Z</time>
      </trkpt>
      <trkpt lat="45.637" lon="6.55066">
        <ele>2362.49</ele>
        <time>2019-06-26T11:45:45Z</time>
      </trkpt>
      <trkpt lat="45.6371" lon="6.55064">
        <ele>2360.62</ele>
        <time>2019-06-26T11:45:57Z</time>
      </trkpt>
      <trkpt lat="45.6371" lon="6.55065">
        <ele>2360.29</ele>
        <time>2019-06-26T11:45:58Z</time>
      </trkpt>
      <trkpt lat="45.63711" lon="6.55082">
        <ele>2361.39</ele>
        <time>2019-06-26T11:46:14Z</time>
      </trkpt>
      <trkpt lat="45.63716" lon="6.55091">
        <ele>2360.91</ele>
        <time>2019-06-26T11:46:27Z</time>
      </trkpt>
      <trkpt lat="45.63717" lon="6.55094">
        <ele>2360.87</ele>
        <time>2019-06-26T11:46:29Z</time>
      </trkpt>
      <trkpt lat="45.63725" lon="6.55101">
        <ele>2360.4</ele>
        <time>2019-06-26T11:46:37Z</time>
      </trkpt>
      <trkpt lat="45.63728" lon="6.55102">
        <ele>2360.15</ele>
        <time>2019-06-26T11:46:40Z</time>
      </trkpt>
      <trkpt lat="45.63738" lon="6.55109">
        <ele>2358.77</ele>
        <time>2019-06-26T11:46:55Z</time>
      </trkpt>
      <trkpt lat="45.63745" lon="6.55115">
        <ele>2358.38</ele>
        <time>2019-06-26T11:47:13Z</time>
      </trkpt>
      <trkpt lat="45.6375" lon="6.55113">
        <ele>2357.87</ele>
        <time>2019-06-26T11:47:20Z</time>
      </trkpt>
      <trkpt lat="45.63757" lon="6.55113">
        <ele>2357.46</ele>
        <time>2019-06-26T11:47:31Z</time>
      </trkpt>
      <trkpt lat="45.63762" lon="6.5511">
        <ele>2357.34</ele>
        <time>2019-06-26T11:47:35Z</time>
      </trkpt>
      <trkpt lat="45.63768" lon="6.55107">
        <ele>2357.11</ele>
        <time>2019-06-26T11:47:40Z</time>
      </trkpt>
      <trkpt lat="45.63778" lon="6.55095">
        <ele>2356.44</ele>
        <time>2019-06-26T11:47:54Z</time>
      </trkpt>
      <trkpt lat="45.63782" lon="6.55085">
        <ele>2355.91</ele>
        <time>2019-06-26T11:48:03Z</time>
      </trkpt>
      <trkpt lat="45.63784" lon="6.55083">
        <ele>2355.58</ele>
        <time>2019-06-26T11:48:05Z</time>
      </trkpt>
      <trkpt lat="45.6379" lon="6.55077">
        <ele>2354.47</ele>
        <time>2019-06-26T11:48:23Z</time>
      </trkpt>
      <trkpt lat="45.63794" lon="6.55073">
        <ele>2353.9</ele>
        <time>2019-06-26T11:48:39Z</time>
      </trkpt>
      <trkpt lat="45.63798" lon="6.55071">
        <ele>2353.03</ele>
        <time>2019-06-26T11:48:44Z</time>
      </trkpt>
      <trkpt lat="45.63807" lon="6.55065">
        <ele>2352.35</ele>
        <time>2019-06-26T11:49:00Z</time>
      </trkpt>
      <trkpt lat="45.63811" lon="6.55058">
        <ele>2350.98</ele>
        <time>2019-06-26T11:49:06Z</time>
      </trkpt>
      <trkpt lat="45.63819" lon="6.55046">
        <ele>2349.64</ele>
        <time>2019-06-26T11:49:16Z</time>
      </trkpt>
      <trkpt lat="45.63829" lon="6.55037">
        <ele>2349.38</ele>
        <time>2019-06-26T11:49:29Z</time>
      </trkpt>
      <trkpt lat="45.63834" lon="6.55032">
        <ele>2348.27</ele>
        <time>2019-06-26T11:49:35Z</time>
      </trkpt>
      <trkpt lat="45.63839" lon="6.5503">
        <ele>2348.4</ele>
        <time>2019-06-26T11:49:40Z</time>
      </trkpt>
      <trkpt lat="45.63856" lon="6.55025">
        <ele>2348.77</ele>
        <time>2019-06-26T11:49:55Z</time>
      </trkpt>
      <trkpt lat="45.63857" lon="6.55025">
        <ele>2348.74</ele>
        <time>2019-06-26T11:49:56Z</time>
      </trkpt>
      <trkpt lat="45.63861" lon="6.55024">
        <ele>2349.03</ele>
        <time>2019-06-26T11:50:12Z</time>
      </trkpt>
      <trkpt lat="45.63861" lon="6.55025">
        <ele>2348.92</ele>
        <time>2019-06-26T11:50:32Z</time>
      </trkpt>
      <trkpt lat="45.6386" lon="6.55025">
        <ele>2349.15</ele>
        <time>2019-06-26T11:50:56Z</time>
      </trkpt>
      <trkpt lat="45.63861" lon="6.55026">
        <ele>2349.05</ele>
        <time>2019-06-26T11:51:18Z</time>
      </trkpt>
      <trkpt lat="45.63861" lon="6.55025">
        <ele>2348.88</ele>
        <time>2019-06-26T11:51:33Z</time>
      </trkpt>
      <trkpt lat="45.63866" lon="6.55026">
        <ele>2347.96</ele>
        <time>2019-06-26T11:51:38Z</time>
      </trkpt>
      <trkpt lat="45.63875" lon="6.55031">
        <ele>2346.77</ele>
        <time>2019-06-26T11:51:50Z</time>
      </trkpt>
      <trkpt lat="45.63877" lon="6.55031">
        <ele>2346.5</ele>
        <time>2019-06-26T11:51:53Z</time>
      </trkpt>
      <trkpt lat="45.63883" lon="6.5503">
        <ele>2344.91</ele>
        <time>2019-06-26T11:52:10Z</time>
      </trkpt>
      <trkpt lat="45.63885" lon="6.55032">
        <ele>2344.86</ele>
        <time>2019-06-26T11:52:20Z</time>
      </trkpt>
      <trkpt lat="45.63892" lon="6.5504">
        <ele>2341.14</ele>
        <time>2019-06-26T11:52:31Z</time>
      </trkpt>
      <trkpt lat="45.63893" lon="6.55041">
        <ele>2340.84</ele>
        <time>2019-06-26T11:52:32Z</time>
      </trkpt>
      <trkpt lat="45.63905" lon="6.55048">
        <ele>2337.87</ele>
        <time>2019-06-26T11:52:45Z</time>
      </trkpt>
      <trkpt lat="45.63911" lon="6.55046">
        <ele>2336.17</ele>
        <time>2019-06-26T11:52:56Z</time>
      </trkpt>
      <trkpt lat="45.63913" lon="6.55051">
        <ele>2333.37</ele>
        <time>2019-06-26T11:53:13Z</time>
      </trkpt>
      <trkpt lat="45.63913" lon="6.55053">
        <ele>2333.19</ele>
        <time>2019-06-26T11:53:14Z</time>
      </trkpt>
      <trkpt lat="45.63917" lon="6.55058">
        <ele>2333.16</ele>
        <time>2019-06-26T11:53:32Z</time>
      </trkpt>
      <trkpt lat="45.63919" lon="6.55064">
        <ele>2331.88</ele>
        <time>2019-06-26T11:53:55Z</time>
      </trkpt>
      <trkpt lat="45.6392" lon="6.55064">
        <ele>2331.07</ele>
        <time>2019-06-26T11:53:57Z</time>
      </trkpt>
      <trkpt lat="45.63923" lon="6.55066">
        <ele>2329.75</ele>
        <time>2019-06-26T11:54:00Z</time>
      </trkpt>
      <trkpt lat="45.63928" lon="6.5507">
        <ele>2327</ele>
        <time>2019-06-26T11:54:06Z</time>
      </trkpt>
      <trkpt lat="45.63937" lon="6.55071">
        <ele>2323.87</ele>
        <time>2019-06-26T11:54:18Z</time>
      </trkpt>
      <trkpt lat="45.63938" lon="6.55071">
        <ele>2323.1</ele>
        <time>2019-06-26T11:54:20Z</time>
      </trkpt>
      <trkpt lat="45.6394" lon="6.55071">
        <ele>2322.4</ele>
        <time>2019-06-26T11:54:22Z</time>
      </trkpt>
      <trkpt lat="45.63941" lon="6.55072">
        <ele>2322.59</ele>
        <time>2019-06-26T11:54:23Z</time>
      </trkpt>
      <trkpt lat="45.63949" lon="6.55083">
        <ele>2322.78</ele>
        <time>2019-06-26T11:54:37Z</time>
      </trkpt>
      <trkpt lat="45.63956" lon="6.5508">
        <ele>2323.44</ele>
        <time>2019-06-26T11:54:56Z</time>
      </trkpt>
      <trkpt lat="45.63961" lon="6.55072">
        <ele>2322.27</ele>
        <time>2019-06-26T11:55:10Z</time>
      </trkpt>
      <trkpt lat="45.63961" lon="6.55072">
        <ele>2322.17</ele>
        <time>2019-06-26T11:55:22Z</time>
      </trkpt>
      <trkpt lat="45.63974" lon="6.55074">
        <ele>2320.35</ele>
        <time>2019-06-26T11:55:36Z</time>
      </trkpt>
      <trkpt lat="45.63976" lon="6.55075">
        <ele>2319.69</ele>
        <time>2019-06-26T11:55:55Z</time>
      </trkpt>
      <trkpt lat="45.63988" lon="6.55081">
        <ele>2316.49</ele>
        <time>2019-06-26T11:56:07Z</time>
      </trkpt>
      <trkpt lat="45.63992" lon="6.55083">
        <ele>2316.01</ele>
        <time>2019-06-26T11:56:16Z</time>
      </trkpt>
      <trkpt lat="45.63995" lon="6.55085">
        <ele>2315.1</ele>
        <time>2019-06-26T11:56:19Z</time>
      </trkpt>
      <trkpt lat="45.64" lon="6.55089">
        <ele>2314</ele>
        <time>2019-06-26T11:56:24Z</time>
      </trkpt>
      <trkpt lat="45.64003" lon="6.55091">
        <ele>2312.74</ele>
        <time>2019-06-26T11:56:27Z</time>
      </trkpt>
      <trkpt lat="45.64015" lon="6.55092">
        <ele>2309.55</ele>
        <time>2019-06-26T11:56:39Z</time>
      </trkpt>
      <trkpt lat="45.64019" lon="6.55093">
        <ele>2309.28</ele>
        <time>2019-06-26T11:56:57Z</time>
      </trkpt>
      <trkpt lat="45.6402" lon="6.55093">
        <ele>2308.88</ele>
        <time>2019-06-26T11:56:58Z</time>
      </trkpt>
      <trkpt lat="45.64027" lon="6.55097">
        <ele>2306.37</ele>
        <time>2019-06-26T11:57:05Z</time>
      </trkpt>
      <trkpt lat="45.64036" lon="6.55108">
        <ele>2303.22</ele>
        <time>2019-06-26T11:57:19Z</time>
      </trkpt>
      <trkpt lat="45.64038" lon="6.55112">
        <ele>2301.92</ele>
        <time>2019-06-26T11:57:25Z</time>
      </trkpt>
      <trkpt lat="45.64043" lon="6.55127">
        <ele>2298.75</ele>
        <time>2019-06-26T11:57:40Z</time>
      </trkpt>
      <trkpt lat="45.64045" lon="6.55132">
        <ele>2297.89</ele>
        <time>2019-06-26T11:57:45Z</time>
      </trkpt>
      <trkpt lat="45.64051" lon="6.5514">
        <ele>2295.24</ele>
        <time>2019-06-26T11:58:00Z</time>
      </trkpt>
      <trkpt lat="45.64055" lon="6.55144">
        <ele>2294.11</ele>
        <time>2019-06-26T11:58:16Z</time>
      </trkpt>
      <trkpt lat="45.64057" lon="6.55147">
        <ele>2293.47</ele>
        <time>2019-06-26T11:58:21Z</time>
      </trkpt>
      <trkpt lat="45.64061" lon="6.55152">
        <ele>2291.57</ele>
        <time>2019-06-26T11:58:26Z</time>
      </trkpt>
      <trkpt lat="45.64066" lon="6.55162">
        <ele>2288.55</ele>
        <time>2019-06-26T11:58:35Z</time>
      </trkpt>
      <trkpt lat="45.64067" lon="6.55163">
        <ele>2288.29</ele>
        <time>2019-06-26T11:58:36Z</time>
      </trkpt>
      <trkpt lat="45.64071" lon="6.55175">
        <ele>2285.23</ele>
        <time>2019-06-26T11:58:45Z</time>
      </trkpt>
      <trkpt lat="45.64071" lon="6.5518">
        <ele>2284.79</ele>
        <time>2019-06-26T11:59:00Z</time>
      </trkpt>
      <trkpt lat="45.64068" lon="6.55183">
        <ele>2283.85</ele>
        <time>2019-06-26T11:59:18Z</time>
      </trkpt>
      <trkpt lat="45.64067" lon="6.55187">
        <ele>2282.92</ele>
        <time>2019-06-26T11:59:21Z</time>
      </trkpt>
      <trkpt lat="45.64069" lon="6.55198">
        <ele>2279.18</ele>
        <time>2019-06-26T11:59:30Z</time>
      </trkpt>
      <trkpt lat="45.64072" lon="6.55208">
        <ele>2276.88</ele>
        <time>2019-06-26T11:59:47Z</time>
      </trkpt>
      <trkpt lat="45.64073" lon="6.55214">
        <ele>2274.68</ele>
        <time>2019-06-26T11:59:53Z</time>
      </trkpt>
      <trkpt lat="45.64077" lon="6.55225">
        <ele>2270.44</ele>
        <time>2019-06-26T12:00:01Z</time>
      </trkpt>
      <trkpt lat="45.64078" lon="6.55228">
        <ele>2269.26</ele>
        <time>2019-06-26T12:00:03Z</time>
      </trkpt>
      <trkpt lat="45.64078" lon="6.55231">
        <ele>2268.88</ele>
        <time>2019-06-26T12:00:05Z</time>
      </trkpt>
      <trkpt lat="45.64079" lon="6.55235">
        <ele>2267.56</ele>
        <time>2019-06-26T12:00:11Z</time>
      </trkpt>
      <trkpt lat="45.64086" lon="6.55248">
        <ele>2264.33</ele>
        <time>2019-06-26T12:00:20Z</time>
      </trkpt>
      <trkpt lat="45.6409" lon="6.55251">
        <ele>2262.82</ele>
        <time>2019-06-26T12:00:25Z</time>
      </trkpt>
      <trkpt lat="45.64092" lon="6.55255">
        <ele>2261.78</ele>
        <time>2019-06-26T12:00:28Z</time>
      </trkpt>
      <trkpt lat="45.64097" lon="6.55261">
        <ele>2260.57</ele>
        <time>2019-06-26T12:00:35Z</time>
      </trkpt>
      <trkpt lat="45.64098" lon="6.55263">
        <ele>2260.07</ele>
        <time>2019-06-26T12:00:37Z</time>
      </trkpt>
      <trkpt lat="45.64101" lon="6.55267">
        <ele>2258.86</ele>
        <time>2019-06-26T12:00:47Z</time>
      </trkpt>
      <trkpt lat="45.64104" lon="6.5527">
        <ele>2257.66</ele>
        <time>2019-06-26T12:00:50Z</time>
      </trkpt>
      <trkpt lat="45.64109" lon="6.55279">
        <ele>2254.97</ele>
        <time>2019-06-26T12:01:04Z</time>
      </trkpt>
      <trkpt lat="45.64111" lon="6.55288">
        <ele>2252.92</ele>
        <time>2019-06-26T12:01:23Z</time>
      </trkpt>
      <trkpt lat="45.64111" lon="6.55289">
        <ele>2252.88</ele>
        <time>2019-06-26T12:01:24Z</time>
      </trkpt>
      <trkpt lat="45.64113" lon="6.55296">
        <ele>2251.12</ele>
        <time>2019-06-26T12:01:29Z</time>
      </trkpt>
      <trkpt lat="45.64114" lon="6.55299">
        <ele>2250.67</ele>
        <time>2019-06-26T12:01:31Z</time>
      </trkpt>
      <trkpt lat="45.64115" lon="6.55303">
        <ele>2249.38</ele>
        <time>2019-06-26T12:01:34Z</time>
      </trkpt>
      <trkpt lat="45.64115" lon="6.55305">
        <ele>2248.41</ele>
        <time>2019-06-26T12:01:36Z</time>
      </trkpt>
      <trkpt lat="45.64119" lon="6.55316">
        <ele>2245.22</ele>
        <time>2019-06-26T12:01:48Z</time>
      </trkpt>
      <trkpt lat="45.64122" lon="6.55322">
        <ele>2242.8</ele>
        <time>2019-06-26T12:01:56Z</time>
      </trkpt>
      <trkpt lat="45.64126" lon="6.5533">
        <ele>2240.71</ele>
        <time>2019-06-26T12:02:04Z</time>
      </trkpt>
      <trkpt lat="45.64129" lon="6.55339">
        <ele>2237.97</ele>
        <time>2019-06-26T12:02:10Z</time>
      </trkpt>
      <trkpt lat="45.64133" lon="6.55348">
        <ele>2235.59</ele>
        <time>2019-06-26T12:02:17Z</time>
      </trkpt>
      <trkpt lat="45.64135" lon="6.55354">
        <ele>2233.3</ele>
        <time>2019-06-26T12:02:22Z</time>
      </trkpt>
      <trkpt lat="45.64139" lon="6.55362">
        <ele>2231.29</ele>
        <time>2019-06-26T12:02:38Z</time>
      </trkpt>
      <trkpt lat="45.6414" lon="6.5537">
        <ele>2229.59</ele>
        <time>2019-06-26T12:02:47Z</time>
      </trkpt>
      <trkpt lat="45.64148" lon="6.5538">
        <ele>2227.17</ele>
        <time>2019-06-26T12:03:02Z</time>
      </trkpt>
      <trkpt lat="45.64149" lon="6.55383">
        <ele>2226.33</ele>
        <time>2019-06-26T12:03:06Z</time>
      </trkpt>
      <trkpt lat="45.64153" lon="6.55396">
        <ele>2223.05</ele>
        <time>2019-06-26T12:03:18Z</time>
      </trkpt>
      <trkpt lat="45.64155" lon="6.554">
        <ele>2222.39</ele>
        <time>2019-06-26T12:03:31Z</time>
      </trkpt>
      <trkpt lat="45.64158" lon="6.55409">
        <ele>2220.85</ele>
        <time>2019-06-26T12:03:41Z</time>
      </trkpt>
      <trkpt lat="45.64159" lon="6.55422">
        <ele>2217.71</ele>
        <time>2019-06-26T12:03:51Z</time>
      </trkpt>
      <trkpt lat="45.64161" lon="6.55435">
        <ele>2214.15</ele>
        <time>2019-06-26T12:04:03Z</time>
      </trkpt>
      <trkpt lat="45.64161" lon="6.55435">
        <ele>2214.06</ele>
        <time>2019-06-26T12:04:04Z</time>
      </trkpt>
      <trkpt lat="45.64166" lon="6.55442">
        <ele>2212.09</ele>
        <time>2019-06-26T12:04:11Z</time>
      </trkpt>
      <trkpt lat="45.64168" lon="6.55447">
        <ele>2209.82</ele>
        <time>2019-06-26T12:04:18Z</time>
      </trkpt>
      <trkpt lat="45.64172" lon="6.55452">
        <ele>2209.11</ele>
        <time>2019-06-26T12:04:35Z</time>
      </trkpt>
      <trkpt lat="45.64172" lon="6.55452">
        <ele>2207.67</ele>
        <time>2019-06-26T12:04:56Z</time>
      </trkpt>
      <trkpt lat="45.64172" lon="6.55452">
        <ele>2207.7</ele>
        <time>2019-06-26T12:05:16Z</time>
      </trkpt>
      <trkpt lat="45.64171" lon="6.55453">
        <ele>2207.13</ele>
        <time>2019-06-26T12:05:38Z</time>
      </trkpt>
      <trkpt lat="45.6417" lon="6.55455">
        <ele>2207.04</ele>
        <time>2019-06-26T12:06:06Z</time>
      </trkpt>
      <trkpt lat="45.64169" lon="6.55453">
        <ele>2207.21</ele>
        <time>2019-06-26T12:06:30Z</time>
      </trkpt>
      <trkpt lat="45.64171" lon="6.55456">
        <ele>2206.84</ele>
        <time>2019-06-26T12:07:05Z</time>
      </trkpt>
      <trkpt lat="45.64175" lon="6.55458">
        <ele>2205.56</ele>
        <time>2019-06-26T12:07:20Z</time>
      </trkpt>
      <trkpt lat="45.64179" lon="6.55463">
        <ele>2204.1</ele>
        <time>2019-06-26T12:07:24Z</time>
      </trkpt>
      <trkpt lat="45.64179" lon="6.55463">
        <ele>2203.89</ele>
        <time>2019-06-26T12:07:25Z</time>
      </trkpt>
      <trkpt lat="45.64182" lon="6.55469">
        <ele>2202.52</ele>
        <time>2019-06-26T12:07:29Z</time>
      </trkpt>
      <trkpt lat="45.64187" lon="6.55471">
        <ele>2200.84</ele>
        <time>2019-06-26T12:07:42Z</time>
      </trkpt>
      <trkpt lat="45.64188" lon="6.55476">
        <ele>2199.58</ele>
        <time>2019-06-26T12:07:48Z</time>
      </trkpt>
      <trkpt lat="45.64189" lon="6.55477">
        <ele>2199.26</ele>
        <time>2019-06-26T12:07:49Z</time>
      </trkpt>
      <trkpt lat="45.64191" lon="6.55484">
        <ele>2197.5</ele>
        <time>2019-06-26T12:07:55Z</time>
      </trkpt>
      <trkpt lat="45.64189" lon="6.55488">
        <ele>2195.99</ele>
        <time>2019-06-26T12:07:58Z</time>
      </trkpt>
      <trkpt lat="45.64189" lon="6.55493">
        <ele>2194.92</ele>
        <time>2019-06-26T12:08:02Z</time>
      </trkpt>
      <trkpt lat="45.6419" lon="6.55509">
        <ele>2191.45</ele>
        <time>2019-06-26T12:08:15Z</time>
      </trkpt>
      <trkpt lat="45.64192" lon="6.55514">
        <ele>2190.09</ele>
        <time>2019-06-26T12:08:20Z</time>
      </trkpt>
      <trkpt lat="45.64196" lon="6.55522">
        <ele>2187.67</ele>
        <time>2019-06-26T12:08:26Z</time>
      </trkpt>
      <trkpt lat="45.64201" lon="6.55529">
        <ele>2185.38</ele>
        <time>2019-06-26T12:08:33Z</time>
      </trkpt>
      <trkpt lat="45.64204" lon="6.55534">
        <ele>2184.51</ele>
        <time>2019-06-26T12:08:48Z</time>
      </trkpt>
      <trkpt lat="45.64208" lon="6.55548">
        <ele>2180.89</ele>
        <time>2019-06-26T12:09:01Z</time>
      </trkpt>
      <trkpt lat="45.64207" lon="6.55558">
        <ele>2178.91</ele>
        <time>2019-06-26T12:09:09Z</time>
      </trkpt>
      <trkpt lat="45.64208" lon="6.55568">
        <ele>2176.66</ele>
        <time>2019-06-26T12:09:15Z</time>
      </trkpt>
      <trkpt lat="45.64207" lon="6.55571">
        <ele>2176.34</ele>
        <time>2019-06-26T12:09:17Z</time>
      </trkpt>
      <trkpt lat="45.64209" lon="6.55575">
        <ele>2175.68</ele>
        <time>2019-06-26T12:09:21Z</time>
      </trkpt>
      <trkpt lat="45.64212" lon="6.55579">
        <ele>2175</ele>
        <time>2019-06-26T12:09:25Z</time>
      </trkpt>
      <trkpt lat="45.64217" lon="6.55589">
        <ele>2172.7</ele>
        <time>2019-06-26T12:09:34Z</time>
      </trkpt>
      <trkpt lat="45.64227" lon="6.55601">
        <ele>2169.53</ele>
        <time>2019-06-26T12:09:48Z</time>
      </trkpt>
      <trkpt lat="45.64236" lon="6.55613">
        <ele>2167.77</ele>
        <time>2019-06-26T12:09:58Z</time>
      </trkpt>
      <trkpt lat="45.64248" lon="6.55639">
        <ele>2166.24</ele>
        <time>2019-06-26T12:10:15Z</time>
      </trkpt>
      <trkpt lat="45.64252" lon="6.55644">
        <ele>2167.41</ele>
        <time>2019-06-26T12:10:21Z</time>
      </trkpt>
      <trkpt lat="45.64255" lon="6.55659">
        <ele>2165.58</ele>
        <time>2019-06-26T12:10:31Z</time>
      </trkpt>
      <trkpt lat="45.64263" lon="6.5567">
        <ele>2165.12</ele>
        <time>2019-06-26T12:10:41Z</time>
      </trkpt>
      <trkpt lat="45.64264" lon="6.55675">
        <ele>2164.6</ele>
        <time>2019-06-26T12:10:44Z</time>
      </trkpt>
      <trkpt lat="45.64266" lon="6.55679">
        <ele>2164.43</ele>
        <time>2019-06-26T12:10:47Z</time>
      </trkpt>
      <trkpt lat="45.64267" lon="6.55685">
        <ele>2164.09</ele>
        <time>2019-06-26T12:10:51Z</time>
      </trkpt>
      <trkpt lat="45.64268" lon="6.55687">
        <ele>2164.48</ele>
        <time>2019-06-26T12:10:53Z</time>
      </trkpt>
      <trkpt lat="45.64269" lon="6.55695">
        <ele>2162.65</ele>
        <time>2019-06-26T12:10:59Z</time>
      </trkpt>
      <trkpt lat="45.64272" lon="6.557">
        <ele>2161.28</ele>
        <time>2019-06-26T12:11:05Z</time>
      </trkpt>
      <trkpt lat="45.64272" lon="6.55706">
        <ele>2160.28</ele>
        <time>2019-06-26T12:11:10Z</time>
      </trkpt>
      <trkpt lat="45.64272" lon="6.55714">
        <ele>2158.29</ele>
        <time>2019-06-26T12:11:15Z</time>
      </trkpt>
      <trkpt lat="45.64274" lon="6.55729">
        <ele>2155.4</ele>
        <time>2019-06-26T12:11:28Z</time>
      </trkpt>
      <trkpt lat="45.64276" lon="6.55739">
        <ele>2152.49</ele>
        <time>2019-06-26T12:11:38Z</time>
      </trkpt>
      <trkpt lat="45.64281" lon="6.55754">
        <ele>2149.63</ele>
        <time>2019-06-26T12:11:49Z</time>
      </trkpt>
      <trkpt lat="45.64281" lon="6.55756">
        <ele>2149.03</ele>
        <time>2019-06-26T12:11:50Z</time>
      </trkpt>
      <trkpt lat="45.64281" lon="6.55771">
        <ele>2145.51</ele>
        <time>2019-06-26T12:12:03Z</time>
      </trkpt>
      <trkpt lat="45.64279" lon="6.55774">
        <ele>2144.73</ele>
        <time>2019-06-26T12:12:05Z</time>
      </trkpt>
      <trkpt lat="45.64279" lon="6.55785">
        <ele>2142.09</ele>
        <time>2019-06-26T12:12:11Z</time>
      </trkpt>
      <trkpt lat="45.6428" lon="6.55789">
        <ele>2141.94</ele>
        <time>2019-06-26T12:12:13Z</time>
      </trkpt>
      <trkpt lat="45.64279" lon="6.55796">
        <ele>2140.34</ele>
        <time>2019-06-26T12:12:17Z</time>
      </trkpt>
      <trkpt lat="45.6428" lon="6.55803">
        <ele>2139.4</ele>
        <time>2019-06-26T12:12:31Z</time>
      </trkpt>
      <trkpt lat="45.64279" lon="6.55803">
        <ele>2139.06</ele>
        <time>2019-06-26T12:12:53Z</time>
      </trkpt>
      <trkpt lat="45.64279" lon="6.55803">
        <ele>2139.17</ele>
        <time>2019-06-26T12:13:03Z</time>
      </trkpt>
      <trkpt lat="45.64281" lon="6.55809">
        <ele>2138.28</ele>
        <time>2019-06-26T12:13:07Z</time>
      </trkpt>
      <trkpt lat="45.64287" lon="6.55817">
        <ele>2137.66</ele>
        <time>2019-06-26T12:13:14Z</time>
      </trkpt>
      <trkpt lat="45.64288" lon="6.55836">
        <ele>2136.34</ele>
        <time>2019-06-26T12:13:27Z</time>
      </trkpt>
      <trkpt lat="45.64296" lon="6.55848">
        <ele>2134.68</ele>
        <time>2019-06-26T12:13:37Z</time>
      </trkpt>
      <trkpt lat="45.64306" lon="6.55865">
        <ele>2133.39</ele>
        <time>2019-06-26T12:13:50Z</time>
      </trkpt>
      <trkpt lat="45.64311" lon="6.55872">
        <ele>2133.07</ele>
        <time>2019-06-26T12:13:57Z</time>
      </trkpt>
      <trkpt lat="45.64313" lon="6.55872">
        <ele>2133.09</ele>
        <time>2019-06-26T12:13:59Z</time>
      </trkpt>
      <trkpt lat="45.64321" lon="6.55878">
        <ele>2131.45</ele>
        <time>2019-06-26T12:14:08Z</time>
      </trkpt>
      <trkpt lat="45.64325" lon="6.55883">
        <ele>2130.71</ele>
        <time>2019-06-26T12:14:12Z</time>
      </trkpt>
      <trkpt lat="45.6433" lon="6.55893">
        <ele>2130.63</ele>
        <time>2019-06-26T12:14:27Z</time>
      </trkpt>
      <trkpt lat="45.6433" lon="6.55893">
        <ele>2129.87</ele>
        <time>2019-06-26T12:14:44Z</time>
      </trkpt>
      <trkpt lat="45.64331" lon="6.55889">
        <ele>2129.83</ele>
        <time>2019-06-26T12:15:20Z</time>
      </trkpt>
      <trkpt lat="45.64332" lon="6.5589">
        <ele>2129.2</ele>
        <time>2019-06-26T12:15:54Z</time>
      </trkpt>
      <trkpt lat="45.64333" lon="6.5589">
        <ele>2129.35</ele>
        <time>2019-06-26T12:16:34Z</time>
      </trkpt>
      <trkpt lat="45.64333" lon="6.55891">
        <ele>2129.14</ele>
        <time>2019-06-26T12:17:23Z</time>
      </trkpt>
      <trkpt lat="45.64334" lon="6.55892">
        <ele>2128.98</ele>
        <time>2019-06-26T12:18:05Z</time>
      </trkpt>
      <trkpt lat="45.64335" lon="6.5589">
        <ele>2129</ele>
        <time>2019-06-26T12:18:42Z</time>
      </trkpt>
      <trkpt lat="45.64336" lon="6.55891">
        <ele>2128.84</ele>
        <time>2019-06-26T12:19:29Z</time>
      </trkpt>
      <trkpt lat="45.64336" lon="6.5589">
        <ele>2128.61</ele>
        <time>2019-06-26T12:20:14Z</time>
      </trkpt>
      <trkpt lat="45.64337" lon="6.55891">
        <ele>2128.61</ele>
        <time>2019-06-26T12:20:52Z</time>
      </trkpt>
      <trkpt lat="45.64337" lon="6.55892">
        <ele>2128.23</ele>
        <time>2019-06-26T12:21:25Z</time>
      </trkpt>
      <trkpt lat="45.64337" lon="6.55892">
        <ele>2128.04</ele>
        <time>2019-06-26T12:22:00Z</time>
      </trkpt>
      <trkpt lat="45.64336" lon="6.55893">
        <ele>2128.21</ele>
        <time>2019-06-26T12:22:39Z</time>
      </trkpt>
      <trkpt lat="45.64336" lon="6.55892">
        <ele>2128.02</ele>
        <time>2019-06-26T12:23:19Z</time>
      </trkpt>
      <trkpt lat="45.64337" lon="6.55892">
        <ele>2127.9</ele>
        <time>2019-06-26T12:23:55Z</time>
      </trkpt>
      <trkpt lat="45.64336" lon="6.55892">
        <ele>2128.58</ele>
        <time>2019-06-26T12:24:27Z</time>
      </trkpt>
      <trkpt lat="45.64333" lon="6.55895">
        <ele>2129.09</ele>
        <time>2019-06-26T12:24:49Z</time>
      </trkpt>
      <trkpt lat="45.64334" lon="6.55895">
        <ele>2128.73</ele>
        <time>2019-06-26T12:25:08Z</time>
      </trkpt>
      <trkpt lat="45.6434" lon="6.55896">
        <ele>2126.39</ele>
        <time>2019-06-26T12:25:23Z</time>
      </trkpt>
      <trkpt lat="45.64344" lon="6.55896">
        <ele>2126.37</ele>
        <time>2019-06-26T12:25:30Z</time>
      </trkpt>
      <trkpt lat="45.64354" lon="6.55901">
        <ele>2126.72</ele>
        <time>2019-06-26T12:25:41Z</time>
      </trkpt>
      <trkpt lat="45.6436" lon="6.55905">
        <ele>2124.93</ele>
        <time>2019-06-26T12:25:48Z</time>
      </trkpt>
      <trkpt lat="45.6437" lon="6.55917">
        <ele>2121.78</ele>
        <time>2019-06-26T12:26:02Z</time>
      </trkpt>
      <trkpt lat="45.64377" lon="6.55926">
        <ele>2120.7</ele>
        <time>2019-06-26T12:26:13Z</time>
      </trkpt>
      <trkpt lat="45.64379" lon="6.5593">
        <ele>2117.67</ele>
        <time>2019-06-26T12:26:18Z</time>
      </trkpt>
      <trkpt lat="45.64386" lon="6.55933">
        <ele>2114.97</ele>
        <time>2019-06-26T12:26:28Z</time>
      </trkpt>
      <trkpt lat="45.6439" lon="6.55934">
        <ele>2113.9</ele>
        <time>2019-06-26T12:26:32Z</time>
      </trkpt>
      <trkpt lat="45.644" lon="6.55947">
        <ele>2110.39</ele>
        <time>2019-06-26T12:26:43Z</time>
      </trkpt>
      <trkpt lat="45.64407" lon="6.5596">
        <ele>2107.65</ele>
        <time>2019-06-26T12:26:54Z</time>
      </trkpt>
      <trkpt lat="45.64412" lon="6.55976">
        <ele>2104.45</ele>
        <time>2019-06-26T12:27:07Z</time>
      </trkpt>
      <trkpt lat="45.64415" lon="6.55979">
        <ele>2103.57</ele>
        <time>2019-06-26T12:27:12Z</time>
      </trkpt>
      <trkpt lat="45.64423" lon="6.55986">
        <ele>2100.46</ele>
        <time>2019-06-26T12:27:21Z</time>
      </trkpt>
      <trkpt lat="45.64427" lon="6.55996">
        <ele>2098.51</ele>
        <time>2019-06-26T12:27:28Z</time>
      </trkpt>
      <trkpt lat="45.64435" lon="6.56008">
        <ele>2096.65</ele>
        <time>2019-06-26T12:27:38Z</time>
      </trkpt>
      <trkpt lat="45.64442" lon="6.56019">
        <ele>2093.7</ele>
        <time>2019-06-26T12:27:52Z</time>
      </trkpt>
      <trkpt lat="45.64445" lon="6.56028">
        <ele>2090.9</ele>
        <time>2019-06-26T12:28:04Z</time>
      </trkpt>
      <trkpt lat="45.64447" lon="6.56032">
        <ele>2089.41</ele>
        <time>2019-06-26T12:28:08Z</time>
      </trkpt>
      <trkpt lat="45.64447" lon="6.56042">
        <ele>2087.64</ele>
        <time>2019-06-26T12:28:18Z</time>
      </trkpt>
      <trkpt lat="45.64449" lon="6.56051">
        <ele>2087.07</ele>
        <time>2019-06-26T12:28:24Z</time>
      </trkpt>
      <trkpt lat="45.64456" lon="6.56063">
        <ele>2083.82</ele>
        <time>2019-06-26T12:28:35Z</time>
      </trkpt>
      <trkpt lat="45.64458" lon="6.56068">
        <ele>2083.22</ele>
        <time>2019-06-26T12:28:38Z</time>
      </trkpt>
      <trkpt lat="45.64462" lon="6.56087">
        <ele>2081.38</ele>
        <time>2019-06-26T12:28:51Z</time>
      </trkpt>
      <trkpt lat="45.64468" lon="6.56099">
        <ele>2078.07</ele>
        <time>2019-06-26T12:29:05Z</time>
      </trkpt>
      <trkpt lat="45.64475" lon="6.56108">
        <ele>2074.99</ele>
        <time>2019-06-26T12:29:17Z</time>
      </trkpt>
      <trkpt lat="45.6448" lon="6.56119">
        <ele>2071.79</ele>
        <time>2019-06-26T12:29:30Z</time>
      </trkpt>
      <trkpt lat="45.64486" lon="6.56128">
        <ele>2069.11</ele>
        <time>2019-06-26T12:29:40Z</time>
      </trkpt>
      <trkpt lat="45.64494" lon="6.56138">
        <ele>2065.56</ele>
        <time>2019-06-26T12:29:53Z</time>
      </trkpt>
      <trkpt lat="45.64493" lon="6.5614">
        <ele>2065.07</ele>
        <time>2019-06-26T12:29:55Z</time>
      </trkpt>
      <trkpt lat="45.6449" lon="6.56148">
        <ele>2063.5</ele>
        <time>2019-06-26T12:30:05Z</time>
      </trkpt>
      <trkpt lat="45.64497" lon="6.56155">
        <ele>2061.32</ele>
        <time>2019-06-26T12:30:15Z</time>
      </trkpt>
      <trkpt lat="45.64498" lon="6.56161">
        <ele>2060.88</ele>
        <time>2019-06-26T12:30:19Z</time>
      </trkpt>
      <trkpt lat="45.64499" lon="6.56165">
        <ele>2059.89</ele>
        <time>2019-06-26T12:30:22Z</time>
      </trkpt>
      <trkpt lat="45.64505" lon="6.5618">
        <ele>2057.19</ele>
        <time>2019-06-26T12:30:35Z</time>
      </trkpt>
      <trkpt lat="45.64508" lon="6.56188">
        <ele>2055.48</ele>
        <time>2019-06-26T12:30:42Z</time>
      </trkpt>
      <trkpt lat="45.6451" lon="6.56195">
        <ele>2054.4</ele>
        <time>2019-06-26T12:30:47Z</time>
      </trkpt>
      <trkpt lat="45.64514" lon="6.56204">
        <ele>2053.82</ele>
        <time>2019-06-26T12:30:54Z</time>
      </trkpt>
      <trkpt lat="45.64516" lon="6.56212">
        <ele>2052.89</ele>
        <time>2019-06-26T12:30:59Z</time>
      </trkpt>
      <trkpt lat="45.64517" lon="6.56217">
        <ele>2052.37</ele>
        <time>2019-06-26T12:31:02Z</time>
      </trkpt>
      <trkpt lat="45.64522" lon="6.56225">
        <ele>2050.73</ele>
        <time>2019-06-26T12:31:09Z</time>
      </trkpt>
      <trkpt lat="45.64526" lon="6.56233">
        <ele>2049.34</ele>
        <time>2019-06-26T12:31:16Z</time>
      </trkpt>
      <trkpt lat="45.64527" lon="6.56236">
        <ele>2048.84</ele>
        <time>2019-06-26T12:31:18Z</time>
      </trkpt>
      <trkpt lat="45.64533" lon="6.56258">
        <ele>2046.4</ele>
        <time>2019-06-26T12:31:33Z</time>
      </trkpt>
      <trkpt lat="45.64542" lon="6.56271">
        <ele>2044.36</ele>
        <time>2019-06-26T12:31:44Z</time>
      </trkpt>
      <trkpt lat="45.6455" lon="6.56282">
        <ele>2042.53</ele>
        <time>2019-06-26T12:31:54Z</time>
      </trkpt>
      <trkpt lat="45.64552" lon="6.56288">
        <ele>2041.92</ele>
        <time>2019-06-26T12:31:59Z</time>
      </trkpt>
      <trkpt lat="45.64556" lon="6.56297">
        <ele>2040.23</ele>
        <time>2019-06-26T12:32:06Z</time>
      </trkpt>
      <trkpt lat="45.6456" lon="6.56304">
        <ele>2038.94</ele>
        <time>2019-06-26T12:32:12Z</time>
      </trkpt>
      <trkpt lat="45.6457" lon="6.56322">
        <ele>2036.1</ele>
        <time>2019-06-26T12:32:26Z</time>
      </trkpt>
      <trkpt lat="45.64575" lon="6.56346">
        <ele>2032.84</ele>
        <time>2019-06-26T12:32:41Z</time>
      </trkpt>
      <trkpt lat="45.64579" lon="6.56359">
        <ele>2031.08</ele>
        <time>2019-06-26T12:32:50Z</time>
      </trkpt>
      <trkpt lat="45.64584" lon="6.56375">
        <ele>2028.15</ele>
        <time>2019-06-26T12:33:03Z</time>
      </trkpt>
      <trkpt lat="45.64588" lon="6.56379">
        <ele>2027.29</ele>
        <time>2019-06-26T12:33:08Z</time>
      </trkpt>
      <trkpt lat="45.64594" lon="6.56396">
        <ele>2023.89</ele>
        <time>2019-06-26T12:33:22Z</time>
      </trkpt>
      <trkpt lat="45.64601" lon="6.56409">
        <ele>2020.8</ele>
        <time>2019-06-26T12:33:34Z</time>
      </trkpt>
      <trkpt lat="45.64608" lon="6.56422">
        <ele>2017.75</ele>
        <time>2019-06-26T12:33:46Z</time>
      </trkpt>
      <trkpt lat="45.64609" lon="6.56426">
        <ele>2015.71</ele>
        <time>2019-06-26T12:33:50Z</time>
      </trkpt>
      <trkpt lat="45.64611" lon="6.56428">
        <ele>2015.19</ele>
        <time>2019-06-26T12:33:52Z</time>
      </trkpt>
      <trkpt lat="45.64619" lon="6.56445">
        <ele>2011.7</ele>
        <time>2019-06-26T12:34:05Z</time>
      </trkpt>
      <trkpt lat="45.64623" lon="6.56452">
        <ele>2010.51</ele>
        <time>2019-06-26T12:34:11Z</time>
      </trkpt>
      <trkpt lat="45.64628" lon="6.56459">
        <ele>2009.46</ele>
        <time>2019-06-26T12:34:17Z</time>
      </trkpt>
      <trkpt lat="45.64634" lon="6.56477">
        <ele>2006.92</ele>
        <time>2019-06-26T12:34:30Z</time>
      </trkpt>
      <trkpt lat="45.64635" lon="6.56482">
        <ele>2006.35</ele>
        <time>2019-06-26T12:34:34Z</time>
      </trkpt>
      <trkpt lat="45.64631" lon="6.56499">
        <ele>2004.79</ele>
        <time>2019-06-26T12:34:45Z</time>
      </trkpt>
      <trkpt lat="45.64634" lon="6.56508">
        <ele>2004.94</ele>
        <time>2019-06-26T12:34:52Z</time>
      </trkpt>
      <trkpt lat="45.64639" lon="6.56514">
        <ele>2004.75</ele>
        <time>2019-06-26T12:34:58Z</time>
      </trkpt>
      <trkpt lat="45.64647" lon="6.56517">
        <ele>2003.96</ele>
        <time>2019-06-26T12:35:05Z</time>
      </trkpt>
      <trkpt lat="45.64655" lon="6.56522">
        <ele>2003.11</ele>
        <time>2019-06-26T12:35:12Z</time>
      </trkpt>
      <trkpt lat="45.64668" lon="6.56523">
        <ele>2001.18</ele>
        <time>2019-06-26T12:35:27Z</time>
      </trkpt>
      <trkpt lat="45.64672" lon="6.5652">
        <ele>1999.39</ele>
        <time>2019-06-26T12:35:41Z</time>
      </trkpt>
      <trkpt lat="45.64673" lon="6.56519">
        <ele>1998.52</ele>
        <time>2019-06-26T12:35:57Z</time>
      </trkpt>
      <trkpt lat="45.64672" lon="6.56522">
        <ele>1998.89</ele>
        <time>2019-06-26T12:36:18Z</time>
      </trkpt>
      <trkpt lat="45.64674" lon="6.56522">
        <ele>1998.53</ele>
        <time>2019-06-26T12:36:45Z</time>
      </trkpt>
      <trkpt lat="45.64675" lon="6.56522">
        <ele>1998.79</ele>
        <time>2019-06-26T12:37:13Z</time>
      </trkpt>
      <trkpt lat="45.64674" lon="6.56522">
        <ele>1998.8</ele>
        <time>2019-06-26T12:37:30Z</time>
      </trkpt>
      <trkpt lat="45.64674" lon="6.56522">
        <ele>1998.17</ele>
        <time>2019-06-26T12:37:52Z</time>
      </trkpt>
      <trkpt lat="45.64676" lon="6.56526">
        <ele>1997.17</ele>
        <time>2019-06-26T12:37:58Z</time>
      </trkpt>
      <trkpt lat="45.64678" lon="6.56521">
        <ele>1997.21</ele>
        <time>2019-06-26T12:38:02Z</time>
      </trkpt>
      <trkpt lat="45.64674" lon="6.56512">
        <ele>1996.19</ele>
        <time>2019-06-26T12:38:09Z</time>
      </trkpt>
      <trkpt lat="45.64679" lon="6.56501">
        <ele>1994.58</ele>
        <time>2019-06-26T12:38:20Z</time>
      </trkpt>
      <trkpt lat="45.64694" lon="6.56499">
        <ele>1991.03</ele>
        <time>2019-06-26T12:38:35Z</time>
      </trkpt>
      <trkpt lat="45.64702" lon="6.56494">
        <ele>1990.3</ele>
        <time>2019-06-26T12:38:51Z</time>
      </trkpt>
      <trkpt lat="45.64709" lon="6.56484">
        <ele>1992.58</ele>
        <time>2019-06-26T12:39:05Z</time>
      </trkpt>
      <trkpt lat="45.64719" lon="6.56482">
        <ele>1990.87</ele>
        <time>2019-06-26T12:39:23Z</time>
      </trkpt>
      <trkpt lat="45.64721" lon="6.56479">
        <ele>1989.9</ele>
        <time>2019-06-26T12:39:27Z</time>
      </trkpt>
      <trkpt lat="45.64726" lon="6.56474">
        <ele>1988.12</ele>
        <time>2019-06-26T12:39:37Z</time>
      </trkpt>
      <trkpt lat="45.64733" lon="6.5648">
        <ele>1989.86</ele>
        <time>2019-06-26T12:39:50Z</time>
      </trkpt>
      <trkpt lat="45.64737" lon="6.56476">
        <ele>1993.03</ele>
        <time>2019-06-26T12:40:03Z</time>
      </trkpt>
      <trkpt lat="45.64743" lon="6.56483">
        <ele>1994.06</ele>
        <time>2019-06-26T12:40:16Z</time>
      </trkpt>
      <trkpt lat="45.64746" lon="6.56482">
        <ele>1994.29</ele>
        <time>2019-06-26T12:40:19Z</time>
      </trkpt>
      <trkpt lat="45.64758" lon="6.56476">
        <ele>1996.13</ele>
        <time>2019-06-26T12:40:34Z</time>
      </trkpt>
      <trkpt lat="45.64759" lon="6.56477">
        <ele>1995.71</ele>
        <time>2019-06-26T12:40:47Z</time>
      </trkpt>
      <trkpt lat="45.6476" lon="6.56479">
        <ele>1995.23</ele>
        <time>2019-06-26T12:40:49Z</time>
      </trkpt>
      <trkpt lat="45.64766" lon="6.56486">
        <ele>1996.03</ele>
        <time>2019-06-26T12:41:03Z</time>
      </trkpt>
      <trkpt lat="45.64771" lon="6.56488">
        <ele>1996.26</ele>
        <time>2019-06-26T12:41:11Z</time>
      </trkpt>
      <trkpt lat="45.64783" lon="6.56493">
        <ele>1997.3</ele>
        <time>2019-06-26T12:41:25Z</time>
      </trkpt>
      <trkpt lat="45.64787" lon="6.56493">
        <ele>1997.87</ele>
        <time>2019-06-26T12:41:29Z</time>
      </trkpt>
      <trkpt lat="45.64803" lon="6.5649">
        <ele>1998.15</ele>
        <time>2019-06-26T12:41:45Z</time>
      </trkpt>
      <trkpt lat="45.64809" lon="6.56487">
        <ele>1998.65</ele>
        <time>2019-06-26T12:41:51Z</time>
      </trkpt>
      <trkpt lat="45.64812" lon="6.56487">
        <ele>1998.67</ele>
        <time>2019-06-26T12:41:53Z</time>
      </trkpt>
      <trkpt lat="45.64827" lon="6.56479">
        <ele>1999.91</ele>
        <time>2019-06-26T12:42:09Z</time>
      </trkpt>
      <trkpt lat="45.6484" lon="6.56475">
        <ele>2001.42</ele>
        <time>2019-06-26T12:42:22Z</time>
      </trkpt>
      <trkpt lat="45.64853" lon="6.56477">
        <ele>2002.84</ele>
        <time>2019-06-26T12:42:36Z</time>
      </trkpt>
      <trkpt lat="45.64869" lon="6.56483">
        <ele>2003.84</ele>
        <time>2019-06-26T12:42:52Z</time>
      </trkpt>
      <trkpt lat="45.64874" lon="6.56485">
        <ele>2004.12</ele>
        <time>2019-06-26T12:42:57Z</time>
      </trkpt>
      <trkpt lat="45.64885" lon="6.56491">
        <ele>2004.99</ele>
        <time>2019-06-26T12:43:11Z</time>
      </trkpt>
      <trkpt lat="45.64888" lon="6.56491">
        <ele>2005.22</ele>
        <time>2019-06-26T12:43:14Z</time>
      </trkpt>
      <trkpt lat="45.64903" lon="6.56492">
        <ele>2006.18</ele>
        <time>2019-06-26T12:43:29Z</time>
      </trkpt>
      <trkpt lat="45.64911" lon="6.56493">
        <ele>2007.37</ele>
        <time>2019-06-26T12:43:43Z</time>
      </trkpt>
      <trkpt lat="45.64919" lon="6.5649">
        <ele>2007.32</ele>
        <time>2019-06-26T12:44:04Z</time>
      </trkpt>
      <trkpt lat="45.64921" lon="6.56487">
        <ele>2006.38</ele>
        <time>2019-06-26T12:44:21Z</time>
      </trkpt>
      <trkpt lat="45.64923" lon="6.56487">
        <ele>2005.86</ele>
        <time>2019-06-26T12:44:56Z</time>
      </trkpt>
      <trkpt lat="45.64924" lon="6.56487">
        <ele>2005.64</ele>
        <time>2019-06-26T12:45:52Z</time>
      </trkpt>
      <trkpt lat="45.64925" lon="6.56484">
        <ele>2004.61</ele>
        <time>2019-06-26T12:46:50Z</time>
      </trkpt>
      <trkpt lat="45.64925" lon="6.56483">
        <ele>2004.46</ele>
        <time>2019-06-26T12:47:42Z</time>
      </trkpt>
      <trkpt lat="45.64924" lon="6.56485">
        <ele>2004</ele>
        <time>2019-06-26T12:48:24Z</time>
      </trkpt>
      <trkpt lat="45.64924" lon="6.56486">
        <ele>2003.84</ele>
        <time>2019-06-26T12:49:04Z</time>
      </trkpt>
      <trkpt lat="45.64922" lon="6.56489">
        <ele>2004.3</ele>
        <time>2019-06-26T12:49:52Z</time>
      </trkpt>
      <trkpt lat="45.64922" lon="6.56491">
        <ele>2003.35</ele>
        <time>2019-06-26T12:50:36Z</time>
      </trkpt>
      <trkpt lat="45.64922" lon="6.56491">
        <ele>2003.56</ele>
        <time>2019-06-26T12:51:16Z</time>
      </trkpt>
      <trkpt lat="45.64921" lon="6.5649">
        <ele>2003.16</ele>
        <time>2019-06-26T12:51:59Z</time>
      </trkpt>
      <trkpt lat="45.64923" lon="6.56489">
        <ele>2003.27</ele>
        <time>2019-06-26T12:52:36Z</time>
      </trkpt>
      <trkpt lat="45.64924" lon="6.56489">
        <ele>2003.33</ele>
        <time>2019-06-26T12:53:17Z</time>
      </trkpt>
      <trkpt lat="45.64923" lon="6.56489">
        <ele>2002.97</ele>
        <time>2019-06-26T12:54:00Z</time>
      </trkpt>
      <trkpt lat="45.64926" lon="6.56489">
        <ele>2002.53</ele>
        <time>2019-06-26T12:54:29Z</time>
      </trkpt>
      <trkpt lat="45.64928" lon="6.56491">
        <ele>2002.77</ele>
        <time>2019-06-26T12:54:56Z</time>
      </trkpt>
      <trkpt lat="45.64928" lon="6.56493">
        <ele>2002.81</ele>
        <time>2019-06-26T12:55:25Z</time>
      </trkpt>
      <trkpt lat="45.64927" lon="6.56494">
        <ele>2002.62</ele>
        <time>2019-06-26T12:55:50Z</time>
      </trkpt>
      <trkpt lat="45.64928" lon="6.56495">
        <ele>2002.35</ele>
        <time>2019-06-26T12:56:21Z</time>
      </trkpt>
      <trkpt lat="45.64927" lon="6.56495">
        <ele>2002.49</ele>
        <time>2019-06-26T12:56:49Z</time>
      </trkpt>
      <trkpt lat="45.64927" lon="6.56496">
        <ele>2002.16</ele>
        <time>2019-06-26T12:57:19Z</time>
      </trkpt>
      <trkpt lat="45.64927" lon="6.56495">
        <ele>2002.41</ele>
        <time>2019-06-26T12:57:50Z</time>
      </trkpt>
      <trkpt lat="45.64927" lon="6.56494">
        <ele>2002.41</ele>
        <time>2019-06-26T12:58:24Z</time>
      </trkpt>
      <trkpt lat="45.64926" lon="6.56494">
        <ele>2002.36</ele>
        <time>2019-06-26T12:58:52Z</time>
      </trkpt>
      <trkpt lat="45.64928" lon="6.56494">
        <ele>2002.56</ele>
        <time>2019-06-26T12:59:16Z</time>
      </trkpt>
      <trkpt lat="45.64929" lon="6.56494">
        <ele>2002.3</ele>
        <time>2019-06-26T12:59:41Z</time>
      </trkpt>
      <trkpt lat="45.6493" lon="6.56496">
        <ele>2002.44</ele>
        <time>2019-06-26T13:00:07Z</time>
      </trkpt>
      <trkpt lat="45.64927" lon="6.56493">
        <ele>2002.35</ele>
        <time>2019-06-26T13:00:36Z</time>
      </trkpt>
      <trkpt lat="45.64927" lon="6.56494">
        <ele>2001.99</ele>
        <time>2019-06-26T13:01:06Z</time>
      </trkpt>
      <trkpt lat="45.64926" lon="6.56492">
        <ele>2002.28</ele>
        <time>2019-06-26T13:01:33Z</time>
      </trkpt>
      <trkpt lat="45.64928" lon="6.5649">
        <ele>2002.16</ele>
        <time>2019-06-26T13:02:01Z</time>
      </trkpt>
      <trkpt lat="45.64929" lon="6.56489">
        <ele>2002.12</ele>
        <time>2019-06-26T13:02:27Z</time>
      </trkpt>
      <trkpt lat="45.64929" lon="6.56488">
        <ele>2002.12</ele>
        <time>2019-06-26T13:02:52Z</time>
      </trkpt>
      <trkpt lat="45.64931" lon="6.5649">
        <ele>2001.9</ele>
        <time>2019-06-26T13:03:17Z</time>
      </trkpt>
      <trkpt lat="45.64927" lon="6.5649">
        <ele>2001.74</ele>
        <time>2019-06-26T13:03:42Z</time>
      </trkpt>
      <trkpt lat="45.64926" lon="6.56489">
        <ele>2001.61</ele>
        <time>2019-06-26T13:04:08Z</time>
      </trkpt>
      <trkpt lat="45.64929" lon="6.56488">
        <ele>2001.78</ele>
        <time>2019-06-26T13:04:33Z</time>
      </trkpt>
      <trkpt lat="45.6493" lon="6.56488">
        <ele>2001.67</ele>
        <time>2019-06-26T13:05:00Z</time>
      </trkpt>
      <trkpt lat="45.64927" lon="6.56486">
        <ele>2001.56</ele>
        <time>2019-06-26T13:05:23Z</time>
      </trkpt>
      <trkpt lat="45.64925" lon="6.56485">
        <ele>2001.42</ele>
        <time>2019-06-26T13:05:52Z</time>
      </trkpt>
      <trkpt lat="45.64925" lon="6.56486">
        <ele>2000.85</ele>
        <time>2019-06-26T13:06:22Z</time>
      </trkpt>
      <trkpt lat="45.64927" lon="6.56485">
        <ele>2000.87</ele>
        <time>2019-06-26T13:06:52Z</time>
      </trkpt>
      <trkpt lat="45.64929" lon="6.56487">
        <ele>2000.51</ele>
        <time>2019-06-26T13:07:19Z</time>
      </trkpt>
      <trkpt lat="45.64926" lon="6.56488">
        <ele>2000.42</ele>
        <time>2019-06-26T13:07:50Z</time>
      </trkpt>
      <trkpt lat="45.64925" lon="6.56488">
        <ele>2000.22</ele>
        <time>2019-06-26T13:08:19Z</time>
      </trkpt>
      <trkpt lat="45.64926" lon="6.56485">
        <ele>2000.45</ele>
        <time>2019-06-26T13:08:50Z</time>
      </trkpt>
      <trkpt lat="45.6493" lon="6.56486">
        <ele>2000.21</ele>
        <time>2019-06-26T13:09:20Z</time>
      </trkpt>
      <trkpt lat="45.64933" lon="6.56487">
        <ele>1999.86</ele>
        <time>2019-06-26T13:09:51Z</time>
      </trkpt>
      <trkpt lat="45.64934" lon="6.5649">
        <ele>1999.61</ele>
        <time>2019-06-26T13:10:24Z</time>
      </trkpt>
      <trkpt lat="45.64935" lon="6.56492">
        <ele>1999.61</ele>
        <time>2019-06-26T13:10:53Z</time>
      </trkpt>
      <trkpt lat="45.64934" lon="6.56495">
        <ele>1999.66</ele>
        <time>2019-06-26T13:11:22Z</time>
      </trkpt>
      <trkpt lat="45.64929" lon="6.56493">
        <ele>1999.58</ele>
        <time>2019-06-26T13:11:52Z</time>
      </trkpt>
      <trkpt lat="45.64925" lon="6.56493">
        <ele>1999.8</ele>
        <time>2019-06-26T13:12:23Z</time>
      </trkpt>
      <trkpt lat="45.64925" lon="6.56494">
        <ele>2000.27</ele>
        <time>2019-06-26T13:12:51Z</time>
      </trkpt>
      <trkpt lat="45.64926" lon="6.56494">
        <ele>2000.08</ele>
        <time>2019-06-26T13:13:23Z</time>
      </trkpt>
      <trkpt lat="45.64928" lon="6.56493">
        <ele>2000.29</ele>
        <time>2019-06-26T13:14:07Z</time>
      </trkpt>
      <trkpt lat="45.64925" lon="6.56492">
        <ele>2000.28</ele>
        <time>2019-06-26T13:14:36Z</time>
      </trkpt>
      <trkpt lat="45.64923" lon="6.56491">
        <ele>1999.93</ele>
        <time>2019-06-26T13:15:05Z</time>
      </trkpt>
      <trkpt lat="45.64924" lon="6.56493">
        <ele>1999.9</ele>
        <time>2019-06-26T13:15:34Z</time>
      </trkpt>
      <trkpt lat="45.64923" lon="6.56491">
        <ele>1999.78</ele>
        <time>2019-06-26T13:16:02Z</time>
      </trkpt>
      <trkpt lat="45.64924" lon="6.56493">
        <ele>1999.66</ele>
        <time>2019-06-26T13:16:33Z</time>
      </trkpt>
      <trkpt lat="45.64925" lon="6.56492">
        <ele>2000.11</ele>
        <time>2019-06-26T13:17:04Z</time>
      </trkpt>
      <trkpt lat="45.64924" lon="6.56493">
        <ele>1999.73</ele>
        <time>2019-06-26T13:17:34Z</time>
      </trkpt>
      <trkpt lat="45.64927" lon="6.56495">
        <ele>1999.71</ele>
        <time>2019-06-26T13:18:07Z</time>
      </trkpt>
      <trkpt lat="45.64925" lon="6.56493">
        <ele>2000.36</ele>
        <time>2019-06-26T13:18:40Z</time>
      </trkpt>
      <trkpt lat="45.64926" lon="6.56492">
        <ele>1999.7</ele>
        <time>2019-06-26T13:19:13Z</time>
      </trkpt>
      <trkpt lat="45.64927" lon="6.56491">
        <ele>1999.81</ele>
        <time>2019-06-26T13:19:46Z</time>
      </trkpt>
      <trkpt lat="45.64924" lon="6.56492">
        <ele>2000.4</ele>
        <time>2019-06-26T13:20:19Z</time>
      </trkpt>
      <trkpt lat="45.64924" lon="6.56492">
        <ele>2000.55</ele>
        <time>2019-06-26T13:20:50Z</time>
      </trkpt>
      <trkpt lat="45.64926" lon="6.56491">
        <ele>2000.68</ele>
        <time>2019-06-26T13:21:21Z</time>
      </trkpt>
      <trkpt lat="45.64924" lon="6.56492">
        <ele>2000.53</ele>
        <time>2019-06-26T13:21:53Z</time>
      </trkpt>
      <trkpt lat="45.64924" lon="6.56492">
        <ele>2001.65</ele>
        <time>2019-06-26T13:22:19Z</time>
      </trkpt>
      <trkpt lat="45.64925" lon="6.56491">
        <ele>2001.33</ele>
        <time>2019-06-26T13:22:41Z</time>
      </trkpt>
      <trkpt lat="45.64918" lon="6.56493">
        <ele>2001.5</ele>
        <time>2019-06-26T13:22:59Z</time>
      </trkpt>
      <trkpt lat="45.64912" lon="6.56488">
        <ele>2000.74</ele>
        <time>2019-06-26T13:23:08Z</time>
      </trkpt>
      <trkpt lat="45.64904" lon="6.56486">
        <ele>2000.17</ele>
        <time>2019-06-26T13:23:23Z</time>
      </trkpt>
      <trkpt lat="45.64903" lon="6.56487">
        <ele>2000.34</ele>
        <time>2019-06-26T13:23:24Z</time>
      </trkpt>
      <trkpt lat="45.64898" lon="6.5649">
        <ele>1999.72</ele>
        <time>2019-06-26T13:23:29Z</time>
      </trkpt>
      <trkpt lat="45.64889" lon="6.56489">
        <ele>1999.76</ele>
        <time>2019-06-26T13:23:45Z</time>
      </trkpt>
      <trkpt lat="45.64885" lon="6.56488">
        <ele>1999.43</ele>
        <time>2019-06-26T13:23:49Z</time>
      </trkpt>
      <trkpt lat="45.64876" lon="6.56484">
        <ele>1998.39</ele>
        <time>2019-06-26T13:23:57Z</time>
      </trkpt>
      <trkpt lat="45.64867" lon="6.56479">
        <ele>1997.62</ele>
        <time>2019-06-26T13:24:07Z</time>
      </trkpt>
      <trkpt lat="45.64862" lon="6.56477">
        <ele>1997.43</ele>
        <time>2019-06-26T13:24:12Z</time>
      </trkpt>
      <trkpt lat="45.6484" lon="6.56476">
        <ele>1995.11</ele>
        <time>2019-06-26T13:24:30Z</time>
      </trkpt>
      <trkpt lat="45.64823" lon="6.56482">
        <ele>1993.75</ele>
        <time>2019-06-26T13:24:46Z</time>
      </trkpt>
      <trkpt lat="45.64805" lon="6.56493">
        <ele>1992.77</ele>
        <time>2019-06-26T13:25:03Z</time>
      </trkpt>
      <trkpt lat="45.64785" lon="6.56496">
        <ele>1991.58</ele>
        <time>2019-06-26T13:25:20Z</time>
      </trkpt>
      <trkpt lat="45.64766" lon="6.56489">
        <ele>1989.94</ele>
        <time>2019-06-26T13:25:36Z</time>
      </trkpt>
      <trkpt lat="45.64755" lon="6.56487">
        <ele>1988.88</ele>
        <time>2019-06-26T13:25:46Z</time>
      </trkpt>
      <trkpt lat="45.64753" lon="6.5649">
        <ele>1988.79</ele>
        <time>2019-06-26T13:26:02Z</time>
      </trkpt>
      <trkpt lat="45.6475" lon="6.56492">
        <ele>1988.09</ele>
        <time>2019-06-26T13:26:09Z</time>
      </trkpt>
      <trkpt lat="45.64744" lon="6.56506">
        <ele>1987.19</ele>
        <time>2019-06-26T13:26:19Z</time>
      </trkpt>
      <trkpt lat="45.64744" lon="6.56517">
        <ele>1986.79</ele>
        <time>2019-06-26T13:26:33Z</time>
      </trkpt>
      <trkpt lat="45.64744" lon="6.56527">
        <ele>1983.69</ele>
        <time>2019-06-26T13:26:41Z</time>
      </trkpt>
      <trkpt lat="45.64743" lon="6.56543">
        <ele>1980.27</ele>
        <time>2019-06-26T13:26:52Z</time>
      </trkpt>
      <trkpt lat="45.64743" lon="6.56544">
        <ele>1980.15</ele>
        <time>2019-06-26T13:26:53Z</time>
      </trkpt>
      <trkpt lat="45.64742" lon="6.56546">
        <ele>1979.62</ele>
        <time>2019-06-26T13:26:55Z</time>
      </trkpt>
      <trkpt lat="45.6474" lon="6.56546">
        <ele>1978.85</ele>
        <time>2019-06-26T13:26:57Z</time>
      </trkpt>
      <trkpt lat="45.64729" lon="6.5656">
        <ele>1976.03</ele>
        <time>2019-06-26T13:27:13Z</time>
      </trkpt>
      <trkpt lat="45.64735" lon="6.56582">
        <ele>1974.76</ele>
        <time>2019-06-26T13:27:30Z</time>
      </trkpt>
      <trkpt lat="45.64735" lon="6.56585">
        <ele>1974.91</ele>
        <time>2019-06-26T13:27:54Z</time>
      </trkpt>
      <trkpt lat="45.64736" lon="6.56587">
        <ele>1974.89</ele>
        <time>2019-06-26T13:28:22Z</time>
      </trkpt>
      <trkpt lat="45.64736" lon="6.56587">
        <ele>1974.62</ele>
        <time>2019-06-26T13:29:03Z</time>
      </trkpt>
      <trkpt lat="45.64735" lon="6.56586">
        <ele>1974.23</ele>
        <time>2019-06-26T13:29:26Z</time>
      </trkpt>
      <trkpt lat="45.64734" lon="6.5659">
        <ele>1973.7</ele>
        <time>2019-06-26T13:29:49Z</time>
      </trkpt>
      <trkpt lat="45.64733" lon="6.56597">
        <ele>1973.37</ele>
        <time>2019-06-26T13:29:55Z</time>
      </trkpt>
      <trkpt lat="45.64725" lon="6.56608">
        <ele>1974.29</ele>
        <time>2019-06-26T13:30:09Z</time>
      </trkpt>
      <trkpt lat="45.6472" lon="6.56634">
        <ele>1973.95</ele>
        <time>2019-06-26T13:30:26Z</time>
      </trkpt>
      <trkpt lat="45.64719" lon="6.56636">
        <ele>1973.72</ele>
        <time>2019-06-26T13:30:27Z</time>
      </trkpt>
      <trkpt lat="45.64716" lon="6.56661">
        <ele>1971.35</ele>
        <time>2019-06-26T13:30:43Z</time>
      </trkpt>
      <trkpt lat="45.6472" lon="6.56677">
        <ele>1969.79</ele>
        <time>2019-06-26T13:30:55Z</time>
      </trkpt>
      <trkpt lat="45.6472" lon="6.56683">
        <ele>1968.62</ele>
        <time>2019-06-26T13:31:11Z</time>
      </trkpt>
      <trkpt lat="45.64722" lon="6.56686">
        <ele>1968.94</ele>
        <time>2019-06-26T13:31:16Z</time>
      </trkpt>
      <trkpt lat="45.64717" lon="6.56695">
        <ele>1968.58</ele>
        <time>2019-06-26T13:31:27Z</time>
      </trkpt>
      <trkpt lat="45.64716" lon="6.56708">
        <ele>1968.7</ele>
        <time>2019-06-26T13:31:43Z</time>
      </trkpt>
      <trkpt lat="45.64716" lon="6.56709">
        <ele>1968.5</ele>
        <time>2019-06-26T13:32:00Z</time>
      </trkpt>
      <trkpt lat="45.64716" lon="6.56715">
        <ele>1969.02</ele>
        <time>2019-06-26T13:32:07Z</time>
      </trkpt>
      <trkpt lat="45.64717" lon="6.56727">
        <ele>1968.35</ele>
        <time>2019-06-26T13:32:21Z</time>
      </trkpt>
      <trkpt lat="45.64718" lon="6.56729">
        <ele>1968.59</ele>
        <time>2019-06-26T13:32:23Z</time>
      </trkpt>
      <trkpt lat="45.64722" lon="6.56737">
        <ele>1968.55</ele>
        <time>2019-06-26T13:32:40Z</time>
      </trkpt>
      <trkpt lat="45.64723" lon="6.56738">
        <ele>1968.38</ele>
        <time>2019-06-26T13:33:01Z</time>
      </trkpt>
      <trkpt lat="45.64723" lon="6.5674">
        <ele>1968.13</ele>
        <time>2019-06-26T13:33:09Z</time>
      </trkpt>
      <trkpt lat="45.64725" lon="6.56742">
        <ele>1967.67</ele>
        <time>2019-06-26T13:33:12Z</time>
      </trkpt>
      <trkpt lat="45.64729" lon="6.56745">
        <ele>1966.79</ele>
        <time>2019-06-26T13:33:17Z</time>
      </trkpt>
      <trkpt lat="45.64734" lon="6.56754">
        <ele>1965.14</ele>
        <time>2019-06-26T13:33:24Z</time>
      </trkpt>
      <trkpt lat="45.64739" lon="6.56775">
        <ele>1963.45</ele>
        <time>2019-06-26T13:33:39Z</time>
      </trkpt>
      <trkpt lat="45.64739" lon="6.5678">
        <ele>1962.89</ele>
        <time>2019-06-26T13:33:42Z</time>
      </trkpt>
      <trkpt lat="45.64752" lon="6.56783">
        <ele>1960.89</ele>
        <time>2019-06-26T13:33:55Z</time>
      </trkpt>
      <trkpt lat="45.64757" lon="6.56785">
        <ele>1958.73</ele>
        <time>2019-06-26T13:34:08Z</time>
      </trkpt>
      <trkpt lat="45.6476" lon="6.56786">
        <ele>1957.58</ele>
        <time>2019-06-26T13:34:12Z</time>
      </trkpt>
      <trkpt lat="45.64762" lon="6.56795">
        <ele>1955.75</ele>
        <time>2019-06-26T13:34:26Z</time>
      </trkpt>
      <trkpt lat="45.64762" lon="6.56796">
        <ele>1955.52</ele>
        <time>2019-06-26T13:34:45Z</time>
      </trkpt>
      <trkpt lat="45.64762" lon="6.56799">
        <ele>1955.24</ele>
        <time>2019-06-26T13:34:47Z</time>
      </trkpt>
      <trkpt lat="45.64762" lon="6.56806">
        <ele>1954.63</ele>
        <time>2019-06-26T13:34:51Z</time>
      </trkpt>
      <trkpt lat="45.6476" lon="6.56814">
        <ele>1953.72</ele>
        <time>2019-06-26T13:34:57Z</time>
      </trkpt>
      <trkpt lat="45.6476" lon="6.56825">
        <ele>1953.19</ele>
        <time>2019-06-26T13:35:05Z</time>
      </trkpt>
      <trkpt lat="45.64773" lon="6.56837">
        <ele>1951.69</ele>
        <time>2019-06-26T13:35:20Z</time>
      </trkpt>
      <trkpt lat="45.64778" lon="6.5684">
        <ele>1950.86</ele>
        <time>2019-06-26T13:35:27Z</time>
      </trkpt>
      <trkpt lat="45.64782" lon="6.56846">
        <ele>1949.98</ele>
        <time>2019-06-26T13:35:32Z</time>
      </trkpt>
      <trkpt lat="45.64788" lon="6.56854">
        <ele>1948.69</ele>
        <time>2019-06-26T13:35:39Z</time>
      </trkpt>
      <trkpt lat="45.64791" lon="6.56864">
        <ele>1948.18</ele>
        <time>2019-06-26T13:35:46Z</time>
      </trkpt>
      <trkpt lat="45.64792" lon="6.56876">
        <ele>1947.26</ele>
        <time>2019-06-26T13:35:54Z</time>
      </trkpt>
      <trkpt lat="45.648" lon="6.56898">
        <ele>1946.17</ele>
        <time>2019-06-26T13:36:11Z</time>
      </trkpt>
      <trkpt lat="45.64801" lon="6.56901">
        <ele>1946.49</ele>
        <time>2019-06-26T13:36:14Z</time>
      </trkpt>
      <trkpt lat="45.64813" lon="6.56931">
        <ele>1945.32</ele>
        <time>2019-06-26T13:36:35Z</time>
      </trkpt>
      <trkpt lat="45.6483" lon="6.56958">
        <ele>1942.63</ele>
        <time>2019-06-26T13:36:57Z</time>
      </trkpt>
      <trkpt lat="45.64833" lon="6.5696">
        <ele>1942.27</ele>
        <time>2019-06-26T13:37:00Z</time>
      </trkpt>
      <trkpt lat="45.64846" lon="6.56971">
        <ele>1940.16</ele>
        <time>2019-06-26T13:37:13Z</time>
      </trkpt>
      <trkpt lat="45.64848" lon="6.56973">
        <ele>1939.62</ele>
        <time>2019-06-26T13:37:15Z</time>
      </trkpt>
      <trkpt lat="45.64854" lon="6.56975">
        <ele>1939.01</ele>
        <time>2019-06-26T13:37:21Z</time>
      </trkpt>
      <trkpt lat="45.64862" lon="6.56983">
        <ele>1935.67</ele>
        <time>2019-06-26T13:37:29Z</time>
      </trkpt>
      <trkpt lat="45.64864" lon="6.56984">
        <ele>1935.09</ele>
        <time>2019-06-26T13:37:31Z</time>
      </trkpt>
      <trkpt lat="45.64865" lon="6.56987">
        <ele>1934.34</ele>
        <time>2019-06-26T13:37:34Z</time>
      </trkpt>
      <trkpt lat="45.64846" lon="6.56996">
        <ele>1931.23</ele>
        <time>2019-06-26T13:37:53Z</time>
      </trkpt>
      <trkpt lat="45.64839" lon="6.57002">
        <ele>1930.65</ele>
        <time>2019-06-26T13:38:00Z</time>
      </trkpt>
      <trkpt lat="45.64834" lon="6.57015">
        <ele>1928.18</ele>
        <time>2019-06-26T13:38:10Z</time>
      </trkpt>
      <trkpt lat="45.6484" lon="6.57025">
        <ele>1926.75</ele>
        <time>2019-06-26T13:38:21Z</time>
      </trkpt>
      <trkpt lat="45.64853" lon="6.57027">
        <ele>1924.24</ele>
        <time>2019-06-26T13:38:35Z</time>
      </trkpt>
      <trkpt lat="45.64856" lon="6.57026">
        <ele>1923.91</ele>
        <time>2019-06-26T13:38:45Z</time>
      </trkpt>
      <trkpt lat="45.64868" lon="6.5703">
        <ele>1922.65</ele>
        <time>2019-06-26T13:38:55Z</time>
      </trkpt>
      <trkpt lat="45.64872" lon="6.57032">
        <ele>1922.11</ele>
        <time>2019-06-26T13:38:59Z</time>
      </trkpt>
      <trkpt lat="45.64881" lon="6.57034">
        <ele>1921.18</ele>
        <time>2019-06-26T13:39:07Z</time>
      </trkpt>
      <trkpt lat="45.64892" lon="6.57035">
        <ele>1920.35</ele>
        <time>2019-06-26T13:39:18Z</time>
      </trkpt>
      <trkpt lat="45.64899" lon="6.57046">
        <ele>1918.58</ele>
        <time>2019-06-26T13:39:27Z</time>
      </trkpt>
      <trkpt lat="45.649" lon="6.57055">
        <ele>1917.54</ele>
        <time>2019-06-26T13:39:33Z</time>
      </trkpt>
      <trkpt lat="45.64908" lon="6.57064">
        <ele>1914.55</ele>
        <time>2019-06-26T13:39:46Z</time>
      </trkpt>
      <trkpt lat="45.64915" lon="6.57065">
        <ele>1913.05</ele>
        <time>2019-06-26T13:39:53Z</time>
      </trkpt>
      <trkpt lat="45.64917" lon="6.57073">
        <ele>1910.51</ele>
        <time>2019-06-26T13:39:59Z</time>
      </trkpt>
      <trkpt lat="45.64916" lon="6.57074">
        <ele>1909.5</ele>
        <time>2019-06-26T13:40:01Z</time>
      </trkpt>
      <trkpt lat="45.6491" lon="6.57083">
        <ele>1907.01</ele>
        <time>2019-06-26T13:40:10Z</time>
      </trkpt>
      <trkpt lat="45.64903" lon="6.57097">
        <ele>1903.74</ele>
        <time>2019-06-26T13:40:22Z</time>
      </trkpt>
      <trkpt lat="45.64903" lon="6.571">
        <ele>1902.89</ele>
        <time>2019-06-26T13:40:40Z</time>
      </trkpt>
      <trkpt lat="45.64905" lon="6.57104">
        <ele>1902.63</ele>
        <time>2019-06-26T13:40:45Z</time>
      </trkpt>
      <trkpt lat="45.64914" lon="6.57106">
        <ele>1900.74</ele>
        <time>2019-06-26T13:40:55Z</time>
      </trkpt>
      <trkpt lat="45.64918" lon="6.57112">
        <ele>1899.29</ele>
        <time>2019-06-26T13:41:01Z</time>
      </trkpt>
      <trkpt lat="45.64923" lon="6.57135">
        <ele>1895.78</ele>
        <time>2019-06-26T13:41:17Z</time>
      </trkpt>
      <trkpt lat="45.64914" lon="6.57155">
        <ele>1893.29</ele>
        <time>2019-06-26T13:41:33Z</time>
      </trkpt>
      <trkpt lat="45.64912" lon="6.57169">
        <ele>1890.12</ele>
        <time>2019-06-26T13:41:46Z</time>
      </trkpt>
      <trkpt lat="45.64914" lon="6.57171">
        <ele>1889.23</ele>
        <time>2019-06-26T13:41:49Z</time>
      </trkpt>
      <trkpt lat="45.64915" lon="6.57174">
        <ele>1888.2</ele>
        <time>2019-06-26T13:41:52Z</time>
      </trkpt>
      <trkpt lat="45.64919" lon="6.57185">
        <ele>1886.13</ele>
        <time>2019-06-26T13:42:03Z</time>
      </trkpt>
      <trkpt lat="45.64923" lon="6.57192">
        <ele>1885</ele>
        <time>2019-06-26T13:42:08Z</time>
      </trkpt>
      <trkpt lat="45.64915" lon="6.5722">
        <ele>1882.86</ele>
        <time>2019-06-26T13:42:27Z</time>
      </trkpt>
      <trkpt lat="45.64909" lon="6.57228">
        <ele>1882.19</ele>
        <time>2019-06-26T13:42:43Z</time>
      </trkpt>
      <trkpt lat="45.64906" lon="6.57233">
        <ele>1881.37</ele>
        <time>2019-06-26T13:42:51Z</time>
      </trkpt>
      <trkpt lat="45.64901" lon="6.57247">
        <ele>1879.96</ele>
        <time>2019-06-26T13:43:01Z</time>
      </trkpt>
      <trkpt lat="45.649" lon="6.57255">
        <ele>1879.79</ele>
        <time>2019-06-26T13:43:13Z</time>
      </trkpt>
      <trkpt lat="45.64902" lon="6.57261">
        <ele>1879.28</ele>
        <time>2019-06-26T13:43:17Z</time>
      </trkpt>
      <trkpt lat="45.64903" lon="6.57269">
        <ele>1878.64</ele>
        <time>2019-06-26T13:43:22Z</time>
      </trkpt>
      <trkpt lat="45.64904" lon="6.57275">
        <ele>1878.33</ele>
        <time>2019-06-26T13:43:25Z</time>
      </trkpt>
      <trkpt lat="45.64912" lon="6.57293">
        <ele>1877.43</ele>
        <time>2019-06-26T13:43:40Z</time>
      </trkpt>
      <trkpt lat="45.64912" lon="6.57302">
        <ele>1876.37</ele>
        <time>2019-06-26T13:43:46Z</time>
      </trkpt>
      <trkpt lat="45.649" lon="6.57311">
        <ele>1873.61</ele>
        <time>2019-06-26T13:43:59Z</time>
      </trkpt>
      <trkpt lat="45.64893" lon="6.57323">
        <ele>1870.45</ele>
        <time>2019-06-26T13:44:14Z</time>
      </trkpt>
      <trkpt lat="45.64896" lon="6.57336">
        <ele>1868.2</ele>
        <time>2019-06-26T13:44:27Z</time>
      </trkpt>
      <trkpt lat="45.64891" lon="6.57341">
        <ele>1866.33</ele>
        <time>2019-06-26T13:44:48Z</time>
      </trkpt>
      <trkpt lat="45.64885" lon="6.57339">
        <ele>1863.21</ele>
        <time>2019-06-26T13:45:02Z</time>
      </trkpt>
      <trkpt lat="45.64877" lon="6.5734">
        <ele>1860.02</ele>
        <time>2019-06-26T13:45:16Z</time>
      </trkpt>
      <trkpt lat="45.64866" lon="6.57339">
        <ele>1857.59</ele>
        <time>2019-06-26T13:45:30Z</time>
      </trkpt>
      <trkpt lat="45.64858" lon="6.57339">
        <ele>1855.68</ele>
        <time>2019-06-26T13:45:42Z</time>
      </trkpt>
      <trkpt lat="45.64851" lon="6.57333">
        <ele>1853.18</ele>
        <time>2019-06-26T13:45:57Z</time>
      </trkpt>
      <trkpt lat="45.64836" lon="6.57327">
        <ele>1850.03</ele>
        <time>2019-06-26T13:46:15Z</time>
      </trkpt>
      <trkpt lat="45.64824" lon="6.57316">
        <ele>1847</ele>
        <time>2019-06-26T13:46:33Z</time>
      </trkpt>
      <trkpt lat="45.64816" lon="6.5732">
        <ele>1843.93</ele>
        <time>2019-06-26T13:46:46Z</time>
      </trkpt>
      <trkpt lat="45.64812" lon="6.57325">
        <ele>1841.64</ele>
        <time>2019-06-26T13:46:55Z</time>
      </trkpt>
      <trkpt lat="45.6481" lon="6.57323">
        <ele>1840.22</ele>
        <time>2019-06-26T13:47:16Z</time>
      </trkpt>
      <trkpt lat="45.64804" lon="6.57323">
        <ele>1837.2</ele>
        <time>2019-06-26T13:47:32Z</time>
      </trkpt>
      <trkpt lat="45.64796" lon="6.5732">
        <ele>1835.03</ele>
        <time>2019-06-26T13:47:55Z</time>
      </trkpt>
      <trkpt lat="45.64787" lon="6.57321">
        <ele>1831.73</ele>
        <time>2019-06-26T13:48:10Z</time>
      </trkpt>
      <trkpt lat="45.64774" lon="6.57323">
        <ele>1828.68</ele>
        <time>2019-06-26T13:48:26Z</time>
      </trkpt>
      <trkpt lat="45.64766" lon="6.57329">
        <ele>1827.44</ele>
        <time>2019-06-26T13:48:44Z</time>
      </trkpt>
      <trkpt lat="45.64768" lon="6.57336">
        <ele>1826.8</ele>
        <time>2019-06-26T13:49:08Z</time>
      </trkpt>
      <trkpt lat="45.6476" lon="6.57336">
        <ele>1824.62</ele>
        <time>2019-06-26T13:49:29Z</time>
      </trkpt>
      <trkpt lat="45.64753" lon="6.57341">
        <ele>1821.68</ele>
        <time>2019-06-26T13:49:48Z</time>
      </trkpt>
      <trkpt lat="45.6475" lon="6.57344">
        <ele>1819.31</ele>
        <time>2019-06-26T13:50:05Z</time>
      </trkpt>
      <trkpt lat="45.64741" lon="6.57344">
        <ele>1816.5</ele>
        <time>2019-06-26T13:50:25Z</time>
      </trkpt>
      <trkpt lat="45.64735" lon="6.57356">
        <ele>1814.81</ele>
        <time>2019-06-26T13:50:46Z</time>
      </trkpt>
      <trkpt lat="45.64732" lon="6.57364">
        <ele>1812.08</ele>
        <time>2019-06-26T13:51:07Z</time>
      </trkpt>
      <trkpt lat="45.6472" lon="6.57354">
        <ele>1808.93</ele>
        <time>2019-06-26T13:51:25Z</time>
      </trkpt>
      <trkpt lat="45.64719" lon="6.57353">
        <ele>1808.61</ele>
        <time>2019-06-26T13:51:26Z</time>
      </trkpt>
      <trkpt lat="45.64715" lon="6.57353">
        <ele>1808.04</ele>
        <time>2019-06-26T13:51:29Z</time>
      </trkpt>
      <trkpt lat="45.6471" lon="6.57349">
        <ele>1808.14</ele>
        <time>2019-06-26T13:51:35Z</time>
      </trkpt>
      <trkpt lat="45.64707" lon="6.57345">
        <ele>1807.62</ele>
        <time>2019-06-26T13:51:37Z</time>
      </trkpt>
      <trkpt lat="45.64696" lon="6.57335">
        <ele>1807.42</ele>
        <time>2019-06-26T13:51:51Z</time>
      </trkpt>
      <trkpt lat="45.64683" lon="6.57328">
        <ele>1806.17</ele>
        <time>2019-06-26T13:52:06Z</time>
      </trkpt>
      <trkpt lat="45.6468" lon="6.57329">
        <ele>1805.81</ele>
        <time>2019-06-26T13:52:29Z</time>
      </trkpt>
      <trkpt lat="45.64675" lon="6.57313">
        <ele>1805.14</ele>
        <time>2019-06-26T13:52:50Z</time>
      </trkpt>
      <trkpt lat="45.64667" lon="6.57307">
        <ele>1802.33</ele>
        <time>2019-06-26T13:53:07Z</time>
      </trkpt>
      <trkpt lat="45.64655" lon="6.57315">
        <ele>1799.82</ele>
        <time>2019-06-26T13:53:23Z</time>
      </trkpt>
      <trkpt lat="45.64649" lon="6.57315">
        <ele>1797.13</ele>
        <time>2019-06-26T13:53:39Z</time>
      </trkpt>
      <trkpt lat="45.64641" lon="6.5732">
        <ele>1794.23</ele>
        <time>2019-06-26T13:53:59Z</time>
      </trkpt>
      <trkpt lat="45.64636" lon="6.5732">
        <ele>1791.17</ele>
        <time>2019-06-26T13:54:14Z</time>
      </trkpt>
      <trkpt lat="45.64627" lon="6.57323">
        <ele>1788.16</ele>
        <time>2019-06-26T13:54:28Z</time>
      </trkpt>
      <trkpt lat="45.64618" lon="6.5733">
        <ele>1785</ele>
        <time>2019-06-26T13:54:45Z</time>
      </trkpt>
      <trkpt lat="45.64622" lon="6.57342">
        <ele>1781.94</ele>
        <time>2019-06-26T13:54:59Z</time>
      </trkpt>
      <trkpt lat="45.64622" lon="6.57347">
        <ele>1778.7</ele>
        <time>2019-06-26T13:55:15Z</time>
      </trkpt>
      <trkpt lat="45.64606" lon="6.57342">
        <ele>1775.62</ele>
        <time>2019-06-26T13:55:33Z</time>
      </trkpt>
      <trkpt lat="45.64595" lon="6.57343">
        <ele>1773.77</ele>
        <time>2019-06-26T13:55:48Z</time>
      </trkpt>
      <trkpt lat="45.64584" lon="6.57341">
        <ele>1770.55</ele>
        <time>2019-06-26T13:56:02Z</time>
      </trkpt>
      <trkpt lat="45.64569" lon="6.57339">
        <ele>1767.77</ele>
        <time>2019-06-26T13:56:20Z</time>
      </trkpt>
      <trkpt lat="45.64561" lon="6.5734">
        <ele>1764.54</ele>
        <time>2019-06-26T13:56:34Z</time>
      </trkpt>
      <trkpt lat="45.64557" lon="6.57351">
        <ele>1761.52</ele>
        <time>2019-06-26T13:56:48Z</time>
      </trkpt>
      <trkpt lat="45.64546" lon="6.57352">
        <ele>1758.46</ele>
        <time>2019-06-26T13:57:02Z</time>
      </trkpt>
      <trkpt lat="45.64531" lon="6.57342">
        <ele>1755.53</ele>
        <time>2019-06-26T13:57:21Z</time>
      </trkpt>
      <trkpt lat="45.64512" lon="6.57332">
        <ele>1752.77</ele>
        <time>2019-06-26T13:57:42Z</time>
      </trkpt>
      <trkpt lat="45.64514" lon="6.57345">
        <ele>1749.67</ele>
        <time>2019-06-26T13:58:01Z</time>
      </trkpt>
      <trkpt lat="45.64517" lon="6.57354">
        <ele>1746.41</ele>
        <time>2019-06-26T13:58:14Z</time>
      </trkpt>
      <trkpt lat="45.64515" lon="6.57362">
        <ele>1743.37</ele>
        <time>2019-06-26T13:58:26Z</time>
      </trkpt>
      <trkpt lat="45.64499" lon="6.57349">
        <ele>1741.15</ele>
        <time>2019-06-26T13:58:45Z</time>
      </trkpt>
      <trkpt lat="45.64485" lon="6.57338">
        <ele>1739.97</ele>
        <time>2019-06-26T13:59:02Z</time>
      </trkpt>
      <trkpt lat="45.64474" lon="6.57328">
        <ele>1741.69</ele>
        <time>2019-06-26T13:59:19Z</time>
      </trkpt>
      <trkpt lat="45.6446" lon="6.57319">
        <ele>1740.17</ele>
        <time>2019-06-26T13:59:38Z</time>
      </trkpt>
      <trkpt lat="45.64445" lon="6.57313">
        <ele>1737.23</ele>
        <time>2019-06-26T13:59:57Z</time>
      </trkpt>
      <trkpt lat="45.64435" lon="6.57305">
        <ele>1735.75</ele>
        <time>2019-06-26T14:00:16Z</time>
      </trkpt>
      <trkpt lat="45.64417" lon="6.57288">
        <ele>1734.09</ele>
        <time>2019-06-26T14:00:36Z</time>
      </trkpt>
      <trkpt lat="45.64403" lon="6.5727">
        <ele>1733.32</ele>
        <time>2019-06-26T14:00:54Z</time>
      </trkpt>
      <trkpt lat="45.6439" lon="6.57263">
        <ele>1731.48</ele>
        <time>2019-06-26T14:01:13Z</time>
      </trkpt>
      <trkpt lat="45.64379" lon="6.57255">
        <ele>1728.54</ele>
        <time>2019-06-26T14:01:30Z</time>
      </trkpt>
      <trkpt lat="45.64366" lon="6.57241">
        <ele>1726.53</ele>
        <time>2019-06-26T14:01:46Z</time>
      </trkpt>
      <trkpt lat="45.64356" lon="6.57237">
        <ele>1724.24</ele>
        <time>2019-06-26T14:02:01Z</time>
      </trkpt>
      <trkpt lat="45.6434" lon="6.57232">
        <ele>1720.91</ele>
        <time>2019-06-26T14:02:21Z</time>
      </trkpt>
      <trkpt lat="45.64332" lon="6.5722">
        <ele>1719.79</ele>
        <time>2019-06-26T14:02:41Z</time>
      </trkpt>
      <trkpt lat="45.64317" lon="6.57203">
        <ele>1717.54</ele>
        <time>2019-06-26T14:03:03Z</time>
      </trkpt>
      <trkpt lat="45.64304" lon="6.57191">
        <ele>1714.74</ele>
        <time>2019-06-26T14:03:22Z</time>
      </trkpt>
      <trkpt lat="45.6429" lon="6.57177">
        <ele>1711.66</ele>
        <time>2019-06-26T14:03:43Z</time>
      </trkpt>
      <trkpt lat="45.6429" lon="6.57177">
        <ele>1711.46</ele>
        <time>2019-06-26T14:03:44Z</time>
      </trkpt>
      <trkpt lat="45.64277" lon="6.57165">
        <ele>1709.08</ele>
        <time>2019-06-26T14:04:00Z</time>
      </trkpt>
      <trkpt lat="45.6426" lon="6.57152">
        <ele>1706.14</ele>
        <time>2019-06-26T14:04:20Z</time>
      </trkpt>
      <trkpt lat="45.64251" lon="6.57146">
        <ele>1705.3</ele>
        <time>2019-06-26T14:04:32Z</time>
      </trkpt>
      <trkpt lat="45.64235" lon="6.57139">
        <ele>1702.85</ele>
        <time>2019-06-26T14:04:51Z</time>
      </trkpt>
      <trkpt lat="45.6423" lon="6.57133">
        <ele>1701.38</ele>
        <time>2019-06-26T14:05:02Z</time>
      </trkpt>
      <trkpt lat="45.64219" lon="6.5713">
        <ele>1698.27</ele>
        <time>2019-06-26T14:05:19Z</time>
      </trkpt>
      <trkpt lat="45.64206" lon="6.57124">
        <ele>1694.97</ele>
        <time>2019-06-26T14:05:34Z</time>
      </trkpt>
      <trkpt lat="45.64196" lon="6.57121">
        <ele>1691.78</ele>
        <time>2019-06-26T14:05:47Z</time>
      </trkpt>
      <trkpt lat="45.64181" lon="6.57108">
        <ele>1689.17</ele>
        <time>2019-06-26T14:06:08Z</time>
      </trkpt>
      <trkpt lat="45.64165" lon="6.571">
        <ele>1686.64</ele>
        <time>2019-06-26T14:06:26Z</time>
      </trkpt>
      <trkpt lat="45.64158" lon="6.571">
        <ele>1684.91</ele>
        <time>2019-06-26T14:06:35Z</time>
      </trkpt>
      <trkpt lat="45.64163" lon="6.57122">
        <ele>1682.39</ele>
        <time>2019-06-26T14:06:52Z</time>
      </trkpt>
      <trkpt lat="45.64161" lon="6.57128">
        <ele>1679.28</ele>
        <time>2019-06-26T14:07:08Z</time>
      </trkpt>
      <trkpt lat="45.64156" lon="6.5713">
        <ele>1676.2</ele>
        <time>2019-06-26T14:07:22Z</time>
      </trkpt>
      <trkpt lat="45.64156" lon="6.57142">
        <ele>1673.1</ele>
        <time>2019-06-26T14:07:38Z</time>
      </trkpt>
      <trkpt lat="45.64143" lon="6.57137">
        <ele>1670.04</ele>
        <time>2019-06-26T14:07:52Z</time>
      </trkpt>
      <trkpt lat="45.6414" lon="6.57149">
        <ele>1666.86</ele>
        <time>2019-06-26T14:08:07Z</time>
      </trkpt>
      <trkpt lat="45.64133" lon="6.57157">
        <ele>1663.47</ele>
        <time>2019-06-26T14:08:21Z</time>
      </trkpt>
      <trkpt lat="45.64129" lon="6.57164">
        <ele>1660.46</ele>
        <time>2019-06-26T14:08:32Z</time>
      </trkpt>
      <trkpt lat="45.64126" lon="6.57175">
        <ele>1657.39</ele>
        <time>2019-06-26T14:08:41Z</time>
      </trkpt>
      <trkpt lat="45.64123" lon="6.57176">
        <ele>1656.93</ele>
        <time>2019-06-26T14:08:44Z</time>
      </trkpt>
      <trkpt lat="45.64119" lon="6.57192">
        <ele>1653.85</ele>
        <time>2019-06-26T14:08:58Z</time>
      </trkpt>
      <trkpt lat="45.64117" lon="6.57198">
        <ele>1651.89</ele>
        <time>2019-06-26T14:09:03Z</time>
      </trkpt>
      <trkpt lat="45.64114" lon="6.57213">
        <ele>1648.75</ele>
        <time>2019-06-26T14:09:14Z</time>
      </trkpt>
      <trkpt lat="45.64114" lon="6.5722">
        <ele>1647.48</ele>
        <time>2019-06-26T14:09:20Z</time>
      </trkpt>
      <trkpt lat="45.64116" lon="6.57233">
        <ele>1644.36</ele>
        <time>2019-06-26T14:09:33Z</time>
      </trkpt>
      <trkpt lat="45.64117" lon="6.57241">
        <ele>1642.62</ele>
        <time>2019-06-26T14:09:45Z</time>
      </trkpt>
      <trkpt lat="45.64117" lon="6.57242">
        <ele>1642.49</ele>
        <time>2019-06-26T14:10:07Z</time>
      </trkpt>
      <trkpt lat="45.64118" lon="6.57244">
        <ele>1642.31</ele>
        <time>2019-06-26T14:10:24Z</time>
      </trkpt>
      <trkpt lat="45.64118" lon="6.57246">
        <ele>1641.6</ele>
        <time>2019-06-26T14:10:44Z</time>
      </trkpt>
      <trkpt lat="45.64118" lon="6.57248">
        <ele>1641.39</ele>
        <time>2019-06-26T14:11:20Z</time>
      </trkpt>
      <trkpt lat="45.64118" lon="6.57249">
        <ele>1641.46</ele>
        <time>2019-06-26T14:11:56Z</time>
      </trkpt>
      <trkpt lat="45.64119" lon="6.5725">
        <ele>1641.06</ele>
        <time>2019-06-26T14:12:32Z</time>
      </trkpt>
      <trkpt lat="45.64118" lon="6.57252">
        <ele>1641.07</ele>
        <time>2019-06-26T14:13:04Z</time>
      </trkpt>
      <trkpt lat="45.6412" lon="6.57249">
        <ele>1640.74</ele>
        <time>2019-06-26T14:13:30Z</time>
      </trkpt>
      <trkpt lat="45.64122" lon="6.57248">
        <ele>1640.45</ele>
        <time>2019-06-26T14:14:11Z</time>
      </trkpt>
      <trkpt lat="45.6412" lon="6.57249">
        <ele>1639.99</ele>
        <time>2019-06-26T14:14:47Z</time>
      </trkpt>
      <trkpt lat="45.64123" lon="6.5725">
        <ele>1639.96</ele>
        <time>2019-06-26T14:15:14Z</time>
      </trkpt>
      <trkpt lat="45.64123" lon="6.57248">
        <ele>1639.72</ele>
        <time>2019-06-26T14:15:52Z</time>
      </trkpt>
      <trkpt lat="45.64119" lon="6.57248">
        <ele>1639.76</ele>
        <time>2019-06-26T14:16:26Z</time>
      </trkpt>
      <trkpt lat="45.64119" lon="6.57248">
        <ele>1639.35</ele>
        <time>2019-06-26T14:16:43Z</time>
      </trkpt>
      <trkpt lat="45.6412" lon="6.57242">
        <ele>1639.29</ele>
        <time>2019-06-26T14:17:08Z</time>
      </trkpt>
      <trkpt lat="45.64116" lon="6.57257">
        <ele>1637.73</ele>
        <time>2019-06-26T14:17:25Z</time>
      </trkpt>
      <trkpt lat="45.64114" lon="6.57269">
        <ele>1635.79</ele>
        <time>2019-06-26T14:17:37Z</time>
      </trkpt>
      <trkpt lat="45.64114" lon="6.57282">
        <ele>1633.65</ele>
        <time>2019-06-26T14:17:51Z</time>
      </trkpt>
      <trkpt lat="45.64118" lon="6.57286">
        <ele>1633.44</ele>
        <time>2019-06-26T14:17:56Z</time>
      </trkpt>
      <trkpt lat="45.64121" lon="6.57294">
        <ele>1631.57</ele>
        <time>2019-06-26T14:18:02Z</time>
      </trkpt>
      <trkpt lat="45.64123" lon="6.57303">
        <ele>1630.89</ele>
        <time>2019-06-26T14:18:08Z</time>
      </trkpt>
      <trkpt lat="45.64122" lon="6.57319">
        <ele>1629.74</ele>
        <time>2019-06-26T14:18:23Z</time>
      </trkpt>
      <trkpt lat="45.64122" lon="6.57325">
        <ele>1627.07</ele>
        <time>2019-06-26T14:18:34Z</time>
      </trkpt>
      <trkpt lat="45.64117" lon="6.57343">
        <ele>1623.78</ele>
        <time>2019-06-26T14:18:46Z</time>
      </trkpt>
      <trkpt lat="45.64119" lon="6.57354">
        <ele>1622.78</ele>
        <time>2019-06-26T14:18:52Z</time>
      </trkpt>
      <trkpt lat="45.64119" lon="6.57374">
        <ele>1619.9</ele>
        <time>2019-06-26T14:19:03Z</time>
      </trkpt>
      <trkpt lat="45.64117" lon="6.57377">
        <ele>1619.3</ele>
        <time>2019-06-26T14:19:06Z</time>
      </trkpt>
      <trkpt lat="45.64125" lon="6.57389">
        <ele>1616.83</ele>
        <time>2019-06-26T14:19:21Z</time>
      </trkpt>
      <trkpt lat="45.64132" lon="6.57399">
        <ele>1614.24</ele>
        <time>2019-06-26T14:19:35Z</time>
      </trkpt>
      <trkpt lat="45.6413" lon="6.574">
        <ele>1613.74</ele>
        <time>2019-06-26T14:19:57Z</time>
      </trkpt>
      <trkpt lat="45.64127" lon="6.57404">
        <ele>1612.9</ele>
        <time>2019-06-26T14:20:02Z</time>
      </trkpt>
      <trkpt lat="45.64126" lon="6.57404">
        <ele>1612.69</ele>
        <time>2019-06-26T14:20:04Z</time>
      </trkpt>
      <trkpt lat="45.64123" lon="6.57408">
        <ele>1610.55</ele>
        <time>2019-06-26T14:20:13Z</time>
      </trkpt>
      <trkpt lat="45.64121" lon="6.57414">
        <ele>1609.41</ele>
        <time>2019-06-26T14:20:17Z</time>
      </trkpt>
      <trkpt lat="45.64117" lon="6.57424">
        <ele>1606.64</ele>
        <time>2019-06-26T14:20:32Z</time>
      </trkpt>
      <trkpt lat="45.6412" lon="6.57437">
        <ele>1605.24</ele>
        <time>2019-06-26T14:20:44Z</time>
      </trkpt>
      <trkpt lat="45.64117" lon="6.57436">
        <ele>1605.26</ele>
        <time>2019-06-26T14:20:48Z</time>
      </trkpt>
      <trkpt lat="45.64111" lon="6.5745">
        <ele>1602.56</ele>
        <time>2019-06-26T14:20:59Z</time>
      </trkpt>
      <trkpt lat="45.64106" lon="6.57461">
        <ele>1599.45</ele>
        <time>2019-06-26T14:21:07Z</time>
      </trkpt>
      <trkpt lat="45.64106" lon="6.57463">
        <ele>1599.02</ele>
        <time>2019-06-26T14:21:08Z</time>
      </trkpt>
      <trkpt lat="45.64106" lon="6.57466">
        <ele>1598.11</ele>
        <time>2019-06-26T14:21:10Z</time>
      </trkpt>
      <trkpt lat="45.64105" lon="6.5747">
        <ele>1597.36</ele>
        <time>2019-06-26T14:21:13Z</time>
      </trkpt>
      <trkpt lat="45.64108" lon="6.5748">
        <ele>1595.65</ele>
        <time>2019-06-26T14:21:20Z</time>
      </trkpt>
      <trkpt lat="45.64107" lon="6.57485">
        <ele>1595.6</ele>
        <time>2019-06-26T14:21:23Z</time>
      </trkpt>
      <trkpt lat="45.64104" lon="6.57499">
        <ele>1592.87</ele>
        <time>2019-06-26T14:21:34Z</time>
      </trkpt>
      <trkpt lat="45.64096" lon="6.575">
        <ele>1590.94</ele>
        <time>2019-06-26T14:21:41Z</time>
      </trkpt>
      <trkpt lat="45.64089" lon="6.57509">
        <ele>1588.33</ele>
        <time>2019-06-26T14:21:54Z</time>
      </trkpt>
      <trkpt lat="45.64087" lon="6.57509">
        <ele>1589.01</ele>
        <time>2019-06-26T14:22:11Z</time>
      </trkpt>
      <trkpt lat="45.6409" lon="6.57513">
        <ele>1588.3</ele>
        <time>2019-06-26T14:22:21Z</time>
      </trkpt>
      <trkpt lat="45.64092" lon="6.57522">
        <ele>1586.92</ele>
        <time>2019-06-26T14:22:26Z</time>
      </trkpt>
      <trkpt lat="45.64097" lon="6.57533">
        <ele>1585.07</ele>
        <time>2019-06-26T14:22:34Z</time>
      </trkpt>
      <trkpt lat="45.64097" lon="6.57538">
        <ele>1584.38</ele>
        <time>2019-06-26T14:22:37Z</time>
      </trkpt>
      <trkpt lat="45.64101" lon="6.57546">
        <ele>1583.32</ele>
        <time>2019-06-26T14:22:44Z</time>
      </trkpt>
      <trkpt lat="45.64107" lon="6.57557">
        <ele>1581.89</ele>
        <time>2019-06-26T14:22:52Z</time>
      </trkpt>
      <trkpt lat="45.64113" lon="6.57568">
        <ele>1580.33</ele>
        <time>2019-06-26T14:23:01Z</time>
      </trkpt>
      <trkpt lat="45.64118" lon="6.57571">
        <ele>1579.8</ele>
        <time>2019-06-26T14:23:06Z</time>
      </trkpt>
      <trkpt lat="45.64116" lon="6.5758">
        <ele>1577.54</ele>
        <time>2019-06-26T14:23:17Z</time>
      </trkpt>
      <trkpt lat="45.64114" lon="6.57582">
        <ele>1576.78</ele>
        <time>2019-06-26T14:23:19Z</time>
      </trkpt>
      <trkpt lat="45.64104" lon="6.57578">
        <ele>1576.26</ele>
        <time>2019-06-26T14:23:35Z</time>
      </trkpt>
      <trkpt lat="45.64098" lon="6.5757">
        <ele>1575.71</ele>
        <time>2019-06-26T14:23:42Z</time>
      </trkpt>
      <trkpt lat="45.64096" lon="6.57569">
        <ele>1575.65</ele>
        <time>2019-06-26T14:23:44Z</time>
      </trkpt>
      <trkpt lat="45.64082" lon="6.57563">
        <ele>1574.98</ele>
        <time>2019-06-26T14:23:57Z</time>
      </trkpt>
      <trkpt lat="45.64081" lon="6.57562">
        <ele>1575.01</ele>
        <time>2019-06-26T14:23:58Z</time>
      </trkpt>
      <trkpt lat="45.64079" lon="6.57558">
        <ele>1574.65</ele>
        <time>2019-06-26T14:24:00Z</time>
      </trkpt>
      <trkpt lat="45.64066" lon="6.57566">
        <ele>1574.44</ele>
        <time>2019-06-26T14:24:15Z</time>
      </trkpt>
      <trkpt lat="45.64064" lon="6.57577">
        <ele>1574.4</ele>
        <time>2019-06-26T14:24:31Z</time>
      </trkpt>
      <trkpt lat="45.64063" lon="6.57589">
        <ele>1574.39</ele>
        <time>2019-06-26T14:24:47Z</time>
      </trkpt>
      <trkpt lat="45.64064" lon="6.57603">
        <ele>1574.7</ele>
        <time>2019-06-26T14:24:56Z</time>
      </trkpt>
      <trkpt lat="45.64069" lon="6.57616">
        <ele>1574.51</ele>
        <time>2019-06-26T14:25:11Z</time>
      </trkpt>
      <trkpt lat="45.64072" lon="6.57624">
        <ele>1574.59</ele>
        <time>2019-06-26T14:25:29Z</time>
      </trkpt>
      <trkpt lat="45.64074" lon="6.57638">
        <ele>1574.24</ele>
        <time>2019-06-26T14:25:47Z</time>
      </trkpt>
      <trkpt lat="45.64078" lon="6.57647">
        <ele>1574.53</ele>
        <time>2019-06-26T14:25:55Z</time>
      </trkpt>
      <trkpt lat="45.64087" lon="6.57657">
        <ele>1574.74</ele>
        <time>2019-06-26T14:26:05Z</time>
      </trkpt>
      <trkpt lat="45.64099" lon="6.57666">
        <ele>1574.99</ele>
        <time>2019-06-26T14:26:19Z</time>
      </trkpt>
      <trkpt lat="45.64112" lon="6.57675">
        <ele>1575.22</ele>
        <time>2019-06-26T14:26:32Z</time>
      </trkpt>
      <trkpt lat="45.64119" lon="6.57678">
        <ele>1575.23</ele>
        <time>2019-06-26T14:26:38Z</time>
      </trkpt>
      <trkpt lat="45.64125" lon="6.5768">
        <ele>1574.88</ele>
        <time>2019-06-26T14:26:45Z</time>
      </trkpt>
      <trkpt lat="45.64127" lon="6.57682">
        <ele>1574.34</ele>
        <time>2019-06-26T14:26:48Z</time>
      </trkpt>
      <trkpt lat="45.64139" lon="6.57703">
        <ele>1574.04</ele>
        <time>2019-06-26T14:27:03Z</time>
      </trkpt>
      <trkpt lat="45.6414" lon="6.57706">
        <ele>1573.88</ele>
        <time>2019-06-26T14:27:05Z</time>
      </trkpt>
      <trkpt lat="45.64141" lon="6.57725">
        <ele>1573.88</ele>
        <time>2019-06-26T14:27:15Z</time>
      </trkpt>
      <trkpt lat="45.64142" lon="6.57752">
        <ele>1573.61</ele>
        <time>2019-06-26T14:27:30Z</time>
      </trkpt>
      <trkpt lat="45.64144" lon="6.57763">
        <ele>1573.92</ele>
        <time>2019-06-26T14:27:36Z</time>
      </trkpt>
      <trkpt lat="45.64148" lon="6.57775">
        <ele>1573.34</ele>
        <time>2019-06-26T14:27:43Z</time>
      </trkpt>
      <trkpt lat="45.64152" lon="6.57781">
        <ele>1573.34</ele>
        <time>2019-06-26T14:27:47Z</time>
      </trkpt>
      <trkpt lat="45.64155" lon="6.57787">
        <ele>1573.26</ele>
        <time>2019-06-26T14:27:51Z</time>
      </trkpt>
      <trkpt lat="45.64159" lon="6.57795">
        <ele>1572.97</ele>
        <time>2019-06-26T14:27:56Z</time>
      </trkpt>
      <trkpt lat="45.64161" lon="6.57801">
        <ele>1572.91</ele>
        <time>2019-06-26T14:28:00Z</time>
      </trkpt>
      <trkpt lat="45.64161" lon="6.57806">
        <ele>1572.8</ele>
        <time>2019-06-26T14:28:02Z</time>
      </trkpt>
      <trkpt lat="45.64163" lon="6.57812">
        <ele>1572.75</ele>
        <time>2019-06-26T14:28:06Z</time>
      </trkpt>
      <trkpt lat="45.64164" lon="6.57821">
        <ele>1572.61</ele>
        <time>2019-06-26T14:28:12Z</time>
      </trkpt>
      <trkpt lat="45.64166" lon="6.5783">
        <ele>1572.87</ele>
        <time>2019-06-26T14:28:18Z</time>
      </trkpt>
      <trkpt lat="45.6417" lon="6.5784">
        <ele>1572.87</ele>
        <time>2019-06-26T14:28:24Z</time>
      </trkpt>
      <trkpt lat="45.64175" lon="6.57852">
        <ele>1572.63</ele>
        <time>2019-06-26T14:28:32Z</time>
      </trkpt>
      <trkpt lat="45.64178" lon="6.57857">
        <ele>1572.56</ele>
        <time>2019-06-26T14:28:36Z</time>
      </trkpt>
      <trkpt lat="45.64182" lon="6.57875">
        <ele>1572.61</ele>
        <time>2019-06-26T14:28:45Z</time>
      </trkpt>
      <trkpt lat="45.64182" lon="6.57882">
        <ele>1572.57</ele>
        <time>2019-06-26T14:28:49Z</time>
      </trkpt>
      <trkpt lat="45.64184" lon="6.57891">
        <ele>1572.49</ele>
        <time>2019-06-26T14:28:54Z</time>
      </trkpt>
      <trkpt lat="45.64185" lon="6.5791">
        <ele>1573.11</ele>
        <time>2019-06-26T14:29:05Z</time>
      </trkpt>
      <trkpt lat="45.64189" lon="6.57924">
        <ele>1573.38</ele>
        <time>2019-06-26T14:29:15Z</time>
      </trkpt>
      <trkpt lat="45.64192" lon="6.57929">
        <ele>1573.38</ele>
        <time>2019-06-26T14:29:19Z</time>
      </trkpt>
      <trkpt lat="45.642" lon="6.57946">
        <ele>1573.67</ele>
        <time>2019-06-26T14:29:30Z</time>
      </trkpt>
      <trkpt lat="45.642" lon="6.57947">
        <ele>1573.91</ele>
        <time>2019-06-26T14:29:31Z</time>
      </trkpt>
      <trkpt lat="45.64197" lon="6.57963">
        <ele>1573.77</ele>
        <time>2019-06-26T14:29:41Z</time>
      </trkpt>
      <trkpt lat="45.64198" lon="6.57972">
        <ele>1573.86</ele>
        <time>2019-06-26T14:29:45Z</time>
      </trkpt>
      <trkpt lat="45.64202" lon="6.57985">
        <ele>1573.45</ele>
        <time>2019-06-26T14:29:52Z</time>
      </trkpt>
      <trkpt lat="45.64202" lon="6.5799">
        <ele>1573.36</ele>
        <time>2019-06-26T14:29:55Z</time>
      </trkpt>
      <trkpt lat="45.64206" lon="6.58014">
        <ele>1573.52</ele>
        <time>2019-06-26T14:30:11Z</time>
      </trkpt>
      <trkpt lat="45.64207" lon="6.58021">
        <ele>1573.73</ele>
        <time>2019-06-26T14:30:15Z</time>
      </trkpt>
      <trkpt lat="45.64205" lon="6.58032">
        <ele>1573.56</ele>
        <time>2019-06-26T14:30:21Z</time>
      </trkpt>
      <trkpt lat="45.642" lon="6.58043">
        <ele>1573.41</ele>
        <time>2019-06-26T14:30:29Z</time>
      </trkpt>
      <trkpt lat="45.6419" lon="6.5806">
        <ele>1573.35</ele>
        <time>2019-06-26T14:30:43Z</time>
      </trkpt>
      <trkpt lat="45.64187" lon="6.58067">
        <ele>1573.12</ele>
        <time>2019-06-26T14:30:47Z</time>
      </trkpt>
      <trkpt lat="45.64176" lon="6.58093">
        <ele>1572.85</ele>
        <time>2019-06-26T14:31:05Z</time>
      </trkpt>
      <trkpt lat="45.64174" lon="6.58097">
        <ele>1573.11</ele>
        <time>2019-06-26T14:31:08Z</time>
      </trkpt>
      <trkpt lat="45.64163" lon="6.58131">
        <ele>1573.88</ele>
        <time>2019-06-26T14:31:27Z</time>
      </trkpt>
      <trkpt lat="45.64165" lon="6.5816">
        <ele>1575.26</ele>
        <time>2019-06-26T14:31:46Z</time>
      </trkpt>
      <trkpt lat="45.64166" lon="6.58165">
        <ele>1575.25</ele>
        <time>2019-06-26T14:31:49Z</time>
      </trkpt>
      <trkpt lat="45.6417" lon="6.58185">
        <ele>1575.05</ele>
        <time>2019-06-26T14:32:01Z</time>
      </trkpt>
      <trkpt lat="45.64172" lon="6.5819">
        <ele>1575.28</ele>
        <time>2019-06-26T14:32:04Z</time>
      </trkpt>
      <trkpt lat="45.64173" lon="6.58195">
        <ele>1575.08</ele>
        <time>2019-06-26T14:32:07Z</time>
      </trkpt>
      <trkpt lat="45.64174" lon="6.58203">
        <ele>1575.57</ele>
        <time>2019-06-26T14:32:12Z</time>
      </trkpt>
      <trkpt lat="45.64177" lon="6.58213">
        <ele>1576.57</ele>
        <time>2019-06-26T14:32:20Z</time>
      </trkpt>
      <trkpt lat="45.64181" lon="6.58225">
        <ele>1576.64</ele>
        <time>2019-06-26T14:32:29Z</time>
      </trkpt>
      <trkpt lat="45.64186" lon="6.58232">
        <ele>1575.68</ele>
        <time>2019-06-26T14:32:35Z</time>
      </trkpt>
      <trkpt lat="45.64196" lon="6.58243">
        <ele>1575.38</ele>
        <time>2019-06-26T14:32:44Z</time>
      </trkpt>
      <trkpt lat="45.642" lon="6.58245">
        <ele>1575.41</ele>
        <time>2019-06-26T14:32:46Z</time>
      </trkpt>
      <trkpt lat="45.6421" lon="6.58255">
        <ele>1575.05</ele>
        <time>2019-06-26T14:33:02Z</time>
      </trkpt>
      <trkpt lat="45.64209" lon="6.58255">
        <ele>1575.17</ele>
        <time>2019-06-26T14:33:06Z</time>
      </trkpt>
      <trkpt lat="45.64216" lon="6.58261">
        <ele>1574.68</ele>
        <time>2019-06-26T14:33:19Z</time>
      </trkpt>
      <trkpt lat="45.64225" lon="6.58268">
        <ele>1575</ele>
        <time>2019-06-26T14:33:29Z</time>
      </trkpt>
      <trkpt lat="45.64232" lon="6.58277">
        <ele>1575.44</ele>
        <time>2019-06-26T14:33:39Z</time>
      </trkpt>
      <trkpt lat="45.64243" lon="6.5829">
        <ele>1577.65</ele>
        <time>2019-06-26T14:33:55Z</time>
      </trkpt>
      <trkpt lat="45.64261" lon="6.58301">
        <ele>1579.52</ele>
        <time>2019-06-26T14:34:16Z</time>
      </trkpt>
      <trkpt lat="45.64263" lon="6.58303">
        <ele>1579.55</ele>
        <time>2019-06-26T14:34:18Z</time>
      </trkpt>
      <trkpt lat="45.64271" lon="6.58317">
        <ele>1582.59</ele>
        <time>2019-06-26T14:34:37Z</time>
      </trkpt>
      <trkpt lat="45.64279" lon="6.58325">
        <ele>1584.72</ele>
        <time>2019-06-26T14:34:53Z</time>
      </trkpt>
      <trkpt lat="45.64287" lon="6.58324">
        <ele>1584.53</ele>
        <time>2019-06-26T14:35:08Z</time>
      </trkpt>
      <trkpt lat="45.64287" lon="6.58331">
        <ele>1584.52</ele>
        <time>2019-06-26T14:35:33Z</time>
      </trkpt>
      <trkpt lat="45.64285" lon="6.58332">
        <ele>1584.68</ele>
        <time>2019-06-26T14:36:02Z</time>
      </trkpt>
      <trkpt lat="45.64294" lon="6.58325">
        <ele>1584.15</ele>
        <time>2019-06-26T14:36:16Z</time>
      </trkpt>
      <trkpt lat="45.64302" lon="6.58324">
        <ele>1583.33</ele>
        <time>2019-06-26T14:36:27Z</time>
      </trkpt>
      <trkpt lat="45.64308" lon="6.58319">
        <ele>1582.87</ele>
        <time>2019-06-26T14:36:33Z</time>
      </trkpt>
      <trkpt lat="45.64314" lon="6.58312">
        <ele>1582.36</ele>
        <time>2019-06-26T14:36:39Z</time>
      </trkpt>
      <trkpt lat="45.64317" lon="6.58309">
        <ele>1582.24</ele>
        <time>2019-06-26T14:36:42Z</time>
      </trkpt>
      <trkpt lat="45.64324" lon="6.58307">
        <ele>1581.33</ele>
        <time>2019-06-26T14:36:51Z</time>
      </trkpt>
      <trkpt lat="45.64329" lon="6.5831">
        <ele>1580.96</ele>
        <time>2019-06-26T14:36:56Z</time>
      </trkpt>
      <trkpt lat="45.64338" lon="6.58317">
        <ele>1579.76</ele>
        <time>2019-06-26T14:37:13Z</time>
      </trkpt>
      <trkpt lat="45.64342" lon="6.58316">
        <ele>1579.18</ele>
        <time>2019-06-26T14:37:19Z</time>
      </trkpt>
      <trkpt lat="45.6435" lon="6.58317">
        <ele>1578.73</ele>
        <time>2019-06-26T14:37:24Z</time>
      </trkpt>
      <trkpt lat="45.64373" lon="6.5831">
        <ele>1576.63</ele>
        <time>2019-06-26T14:37:42Z</time>
      </trkpt>
      <trkpt lat="45.64375" lon="6.58309">
        <ele>1576.52</ele>
        <time>2019-06-26T14:37:44Z</time>
      </trkpt>
      <trkpt lat="45.6438" lon="6.58306">
        <ele>1575.86</ele>
        <time>2019-06-26T14:37:49Z</time>
      </trkpt>
      <trkpt lat="45.64401" lon="6.58292">
        <ele>1574.26</ele>
        <time>2019-06-26T14:38:05Z</time>
      </trkpt>
      <trkpt lat="45.64408" lon="6.58288">
        <ele>1573.71</ele>
        <time>2019-06-26T14:38:23Z</time>
      </trkpt>
      <trkpt lat="45.64429" lon="6.58288">
        <ele>1572.65</ele>
        <time>2019-06-26T14:38:42Z</time>
      </trkpt>
      <trkpt lat="45.64433" lon="6.58289">
        <ele>1572.32</ele>
        <time>2019-06-26T14:38:44Z</time>
      </trkpt>
      <trkpt lat="45.64435" lon="6.58288">
        <ele>1572.22</ele>
        <time>2019-06-26T14:38:46Z</time>
      </trkpt>
      <trkpt lat="45.6445" lon="6.58293">
        <ele>1571.83</ele>
        <time>2019-06-26T14:38:57Z</time>
      </trkpt>
      <trkpt lat="45.64459" lon="6.58297">
        <ele>1571.24</ele>
        <time>2019-06-26T14:39:06Z</time>
      </trkpt>
      <trkpt lat="45.64477" lon="6.58299">
        <ele>1570.6</ele>
        <time>2019-06-26T14:39:21Z</time>
      </trkpt>
      <trkpt lat="45.64495" lon="6.58303">
        <ele>1568.13</ele>
        <time>2019-06-26T14:39:38Z</time>
      </trkpt>
      <trkpt lat="45.6451" lon="6.58298">
        <ele>1567.75</ele>
        <time>2019-06-26T14:39:53Z</time>
      </trkpt>
      <trkpt lat="45.64532" lon="6.583">
        <ele>1568.25</ele>
        <time>2019-06-26T14:40:10Z</time>
      </trkpt>
      <trkpt lat="45.64547" lon="6.58302">
        <ele>1569.2</ele>
        <time>2019-06-26T14:40:23Z</time>
      </trkpt>
      <trkpt lat="45.64564" lon="6.58303">
        <ele>1568.4</ele>
        <time>2019-06-26T14:40:43Z</time>
      </trkpt>
      <trkpt lat="45.64571" lon="6.58305">
        <ele>1568.28</ele>
        <time>2019-06-26T14:40:49Z</time>
      </trkpt>
      <trkpt lat="45.6459" lon="6.58318">
        <ele>1566.66</ele>
        <time>2019-06-26T14:41:09Z</time>
      </trkpt>
      <trkpt lat="45.6461" lon="6.58329">
        <ele>1566.13</ele>
        <time>2019-06-26T14:41:23Z</time>
      </trkpt>
      <trkpt lat="45.64619" lon="6.58321">
        <ele>1566.06</ele>
        <time>2019-06-26T14:41:31Z</time>
      </trkpt>
      <trkpt lat="45.64624" lon="6.58317">
        <ele>1565.89</ele>
        <time>2019-06-26T14:41:36Z</time>
      </trkpt>
      <trkpt lat="45.6463" lon="6.58314">
        <ele>1565.87</ele>
        <time>2019-06-26T14:41:41Z</time>
      </trkpt>
      <trkpt lat="45.64647" lon="6.5833">
        <ele>1567.03</ele>
        <time>2019-06-26T14:41:58Z</time>
      </trkpt>
      <trkpt lat="45.64651" lon="6.58335">
        <ele>1567.07</ele>
        <time>2019-06-26T14:42:03Z</time>
      </trkpt>
      <trkpt lat="45.64653" lon="6.5834">
        <ele>1567.42</ele>
        <time>2019-06-26T14:42:06Z</time>
      </trkpt>
      <trkpt lat="45.64655" lon="6.58344">
        <ele>1567.7</ele>
        <time>2019-06-26T14:42:09Z</time>
      </trkpt>
      <trkpt lat="45.64659" lon="6.58363">
        <ele>1568.61</ele>
        <time>2019-06-26T14:42:24Z</time>
      </trkpt>
      <trkpt lat="45.64659" lon="6.58384">
        <ele>1568.82</ele>
        <time>2019-06-26T14:42:35Z</time>
      </trkpt>
      <trkpt lat="45.64664" lon="6.58397">
        <ele>1568.62</ele>
        <time>2019-06-26T14:42:44Z</time>
      </trkpt>
      <trkpt lat="45.64674" lon="6.58414">
        <ele>1567.94</ele>
        <time>2019-06-26T14:42:57Z</time>
      </trkpt>
      <trkpt lat="45.6469" lon="6.58426">
        <ele>1567.13</ele>
        <time>2019-06-26T14:43:10Z</time>
      </trkpt>
      <trkpt lat="45.647" lon="6.58441">
        <ele>1566.86</ele>
        <time>2019-06-26T14:43:21Z</time>
      </trkpt>
      <trkpt lat="45.64707" lon="6.58457">
        <ele>1566.3</ele>
        <time>2019-06-26T14:43:33Z</time>
      </trkpt>
      <trkpt lat="45.64723" lon="6.58473">
        <ele>1565.86</ele>
        <time>2019-06-26T14:43:49Z</time>
      </trkpt>
      <trkpt lat="45.64737" lon="6.58486">
        <ele>1564.95</ele>
        <time>2019-06-26T14:44:06Z</time>
      </trkpt>
      <trkpt lat="45.6476" lon="6.58478">
        <ele>1564.68</ele>
        <time>2019-06-26T14:44:25Z</time>
      </trkpt>
      <trkpt lat="45.64763" lon="6.58474">
        <ele>1564.9</ele>
        <time>2019-06-26T14:44:29Z</time>
      </trkpt>
      <trkpt lat="45.64765" lon="6.58472">
        <ele>1564.64</ele>
        <time>2019-06-26T14:44:31Z</time>
      </trkpt>
      <trkpt lat="45.64776" lon="6.58454">
        <ele>1563.14</ele>
        <time>2019-06-26T14:44:46Z</time>
      </trkpt>
      <trkpt lat="45.64779" lon="6.58448">
        <ele>1563.36</ele>
        <time>2019-06-26T14:44:51Z</time>
      </trkpt>
      <trkpt lat="45.64793" lon="6.58433">
        <ele>1563.72</ele>
        <time>2019-06-26T14:45:06Z</time>
      </trkpt>
      <trkpt lat="45.64798" lon="6.58424">
        <ele>1563.53</ele>
        <time>2019-06-26T14:45:13Z</time>
      </trkpt>
      <trkpt lat="45.64809" lon="6.58406">
        <ele>1564.08</ele>
        <time>2019-06-26T14:45:30Z</time>
      </trkpt>
      <trkpt lat="45.64829" lon="6.58392">
        <ele>1565.43</ele>
        <time>2019-06-26T14:45:48Z</time>
      </trkpt>
      <trkpt lat="45.64835" lon="6.58391">
        <ele>1565.87</ele>
        <time>2019-06-26T14:45:55Z</time>
      </trkpt>
      <trkpt lat="45.6486" lon="6.58386">
        <ele>1567.71</ele>
        <time>2019-06-26T14:46:17Z</time>
      </trkpt>
      <trkpt lat="45.64884" lon="6.58384">
        <ele>1570.24</ele>
        <time>2019-06-26T14:46:39Z</time>
      </trkpt>
      <trkpt lat="45.64899" lon="6.58388">
        <ele>1571.48</ele>
        <time>2019-06-26T14:46:56Z</time>
      </trkpt>
      <trkpt lat="45.64917" lon="6.58394">
        <ele>1572.75</ele>
        <time>2019-06-26T14:47:13Z</time>
      </trkpt>
      <trkpt lat="45.6493" lon="6.58397">
        <ele>1573.43</ele>
        <time>2019-06-26T14:47:26Z</time>
      </trkpt>
      <trkpt lat="45.6495" lon="6.58397">
        <ele>1575.43</ele>
        <time>2019-06-26T14:47:44Z</time>
      </trkpt>
      <trkpt lat="45.64972" lon="6.58392">
        <ele>1577.4</ele>
        <time>2019-06-26T14:48:05Z</time>
      </trkpt>
      <trkpt lat="45.6498" lon="6.5839">
        <ele>1578.2</ele>
        <time>2019-06-26T14:48:19Z</time>
      </trkpt>
      <trkpt lat="45.64985" lon="6.58389">
        <ele>1578.56</ele>
        <time>2019-06-26T14:48:23Z</time>
      </trkpt>
      <trkpt lat="45.65002" lon="6.58391">
        <ele>1579.53</ele>
        <time>2019-06-26T14:48:39Z</time>
      </trkpt>
      <trkpt lat="45.65014" lon="6.58411">
        <ele>1580.17</ele>
        <time>2019-06-26T14:48:55Z</time>
      </trkpt>
      <trkpt lat="45.65016" lon="6.58416">
        <ele>1579.75</ele>
        <time>2019-06-26T14:48:58Z</time>
      </trkpt>
      <trkpt lat="45.65018" lon="6.58432">
        <ele>1580.17</ele>
        <time>2019-06-26T14:49:07Z</time>
      </trkpt>
      <trkpt lat="45.65029" lon="6.58447">
        <ele>1579.15</ele>
        <time>2019-06-26T14:49:23Z</time>
      </trkpt>
      <trkpt lat="45.65035" lon="6.58446">
        <ele>1579.33</ele>
        <time>2019-06-26T14:49:28Z</time>
      </trkpt>
      <trkpt lat="45.6504" lon="6.58445">
        <ele>1579.36</ele>
        <time>2019-06-26T14:49:32Z</time>
      </trkpt>
      <trkpt lat="45.65059" lon="6.58419">
        <ele>1579.26</ele>
        <time>2019-06-26T14:49:50Z</time>
      </trkpt>
      <trkpt lat="45.6507" lon="6.58395">
        <ele>1579.05</ele>
        <time>2019-06-26T14:50:06Z</time>
      </trkpt>
      <trkpt lat="45.65076" lon="6.58378">
        <ele>1578.58</ele>
        <time>2019-06-26T14:50:16Z</time>
      </trkpt>
      <trkpt lat="45.6508" lon="6.58345">
        <ele>1577.89</ele>
        <time>2019-06-26T14:50:35Z</time>
      </trkpt>
      <trkpt lat="45.65086" lon="6.58317">
        <ele>1577.11</ele>
        <time>2019-06-26T14:50:50Z</time>
      </trkpt>
      <trkpt lat="45.65101" lon="6.58294">
        <ele>1575.99</ele>
        <time>2019-06-26T14:51:07Z</time>
      </trkpt>
      <trkpt lat="45.6511" lon="6.5827">
        <ele>1575.46</ele>
        <time>2019-06-26T14:51:23Z</time>
      </trkpt>
      <trkpt lat="45.65116" lon="6.58244">
        <ele>1575.67</ele>
        <time>2019-06-26T14:51:39Z</time>
      </trkpt>
      <trkpt lat="45.65116" lon="6.58229">
        <ele>1576.43</ele>
        <time>2019-06-26T14:51:48Z</time>
      </trkpt>
      <trkpt lat="45.65115" lon="6.58224">
        <ele>1576.81</ele>
        <time>2019-06-26T14:51:51Z</time>
      </trkpt>
      <trkpt lat="45.65113" lon="6.58215">
        <ele>1577.14</ele>
        <time>2019-06-26T14:51:56Z</time>
      </trkpt>
      <trkpt lat="45.6511" lon="6.5819">
        <ele>1577.86</ele>
        <time>2019-06-26T14:52:11Z</time>
      </trkpt>
      <trkpt lat="45.65103" lon="6.58158">
        <ele>1579.41</ele>
        <time>2019-06-26T14:52:31Z</time>
      </trkpt>
      <trkpt lat="45.65098" lon="6.58134">
        <ele>1580.67</ele>
        <time>2019-06-26T14:52:47Z</time>
      </trkpt>
      <trkpt lat="45.65098" lon="6.58132">
        <ele>1580.6</ele>
        <time>2019-06-26T14:52:48Z</time>
      </trkpt>
      <trkpt lat="45.65105" lon="6.58125">
        <ele>1582.56</ele>
        <time>2019-06-26T14:53:02Z</time>
      </trkpt>
      <trkpt lat="45.65108" lon="6.58126">
        <ele>1581.57</ele>
        <time>2019-06-26T14:53:13Z</time>
      </trkpt>
      <trkpt lat="45.6511" lon="6.58128">
        <ele>1582.17</ele>
        <time>2019-06-26T14:53:52Z</time>
      </trkpt>
      <trkpt lat="45.65113" lon="6.58127">
        <ele>1582.81</ele>
        <time>2019-06-26T14:54:15Z</time>
      </trkpt>
      <trkpt lat="45.65113" lon="6.58127">
        <ele>1581.55</ele>
        <time>2019-06-26T14:54:18Z</time>
      </trkpt>
    </trkseg>
  </trk>
</gpx>